[[{"header":{"parameterUnit":"m.s-1","parameterCategory":1,"la1":30.6,"la2":29.2853,"lo1":-89.7004,"lo2":-87.6739,"dx":0.0162,"dy":0.0183,"nx":112,"ny":82,"refTime":"2023-02-03T06:00:00:Z","depth":0,"parameterNumber":2,"parameterNumberName":"U-component_of_WINDS"},"data":[0.0,0.0,0.0,0.0,0.0,0.0,0.0,0.0,0.0,0.0,0.0,0.0,0.0,0.0,0.0,0.0,0.0,0.0,0.0,0.0,0.0,0.0,0.0,0.0,0.0,0.0,0.0,0.0,0.0,0.0,0.0,0.0,0.0,0.0,0.0,0.0,0.0,0.0,0.0,0.0,0.0,0.0,0.0,0.0,0.0,0.0,0.0,0.0,0.0,0.0,0.0,0.0,0.0,0.0,0.0,0.0,0.0,0.0,0.0,0.0,0.0,0.0,0.0,0.0,0.0,0.0,0.0,0.0,0.0,0.0,0.0,0.0,0.0,0.0,0.0,0.0,0.0,0.0,0.0,0.0,0.0,0.0,0.0,0.0,0.0,0.0,0.0,0.0,0.0,0.0,0.0,-3.9388,-3.9388,-3.9388,-3.9388,-3.9388,-3.9388,-3.9388,0.0,0.0,0.0,0.0,0.0,0.0,0.0,0.0,0.0,0.0,0.0,0.0,0.0,0.0,0.0,0.0,0.0,0.0,0.0,0.0,0.0,0.0,0.0,0.0,0.0,0.0,0.0,0.0,0.0,0.0,0.0,0.0,0.0,0.0,0.0,0.0,0.0,0.0,0.0,0.0,0.0,0.0,0.0,0.0,0.0,0.0,0.0,0.0,0.0,0.0,0.0,0.0,0.0,0.0,0.0,0.0,0.0,0.0,0.0,0.0,0.0,0.0,0.0,0.0,0.0,0.0,0.0,0.0,0.0,0.0,0.0,0.0,0.0,0.0,0.0,0.0,0.0,0.0,0.0,0.0,0.0,0.0,0.0,0.0,0.0,0.0,0.0,0.0,0.0,0.0,0.0,0.0,0.0,0.0,0.0,0.0,0.0,0.0,0.0,0.0,0.0,0.0,0.0,0.0,-3.9388,-3.9388,-3.9388,-3.9388,-3.9388,-3.9388,-3.9388,-3.9388,0.0,0.0,0.0,0.0,0.0,0.0,0.0,0.0,0.0,0.0,0.0,0.0,0.0,0.0,0.0,0.0,0.0,0.0,0.0,0.0,0.0,0.0,0.0,0.0,0.0,0.0,0.0,0.0,0.0,0.0,0.0,0.0,0.0,0.0,0.0,0.0,0.0,0.0,0.0,0.0,0.0,0.0,0.0,0.0,0.0,0.0,0.0,0.0,0.0,0.0,0.0,0.0,0.0,0.0,0.0,0.0,0.0,0.0,0.0,0.0,0.0,0.0,0.0,0.0,0.0,0.0,0.0,0.0,0.0,0.0,0.0,0.0,0.0,0.0,0.0,0.0,0.0,0.0,0.0,0.0,0.0,0.0,0.0,0.0,0.0,0.0,0.0,0.0,0.0,0.0,0.0,0.0,0.0,0.0,0.0,0.0,0.0,0.0,0.0,0.0,0.0,0.0,0.0,-3.9388,-3.9388,-3.9388,-3.9388,-3.9388,-3.9388,-3.9388,-3.9388,-3.9388,-3.9388,0.0,0.0,0.0,0.0,0.0,0.0,0.0,0.0,0.0,0.0,0.0,0.0,0.0,0.0,0.0,0.0,0.0,0.0,0.0,0.0,0.0,0.0,0.0,0.0,0.0,0.0,0.0,0.0,0.0,0.0,0.0,0.0,0.0,0.0,0.0,0.0,0.0,0.0,0.0,0.0,0.0,0.0,0.0,0.0,0.0,0.0,0.0,0.0,0.0,0.0,0.0,0.0,0.0,0.0,0.0,0.0,0.0,0.0,0.0,0.0,0.0,0.0,0.0,0.0,0.0,0.0,0.0,0.0,0.0,0.0,0.0,0.0,0.0,0.0,0.0,0.0,0.0,0.0,0.0,0.0,0.0,0.0,0.0,0.0,0.0,0.0,0.0,0.0,0.0,0.0,0.0,0.0,0.0,0.0,0.0,0.0,0.0,0.0,0.0,0.0,0.0,0.0,-3.9388,-3.9388,-3.9388,-3.9388,-3.9388,-3.9388,-3.9388,-3.9388,-3.9388,-3.9574,0.0,0.0,0.0,0.0,0.0,0.0,0.0,0.0,0.0,0.0,0.0,0.0,0.0,0.0,0.0,0.0,0.0,0.0,0.0,0.0,0.0,0.0,0.0,0.0,0.0,0.0,0.0,0.0,0.0,0.0,0.0,0.0,0.0,0.0,0.0,0.0,0.0,0.0,0.0,0.0,0.0,0.0,0.0,0.0,0.0,0.0,0.0,0.0,0.0,0.0,0.0,0.0,0.0,0.0,0.0,0.0,0.0,0.0,0.0,0.0,0.0,0.0,0.0,0.0,0.0,0.0,0.0,0.0,0.0,0.0,0.0,0.0,0.0,0.0,0.0,0.0,0.0,0.0,0.0,0.0,0.0,0.0,0.0,0.0,0.0,0.0,0.0,0.0,0.0,0.0,0.0,0.0,0.0,0.0,0.0,0.0,0.0,0.0,0.0,0.0,0.0,0.0,-3.9388,-3.9388,-3.9388,-3.9388,-3.9388,-3.9388,-3.9388,-3.9388,-3.9388,-3.9993,0.0,0.0,0.0,0.0,0.0,0.0,0.0,0.0,0.0,0.0,0.0,0.0,0.0,0.0,0.0,0.0,0.0,0.0,0.0,0.0,0.0,0.0,0.0,0.0,0.0,0.0,0.0,0.0,0.0,0.0,0.0,0.0,0.0,0.0,0.0,0.0,0.0,0.0,0.0,0.0,0.0,0.0,0.0,0.0,0.0,0.0,0.0,0.0,0.0,0.0,0.0,0.0,0.0,0.0,0.0,0.0,0.0,0.0,0.0,0.0,0.0,0.0,0.0,0.0,0.0,0.0,0.0,0.0,0.0,0.0,0.0,0.0,0.0,0.0,0.0,0.0,0.0,0.0,0.0,0.0,0.0,0.0,0.0,0.0,0.0,0.0,0.0,0.0,0.0,0.0,0.0,0.0,0.0,0.0,0.0,0.0,0.0,0.0,0.0,0.0,0.0,0.0,-3.9388,-3.9388,0.0,-3.9388,-3.9388,-3.9388,-3.9388,-3.9589,-4.0008,0.0,0.0,0.0,0.0,0.0,0.0,0.0,0.0,0.0,0.0,0.0,0.0,0.0,0.0,0.0,0.0,0.0,0.0,0.0,0.0,0.0,0.0,0.0,0.0,0.0,0.0,0.0,0.0,0.0,0.0,0.0,0.0,0.0,0.0,0.0,0.0,0.0,0.0,0.0,0.0,0.0,0.0,0.0,0.0,0.0,0.0,0.0,0.0,0.0,0.0,0.0,0.0,0.0,0.0,0.0,0.0,0.0,0.0,0.0,0.0,0.0,0.0,0.0,0.0,0.0,0.0,0.0,0.0,0.0,0.0,0.0,0.0,0.0,0.0,0.0,0.0,0.0,0.0,0.0,0.0,0.0,0.0,0.0,0.0,0.0,0.0,0.0,0.0,0.0,0.0,0.0,0.0,0.0,0.0,0.0,0.0,0.0,0.0,0.0,0.0,0.0,0.0,-3.9388,-3.9388,-3.9388,0.0,-3.9388,-3.9514,-3.9709,-3.938,-3.961,-4.0666,0.0,0.0,0.0,0.0,0.0,0.0,0.0,0.0,0.0,0.0,0.0,0.0,0.0,0.0,0.0,0.0,0.0,0.0,0.0,0.0,0.0,0.0,0.0,0.0,0.0,0.0,0.0,0.0,0.0,0.0,0.0,0.0,0.0,0.0,0.0,0.0,0.0,0.0,0.0,0.0,0.0,0.0,0.0,0.0,0.0,0.0,0.0,0.0,0.0,0.0,0.0,0.0,0.0,0.0,0.0,0.0,0.0,0.0,0.0,0.0,0.0,0.0,0.0,0.0,0.0,0.0,0.0,0.0,0.0,0.0,0.0,0.0,0.0,0.0,0.0,0.0,0.0,0.0,0.0,0.0,0.0,0.0,0.0,0.0,0.0,0.0,0.0,0.0,0.0,0.0,0.0,0.0,0.0,0.0,0.0,0.0,0.0,0.0,0.0,0.0,0.0,0.0,-3.9403,-3.9403,-3.9403,-3.9403,-3.9403,-3.9672,-4.0315,-3.9346,-3.9455,0.0,0.0,0.0,0.0,0.0,0.0,0.0,0.0,0.0,0.0,0.0,0.0,0.0,0.0,0.0,0.0,0.0,0.0,0.0,0.0,0.0,0.0,0.0,0.0,0.0,0.0,0.0,0.0,0.0,0.0,0.0,0.0,0.0,0.0,0.0,0.0,0.0,0.0,0.0,0.0,0.0,0.0,0.0,0.0,0.0,0.0,0.0,0.0,0.0,0.0,0.0,0.0,0.0,0.0,0.0,0.0,0.0,0.0,0.0,0.0,0.0,0.0,0.0,0.0,0.0,0.0,0.0,0.0,0.0,0.0,0.0,0.0,0.0,0.0,0.0,0.0,0.0,0.0,0.0,0.0,0.0,0.0,0.0,0.0,0.0,0.0,0.0,0.0,0.0,0.0,0.0,0.0,0.0,0.0,0.0,0.0,0.0,0.0,0.0,0.0,0.0,0.0,0.0,-3.9533,-3.8825,-3.8666,-3.9441,-3.8825,-3.8737,-3.9755,-3.8776,-3.891,-4.071,0.0,0.0,0.0,0.0,0.0,0.0,0.0,0.0,0.0,0.0,0.0,0.0,0.0,0.0,0.0,0.0,0.0,0.0,0.0,0.0,0.0,0.0,0.0,0.0,0.0,0.0,0.0,0.0,0.0,0.0,0.0,0.0,0.0,0.0,0.0,0.0,0.0,0.0,0.0,0.0,0.0,0.0,0.0,0.0,0.0,0.0,0.0,0.0,0.0,0.0,0.0,0.0,0.0,0.0,0.0,0.0,0.0,0.0,0.0,0.0,0.0,0.0,0.0,0.0,0.0,0.0,0.0,0.0,0.0,0.0,0.0,0.0,0.0,0.0,0.0,0.0,0.0,0.0,0.0,0.0,0.0,0.0,0.0,0.0,0.0,0.0,0.0,0.0,0.0,0.0,0.0,0.0,0.0,0.0,0.0,0.0,0.0,0.0,0.0,0.0,0.0,0.0,-3.9581,-3.8584,-3.8173,-3.8843,-3.8297,-3.827,-3.9222,-3.8239,-3.8373,-4.0195,0.0,0.0,0.0,0.0,0.0,0.0,0.0,0.0,0.0,0.0,0.0,0.0,0.0,0.0,0.0,0.0,0.0,0.0,0.0,0.0,0.0,0.0,0.0,0.0,0.0,0.0,0.0,0.0,0.0,0.0,0.0,0.0,0.0,0.0,0.0,0.0,0.0,0.0,0.0,0.0,0.0,0.0,0.0,0.0,0.0,0.0,0.0,0.0,0.0,0.0,0.0,0.0,0.0,0.0,0.0,0.0,0.0,0.0,0.0,0.0,0.0,0.0,0.0,0.0,0.0,0.0,0.0,0.0,0.0,0.0,0.0,0.0,0.0,0.0,0.0,0.0,0.0,0.0,0.0,0.0,0.0,0.0,0.0,0.0,0.0,0.0,0.0,0.0,0.0,0.0,0.0,0.0,0.0,0.0,0.0,0.0,0.0,0.0,0.0,0.0,0.0,0.0,-3.9472,-3.8463,-3.7795,-3.7935,-3.7837,-3.8056,-3.8774,-3.7714,-3.7821,-3.9596,0.0,0.0,0.0,0.0,0.0,0.0,0.0,0.0,0.0,0.0,0.0,0.0,0.0,0.0,0.0,0.0,0.0,0.0,0.0,0.0,0.0,0.0,0.0,0.0,0.0,0.0,0.0,0.0,0.0,0.0,0.0,0.0,0.0,0.0,0.0,0.0,0.0,0.0,0.0,0.0,0.0,0.0,0.0,0.0,0.0,0.0,0.0,0.0,0.0,0.0,0.0,0.0,0.0,0.0,0.0,0.0,0.0,0.0,0.0,0.0,-3.5917,0.0,0.0,0.0,0.0,0.0,0.0,0.0,0.0,0.0,0.0,0.0,0.0,0.0,0.0,0.0,0.0,0.0,0.0,0.0,0.0,0.0,0.0,0.0,0.0,0.0,0.0,0.0,0.0,0.0,0.0,0.0,0.0,0.0,0.0,0.0,0.0,0.0,0.0,0.0,0.0,0.0,-3.8438,-3.7449,-3.7052,-3.7962,-3.7267,-3.715,-3.8179,-3.7233,-3.7114,-3.8411,0.0,0.0,0.0,0.0,0.0,0.0,0.0,0.0,0.0,0.0,0.0,0.0,0.0,0.0,0.0,0.0,0.0,0.0,0.0,0.0,0.0,0.0,0.0,0.0,0.0,0.0,0.0,0.0,0.0,0.0,0.0,0.0,0.0,0.0,0.0,0.0,0.0,0.0,0.0,0.0,0.0,0.0,0.0,0.0,0.0,0.0,0.0,0.0,0.0,0.0,0.0,0.0,0.0,0.0,0.0,0.0,0.0,0.0,0.0,0.0,0.0,-3.4022,0.0,0.0,0.0,0.0,0.0,0.0,0.0,0.0,0.0,0.0,0.0,0.0,0.0,0.0,0.0,0.0,0.0,0.0,0.0,0.0,0.0,0.0,0.0,0.0,0.0,0.0,0.0,0.0,0.0,0.0,0.0,0.0,0.0,0.0,0.0,0.0,0.0,0.0,0.0,0.0,-3.8107,-3.7103,-3.6628,-3.7243,-3.6756,-3.6628,-3.7243,-3.6756,-3.6675,-3.7243,-3.7276,0.0,0.0,0.0,0.0,0.0,0.0,0.0,0.0,0.0,0.0,0.0,0.0,0.0,0.0,0.0,0.0,0.0,0.0,0.0,0.0,0.0,0.0,0.0,0.0,0.0,0.0,0.0,0.0,0.0,0.0,0.0,0.0,0.0,0.0,0.0,0.0,0.0,0.0,0.0,0.0,0.0,0.0,0.0,0.0,0.0,0.0,0.0,0.0,0.0,0.0,0.0,0.0,0.0,-3.1837,-3.1549,-3.1649,-3.185,-3.1705,-3.1257,-3.0576,-3.0493,-3.0938,0.0,0.0,0.0,0.0,0.0,0.0,0.0,0.0,0.0,0.0,0.0,0.0,0.0,0.0,0.0,0.0,0.0,0.0,0.0,0.0,0.0,0.0,0.0,0.0,0.0,-3.0773,-3.0266,0.0,0.0,0.0,0.0,0.0,0.0,0.0,0.0,0.0,0.0,0.0,0.0,-3.7802,-3.6977,-3.6405,-3.6405,-3.6405,-3.6405,-3.6405,-3.6405,-3.6405,-3.6405,-3.6405,-3.6405,0.0,0.0,0.0,0.0,0.0,0.0,0.0,0.0,0.0,0.0,0.0,0.0,0.0,0.0,0.0,0.0,0.0,0.0,0.0,0.0,0.0,0.0,0.0,0.0,0.0,0.0,0.0,0.0,0.0,0.0,0.0,0.0,-3.454,-3.3628,0.0,0.0,0.0,0.0,0.0,0.0,0.0,0.0,0.0,0.0,0.0,0.0,0.0,0.0,-3.1791,-3.1247,-3.1446,-3.234,-3.1771,-3.1716,-3.2141,-3.1038,-3.0534,-3.0368,-2.9151,0.0,-3.137,-3.1091,0.0,0.0,0.0,0.0,0.0,0.0,0.0,0.0,0.0,0.0,0.0,0.0,0.0,0.0,0.0,0.0,0.0,0.0,0.0,0.0,0.0,0.0,-2.8591,-2.8804,-2.8698,-2.8591,0.0,-3.0669,-3.2331,-3.2543,0.0,0.0,0.0,0.0,0.0,0.0,0.0,0.0,-3.6628,-3.6499,-3.6405,-3.6405,-3.6405,-3.6405,-3.6405,-3.6405,-3.6405,-3.6405,-3.6405,-3.6405,-3.6405,-3.6405,0.0,0.0,0.0,0.0,0.0,0.0,0.0,0.0,0.0,0.0,0.0,0.0,0.0,0.0,0.0,0.0,0.0,0.0,0.0,0.0,0.0,0.0,0.0,0.0,0.0,0.0,0.0,0.0,0.0,-3.3454,-3.2796,-3.3068,-3.2469,-3.2326,0.0,0.0,0.0,0.0,0.0,0.0,0.0,0.0,0.0,-3.1212,-3.1165,-3.1281,-3.1504,-3.0826,-3.0712,-3.1173,-3.0159,-2.9818,-3.0016,-2.946,-2.9154,-2.9154,-2.8548,-2.8843,-2.9745,-3.024,-3.0978,-3.1734,0.0,0.0,0.0,0.0,-3.2477,-3.2282,-3.0947,-3.0637,0.0,0.0,0.0,0.0,0.0,0.0,0.0,0.0,0.0,0.0,0.0,0.0,0.0,-2.8291,-2.8291,-2.8291,-2.8291,-2.9197,-3.0266,0.0,-3.1173,-3.1836,-3.403,0.0,0.0,0.0,0.0,0.0,-3.631,-3.6405,-3.6405,-3.6405,-3.6405,-3.6405,-3.6405,-3.6405,-3.6405,-3.6405,-3.6405,-3.6061,-3.5319,-3.5271,-3.4909,0.0,0.0,0.0,0.0,0.0,0.0,0.0,0.0,0.0,0.0,0.0,0.0,0.0,0.0,0.0,0.0,0.0,0.0,0.0,0.0,0.0,0.0,0.0,0.0,0.0,0.0,0.0,0.0,-3.2008,-3.1677,-3.2939,-3.1689,-3.1223,0.0,0.0,0.0,0.0,0.0,0.0,-3.0161,-3.0303,-3.0373,-3.0373,-3.0595,-3.0694,-3.0694,-3.0098,-2.9817,-2.9765,-2.8804,-2.8291,-2.8291,-2.8291,-2.8291,-2.8291,-2.8291,-2.8291,-2.8398,-2.9355,-2.9964,-3.0421,-3.1378,-3.1977,-3.228,-3.1927,-3.1785,-3.1582,-3.0266,-2.9817,-2.9817,-2.9817,0.0,-3.0068,-3.1378,0.0,0.0,0.0,0.0,-2.9817,-2.9817,-2.9059,-2.8291,-2.8291,-2.8291,-2.8291,-2.8291,-2.8291,-2.8601,0.0,-2.9817,-3.0525,-3.2955,0.0,0.0,0.0,0.0,-3.4215,-3.5198,-3.5343,-3.5499,-3.5858,-3.5918,-3.6013,-3.6358,-3.6405,-3.6405,-3.6405,-3.6061,-3.5415,-3.4434,-3.4068,-3.3365,-3.2331,0.0,0.0,0.0,0.0,0.0,0.0,0.0,0.0,0.0,0.0,0.0,0.0,0.0,0.0,0.0,0.0,0.0,0.0,0.0,0.0,0.0,0.0,0.0,0.0,0.0,0.0,0.0,0.0,0.0,-3.2939,-3.0956,0.0,0.0,0.0,0.0,-3.0045,-3.0008,-3.0184,-3.0663,-2.9981,-2.9543,-2.9543,-2.884,-2.8465,-2.8465,-2.8432,-2.8398,-2.8398,-2.8344,-2.8291,-2.8291,-2.8291,-2.8291,-2.8291,-2.8291,-2.8291,-2.8291,-2.8398,-2.9154,-3.0317,-3.0369,-3.1173,-3.2129,-3.0876,-3.0421,-3.0214,-2.8847,-2.8398,-2.8398,-2.8398,-2.8398,-2.8644,-3.0016,-2.9503,0.0,0.0,-2.9408,-2.8398,-2.8398,-2.8344,-2.8291,-2.8291,-2.8291,-2.8291,-2.8291,-2.8291,-2.8291,0.0,-2.8398,-2.8857,-3.0266,0.0,-3.0865,-3.228,-3.2431,-3.2431,-3.2482,-3.2532,-3.2994,-3.4385,-3.4483,-3.503,-3.631,-3.6405,-3.6405,-3.6405,-3.5223,-3.4483,-3.4385,-3.3105,-3.2381,-3.228,-3.228,0.0,0.0,0.0,0.0,0.0,0.0,0.0,0.0,0.0,0.0,0.0,0.0,0.0,0.0,0.0,0.0,0.0,0.0,0.0,0.0,0.0,0.0,0.0,0.0,0.0,0.0,0.0,0.0,-3.0553,-2.9235,0.0,0.0,-2.9176,-2.8683,-2.8855,-2.8619,-2.8583,-2.8747,-2.8733,-2.8713,-2.8713,-2.8469,-2.8291,-2.8291,-2.8291,-2.8291,-2.8291,-2.8291,-2.8291,-2.8291,-2.8291,-2.8291,-2.8291,-2.8291,-2.8291,-2.8291,-2.8291,-2.8601,-2.9006,-2.9006,-2.9313,-2.966,-2.9207,-2.9006,-2.8953,-2.8441,-2.8291,-2.8291,-2.8291,-2.8291,-2.8398,-2.8847,-2.8698,-2.8398,-2.891,-2.8644,-2.8291,-2.8291,-2.8291,-2.8291,-2.8291,-2.8291,-2.8291,-2.8291,-2.8291,-2.8291,-2.8291,-2.8291,-2.8751,-3.0068,-2.9555,-2.9765,-3.1977,-3.1582,-3.1327,-3.218,-3.228,-3.2482,-3.2994,-3.3055,-3.3254,-3.3737,-3.3737,-3.3737,-3.3737,-3.3292,-3.2644,-3.1796,-3.1276,-3.0628,-2.9765,-2.9713,-2.9713,0.0,0.0,0.0,0.0,0.0,0.0,0.0,0.0,0.0,0.0,0.0,0.0,0.0,0.0,0.0,0.0,0.0,0.0,0.0,0.0,0.0,0.0,0.0,0.0,0.0,0.0,-2.8049,-2.9269,-2.7945,-2.751,-2.8852,-2.813,-2.7734,-2.8031,-2.7839,-2.7777,-2.7924,-2.8144,-2.8291,-2.8291,-2.8291,-2.8291,-2.8291,-2.8291,-2.8291,-2.8291,-2.8291,-2.8291,-2.8291,-2.8291,-2.8291,-2.8291,-2.8291,-2.8291,-2.8291,-2.8291,-2.8291,-2.8291,-2.8291,-2.8291,-2.8291,-2.8291,-2.8291,-2.8291,-2.8291,-2.8291,-2.8291,-2.8291,-2.8291,-2.8291,-2.8291,-2.8291,-2.8291,-2.8291,-2.8291,-2.8291,-2.8291,-2.8291,-2.8291,-2.8291,-2.8291,-2.8291,-2.8291,-2.8291,-2.8291,-2.8291,-2.8291,-2.8601,-2.946,-2.89,-2.89,-3.0669,-3.0214,-2.9964,-3.0824,-3.0968,-3.1122,-3.1582,-3.1633,-3.1825,-3.228,-3.2744,-3.2794,-3.2331,-3.228,-3.1673,-3.0369,-2.9859,-2.9207,-2.8291,-2.8291,-2.8291,-2.8291,0.0,0.0,0.0,0.0,0.0,0.0,0.0,0.0,0.0,0.0,0.0,0.0,0.0,0.0,0.0,0.0,0.0,0.0,0.0,0.0,0.0,0.0,0.0,-2.9177,-2.8319,-2.7955,-2.9131,-2.7163,-2.6318,-2.7977,-2.7111,-2.6758,-2.766,-2.7728,-2.7861,-2.8271,-2.8291,-2.8291,-2.8291,-2.8291,-2.8291,-2.8291,-2.8291,-2.8291,-2.8291,-2.8291,-2.8291,-2.8291,-2.8291,-2.8291,-2.8291,-2.8291,-2.8291,-2.8291,-2.8291,-2.8291,-2.8291,-2.8291,-2.8291,-2.8291,-2.8291,-2.8291,-2.8291,-2.8291,-2.8291,-2.8291,-2.8291,-2.8291,-2.8291,-2.8291,-2.8291,-2.8291,-2.8291,-2.8291,-2.8291,-2.8291,-2.8291,-2.8291,-2.8291,-2.8291,-2.8291,-2.8291,-2.8291,-2.8291,-2.8291,-2.8291,-2.8291,-2.8291,-2.8291,-2.8291,-2.8291,-2.8291,0.0,-2.8291,-2.8291,-2.8804,-3.012,-3.0214,-3.0773,-3.2079,-3.3415,-3.3613,-3.228,-3.218,-3.1582,-3.0266,-2.9006,-2.8291,-2.8291,-2.8291,-2.8291,-2.8291,0.0,0.0,0.0,0.0,0.0,0.0,0.0,0.0,0.0,0.0,0.0,0.0,0.0,0.0,0.0,0.0,0.0,0.0,0.0,0.0,0.0,0.0,-2.7731,-2.8049,-2.703,-2.6332,-2.6706,-2.611,-2.5996,-2.6814,-2.6851,-2.707,-2.7679,-2.7949,-2.8174,-2.8281,-2.8291,-2.8291,-2.8291,-2.8291,-2.8291,-2.8291,-2.8291,-2.8291,-2.8291,-2.8291,-2.8291,-2.8291,-2.8291,-2.8291,-2.8291,-2.8291,-2.8291,-2.8291,-2.8291,-2.8291,-2.8291,-2.8291,-2.8291,-2.8291,-2.8291,-2.8291,-2.8291,-2.8291,-2.8291,-2.8291,-2.8291,-2.8291,-2.8291,-2.8291,-2.8291,-2.8291,-2.8291,-2.8291,-2.8291,-2.8291,-2.8291,-2.8291,-2.8291,-2.8291,-2.8291,-2.8291,-2.8291,-2.8291,-2.8291,-2.8291,-2.8291,-2.8291,-2.8291,-2.8291,-2.8291,-2.8291,0.0,-2.8291,-2.8291,-2.8441,-2.8794,-2.8857,-2.9006,-2.9355,-2.9765,-2.9817,0.0,-2.9408,-2.9207,-2.8847,-2.8495,-2.8291,-2.8291,-2.8291,-2.8291,0.0,0.0,0.0,0.0,0.0,0.0,0.0,0.0,0.0,0.0,0.0,0.0,0.0,0.0,0.0,0.0,0.0,0.0,0.0,0.0,0.0,0.0,-2.7626,-2.6802,-2.6802,-2.6149,-2.5693,-2.5693,-2.5849,-2.6182,-2.6611,-2.7041,-2.7471,-2.79,-2.8154,-2.8291,-2.8291,-2.8291,-2.8291,-2.8291,-2.8291,-2.8291,-2.8291,-2.8291,-2.8291,-2.8291,-2.7672,-2.7726,-2.8237,-2.7006,-2.678,0.0,-2.6726,-2.6391,-2.6391,-2.6391,-2.678,0.0,0.0,0.0,0.0,0.0,-2.8291,-2.8291,-2.8291,-2.8291,-2.8291,-2.8291,-2.8291,-2.8291,-2.8291,-2.8291,-2.8291,-2.8291,-2.8291,-2.8291,-2.8291,-2.8291,-2.8291,-2.8291,-2.8291,-2.8291,-2.8291,-2.8291,-2.8291,-2.8291,0.0,0.0,-2.8291,-2.8291,-2.8291,-2.8291,-2.8291,-2.8291,-2.8291,-2.8291,-2.8291,-2.8291,-2.8291,-2.8291,-2.8291,-2.8794,0.0,0.0,0.0,-2.89,-2.8344,-2.8291,0.0,0.0,0.0,-2.8291,0.0,0.0,0.0,0.0,-2.8291,-2.8291,0.0,0.0,0.0,0.0,0.0,0.0,0.0,0.0,0.0,0.0,0.0,0.0,0.0,0.0,0.0,0.0,-2.6524,-2.5693,-2.5693,-2.5693,-2.5693,-2.5693,-2.6123,-2.6553,-2.6973,-2.7412,-2.7894,-2.8262,-2.8291,-2.8291,-2.8291,0.0,0.0,0.0,0.0,-2.8291,-2.8291,-2.8121,-2.8067,-2.8014,-2.6545,-2.6545,-2.7672,-2.4994,-2.4544,-2.5763,-2.4378,-2.3822,-2.3822,-2.3822,-2.4599,-2.5991,-2.7447,-2.795,-2.7789,-2.8004,-2.796,0.0,-2.8184,0.0,0.0,-2.8237,-2.8291,-2.8291,-2.8291,-2.8291,-2.8291,-2.8291,-2.8291,-2.8291,-2.8291,-2.8291,-2.8291,-2.8291,-2.8291,-2.8291,-2.8291,-2.8291,-2.8291,-2.8291,-2.8291,-2.8291,-2.8291,-2.8291,-2.8291,-2.8291,-2.8291,-2.8291,-2.8291,-2.8291,-2.8291,-2.8291,0.0,0.0,-2.8291,-2.9408,-2.9555,-2.8398,-2.9408,-2.9555,-2.8344,-2.8291,-2.8291,-2.8291,-2.8291,-2.8291,-2.8291,-2.8291,-2.8291,-2.8291,-2.8291,-2.8291,0.0,0.0,0.0,0.0,0.0,0.0,0.0,0.0,0.0,0.0,0.0,0.0,0.0,0.0,0.0,-2.7589,-2.6524,-2.5693,-2.5693,-2.5693,-2.5693,-2.5693,-2.6123,-2.6553,-2.6973,-2.7412,-2.7894,-2.8262,-2.8291,-2.8291,-2.8291,-2.8291,0.0,-2.8291,-2.8291,-2.8291,-2.8291,-2.7114,-2.6545,-2.649,0.0,0.0,-2.4654,-2.4044,-2.3933,-2.4211,-2.3933,-2.3822,-2.3822,-2.3822,-2.3989,-2.4378,-2.5936,-2.5772,-2.4829,-2.6045,-2.5717,-2.4994,-2.7447,-2.7501,-2.6717,-2.7897,-2.8291,-2.8291,-2.8291,-2.8291,0.0,-2.8291,-2.8291,-2.8291,-2.8291,-2.8291,-2.8291,-2.8291,-2.8291,-2.8291,-2.8291,-2.8291,-2.8291,-2.8291,-2.8291,-2.8291,-2.8291,-2.8291,-2.8291,-2.8291,-2.8291,-2.8291,-2.8291,-2.8291,-2.8291,-2.8291,-2.8291,-2.8291,-2.8291,-2.8548,-2.8601,-2.8291,-2.8548,-2.8548,-2.8291,-2.8291,-2.8291,-2.8291,-2.8291,-2.8291,-2.8291,-2.8291,-2.8291,-2.8291,-2.8291,-2.8291,0.0,0.0,0.0,0.0,0.0,0.0,0.0,0.0,0.0,0.0,0.0,-2.8495,0.0,0.0,-2.6668,-2.6668,-2.611,-2.5693,-2.5693,-2.5879,-2.5977,-2.5713,-2.6309,-2.6787,-2.6992,-2.7598,-2.8066,-2.8271,-2.8291,-2.8291,-2.8291,-2.8291,-2.795,-2.7222,-2.7222,-2.6834,-2.6054,-2.5325,-2.4931,-2.4931,-2.3423,-2.3095,-2.3766,-2.2266,-2.1991,-2.2645,-2.1934,-2.1601,-2.1658,-2.2371,-2.2266,-2.1771,-2.3263,-2.3813,-2.3877,-2.4654,-2.4488,-2.4044,-2.5553,-2.5553,-2.5206,-2.6717,-2.7222,-2.734,-2.8067,-2.8291,-2.8121,-2.7394,-2.7726,-2.8121,-2.7384,-2.7726,-2.8291,-2.8291,-2.8291,-2.8291,-2.8291,-2.8291,-2.8291,-2.8291,-2.8291,-2.8291,-2.8291,-2.8291,-2.8291,-2.8291,-2.8291,-2.8291,-2.8291,-2.8291,-2.8291,-2.8291,-2.8291,-2.8291,-2.8291,-2.8291,-2.8291,-2.8291,-2.8291,-2.8291,-2.8291,-2.8291,-2.8291,-2.8291,-2.8291,-2.8291,-2.8291,-2.8291,-2.7897,-2.7222,-2.733,-2.7321,0.0,0.0,0.0,0.0,0.0,0.0,0.0,0.0,-3.0169,-2.8947,-2.7898,-2.722,-2.722,-2.639,-2.5693,-2.5693,-2.5762,-2.5859,-2.5859,-2.624,-2.6377,-2.5976,-2.667,-2.7139,-2.7139,-2.7842,-2.8291,-2.8291,-2.8291,-2.8184,-2.7897,-2.7897,-2.7168,-2.5709,-2.5654,-2.5041,-2.3822,-2.3543,-2.3375,-2.3375,-2.187,-2.1813,-2.2878,-2.0486,-2.004,-2.1088,-1.9924,-1.9424,-1.9475,-2.0702,-2.0479,-1.954,-2.0702,-2.1926,-2.2991,-2.3263,-2.3207,-2.3047,-2.3599,-2.3599,-2.3599,-2.5151,-2.5882,-2.6318,-2.7501,-2.7897,-2.7618,-2.6436,-2.6943,-2.7618,-2.6436,-2.7168,-2.8291,-2.8291,-2.8291,-2.8291,-2.8291,-2.8291,-2.8291,-2.8291,-2.8291,-2.8291,-2.8291,-2.8291,-2.8291,-2.8291,-2.8291,-2.8291,-2.8291,-2.8291,-2.8291,-2.8291,-2.8291,-2.8291,-2.8291,-2.8291,-2.8291,-2.8291,-2.8291,-2.8291,-2.8291,-2.8291,-2.833,-2.8418,-2.8085,-2.8007,-2.8093,-2.7748,-2.7012,-2.583,-2.6046,-2.5993,-3.3124,-3.2152,-3.0944,-2.9863,-2.959,-2.9039,0.0,0.0,-2.7626,-2.638,-2.6014,-2.5917,-2.5917,-2.5781,-2.5693,-2.5693,-2.6064,-2.6318,-2.6318,-2.668,-2.6924,-2.6875,-2.7305,-2.7598,-2.7598,-2.8018,-2.8291,-2.8291,-2.8291,-2.7726,-2.6436,-2.6327,-2.5654,-2.41,-2.4044,-2.3989,-2.3822,-2.2476,-2.1862,-2.1805,-2.0371,-1.97,-1.9873,-1.954,-1.9475,-1.9649,-1.9482,-1.9424,-1.9424,-1.9591,-1.954,-1.9424,-1.9591,-1.9758,-2.004,-2.1365,-2.1038,-2.0263,-2.2878,-2.2927,-2.2089,-2.3599,-2.4986,-2.6155,-2.6318,-2.6327,-2.6318,-2.6155,-2.6209,-2.6327,-2.6155,-2.7168,-2.8291,-2.8291,-2.8291,-2.8291,-2.8291,-2.8291,-2.8291,-2.8291,-2.8291,-2.8291,-2.8291,-2.8291,-2.8291,-2.8291,-2.8291,-2.8291,-2.8291,-2.8291,-2.8291,-2.8291,-2.8291,-2.8291,-2.8291,-2.8291,-2.8291,-2.8291,-2.8291,-2.8291,-2.8291,-2.8291,-2.8467,-2.8838,-2.7447,-2.6879,-2.7223,-2.5769,-2.5019,-2.4837,-2.4887,-2.4771,-3.1335,-3.0553,0.0,0.0,-2.8366,-2.8085,-2.703,-2.722,-2.722,-2.5965,-2.5693,-2.5693,-2.5693,-2.5693,-2.5771,0.0,-2.6269,-2.6475,-2.6719,-2.7129,-2.7062,-2.6181,-2.6492,-2.6651,-2.6408,-2.5928,-2.5663,-2.5663,-2.5663,-2.5434,-2.4765,-2.4765,-2.41,-2.2589,-2.2533,-2.2096,-2.1266,-2.0651,-2.0314,-2.0314,-1.97,-1.9424,-1.9424,-1.9424,-1.9424,-1.9424,-1.9424,-1.9424,-1.9424,-1.9424,-1.9424,-1.9424,-1.9424,-1.9424,-1.9482,-2.009,-1.9924,-1.9597,-2.0823,-2.0823,-2.0529,-2.2032,-2.3543,-2.4765,-2.4765,-2.538,-2.5927,-2.4986,-2.5434,-2.61,-2.61,-2.6545,-2.7222,-2.8121,-2.7618,-2.7222,-2.8121,-2.8291,-2.8291,-2.8291,-2.8291,-2.8291,-2.8291,-2.8291,-2.8291,-2.8291,-2.8291,-2.8291,-2.8291,-2.8291,-2.8389,-2.8633,-2.8662,-2.876,-2.9014,-2.9033,-2.9033,-2.9033,-2.9033,-2.9033,-2.9033,-2.9033,-2.9121,-2.9287,-2.7687,-2.6903,-2.7122,-2.5484,-2.4269,-2.341,-2.3603,-2.3149,-3.0496,0.0,0.0,-2.7908,-2.7363,-2.7078,-2.7078,-2.7078,-2.6802,-2.5878,-2.5693,-2.5723,-2.5849,-2.5869,0.0,-2.6484,-2.666,-2.6846,-2.7148,-2.7236,-2.6833,-2.572,-2.5149,-2.4708,-2.437,-2.3997,-2.3822,-2.3822,-2.3822,-2.3599,-2.3207,-2.3207,-2.254,-2.1031,-2.0973,-2.0479,-1.9424,-1.9424,-1.9424,-1.9424,-1.9424,-1.9424,-1.9424,-1.9424,-1.9424,-1.9424,-1.9424,-1.9424,-1.9424,-1.9424,-1.9424,-1.9424,-1.9424,-1.9424,-1.9424,-1.9424,-1.9424,-1.9424,-1.9424,-1.9424,-1.9591,-2.0644,-2.1983,-2.3207,-2.3207,-2.398,-2.4701,-2.3989,-2.4599,-2.5489,-2.5489,-2.61,-2.6879,-2.7565,-2.7168,-2.6997,-2.8067,-2.8291,-2.8291,-2.8291,-2.8291,-2.8291,-2.8291,-2.8291,-2.833,-2.8447,-2.8467,-2.8467,-2.8467,-2.8574,-2.876,-2.9062,-2.9092,-2.9228,-2.9597,-2.9626,-2.9626,-2.9626,-2.9626,-2.9626,-2.9626,-2.9159,-2.8982,-2.9097,-2.6996,-2.5996,-2.6157,-2.4499,-2.3142,-2.2093,-2.2324,-2.1823,0.0,0.0,-2.9085,-2.7908,-2.6668,-2.5781,-2.5781,-2.5781,-2.5732,-2.5684,-2.5693,-2.582,-2.6289,-2.6367,-2.6504,-2.6934,-2.7353,-2.7679,-2.7699,-2.6779,-2.6136,-2.6082,-2.3526,-2.1749,0.0,-2.2983,-2.3822,-2.3822,-2.3822,-2.3207,-2.1749,-2.1699,-2.0981,-1.9533,-1.9482,-1.9424,-1.9424,-1.9424,-1.9424,-1.9424,-1.9424,-1.9424,-1.9424,-1.9424,-1.9424,-1.9424,-1.9424,-1.9424,-1.9424,-1.9424,-1.9424,-1.9424,-1.9424,-1.9424,-1.9424,-1.9424,-1.9424,-1.9424,-1.9424,-1.9424,-1.9424,-1.9424,-2.0479,-2.1699,-2.1699,-2.1692,-2.2032,-2.3431,-2.3822,-2.3877,-2.3877,-2.6054,-2.7897,-2.649,-2.7222,-2.8237,-2.8291,-2.8291,-2.8291,-2.8291,-2.8291,-2.8291,-2.8291,-2.8291,-2.8428,-2.8838,-2.8896,-2.8896,-2.8896,-2.9268,-2.9597,-2.9607,-2.9551,-2.956,-2.9626,-2.9626,-2.9626,-2.9626,-2.9626,-2.9626,-2.9626,-2.806,-2.7368,-2.7871,-2.4671,-2.3223,-2.373,-2.2006,-2.1202,-2.1145,-2.1152,-2.1159,0.0,0.0,-2.7908,-2.6658,-2.6014,-2.5693,-2.5693,-2.5693,-2.5693,-2.5693,-2.5967,-2.6211,-2.6357,-2.6621,-2.6943,-2.7373,-2.762,-2.7816,-2.8047,-2.6967,-2.5709,-2.471,-2.2814,0.0,0.0,0.0,0.0,-2.0873,-2.0873,-2.0651,-2.0148,-2.0148,-1.9924,-1.9424,-1.9424,-1.9424,-1.9424,-1.9424,-1.9424,-1.9424,-1.9424,-1.9424,-1.9424,-1.9424,-1.9424,-1.9424,-1.9424,-1.9424,-1.9424,-1.9424,-1.9424,-1.9424,-1.9424,-1.9424,-1.9424,-1.9424,-1.9424,-1.9424,-1.9424,-1.9424,-1.9424,-1.9424,-2.0422,-2.1415,-2.0422,-2.0809,-2.1919,-2.3375,-2.3822,-2.4267,-2.6282,-2.6834,-2.6943,-2.7447,-2.7168,-2.7105,-2.8067,-2.8291,-2.8291,-2.8291,-2.8291,-2.8379,-2.8662,-2.8711,-2.8857,-2.9287,-2.9346,-2.9346,-2.9346,-2.9482,-2.9678,-2.9961,-2.999,-3.0107,-3.042,-3.0449,-3.0449,-3.0449,-3.0449,-2.9959,-2.8858,-2.8264,-2.7544,-2.6645,-2.4491,-2.3462,-2.3574,-2.1908,-2.1109,-2.1109,-2.1109,-2.1109,0.0,-2.8179,-2.7315,-2.6014,-2.5693,-2.5693,-2.5693,-2.581,-2.5967,-2.5967,-2.6309,-2.666,-2.6816,-2.706,-2.7393,-2.7822,-2.7891,-2.7988,-2.8252,-2.7051,-2.5544,-2.3989,-2.2476,0.0,0.0,0.0,0.0,-1.9424,-1.9424,-1.9424,-1.9424,-1.9424,-1.9424,-1.9424,-1.9424,-1.9424,-1.9424,-1.9424,-1.9424,-1.9424,-1.9424,-1.9424,-1.9424,-1.9424,-1.9424,-1.9424,-1.9424,-1.9424,-1.9424,-1.9424,-1.9424,-1.9424,-1.9424,-1.9424,-1.9424,-1.9424,-1.9424,-1.9424,-1.9424,-1.9424,-1.9424,-1.9424,-2.0033,-2.0644,-1.9707,-2.0422,-2.1919,-2.3375,-2.422,-2.5058,-2.7006,-2.7222,-2.6997,-2.7394,-2.7168,-2.7159,-2.8121,-2.8291,-2.8291,-2.8291,-2.8418,-2.8603,-2.8877,-2.917,-2.9473,-2.9756,-2.9941,-2.998,-2.9814,-2.9941,-3.0146,-3.042,-3.0449,-3.0566,-3.0869,-3.0889,-3.0889,-3.0889,-3.0333,-2.953,-2.8417,-2.7331,-2.6175,-2.5138,-2.3566,-2.2709,-2.2709,-2.1601,-2.1109,-2.1109,-2.1109,-2.1109,-2.8226,-2.7542,-2.722,-2.6014,-2.5693,-2.5693,-2.5713,-2.6094,-2.6396,-2.6416,-2.6758,-2.7178,0.0,0.0,-2.7885,-2.8232,-2.8291,-2.8291,-2.8291,-2.6943,-2.5434,0.0,0.0,0.0,0.0,0.0,0.0,-1.9424,0.0,-1.9424,-1.9424,-1.9424,-1.9424,-1.9424,-1.9424,-1.9424,-1.9424,-1.9424,-1.9424,-1.9424,-1.9424,-1.9424,-1.9424,-1.9424,-1.9424,-1.9424,-1.9424,-1.9424,-1.9424,-1.9424,-1.9424,-1.9424,-1.9424,-1.9424,-1.9424,-1.9424,-1.9424,-1.9424,-1.9424,-1.9424,-1.9424,-1.9424,-1.9424,-1.9424,-1.9424,-2.0422,-2.1919,-2.3375,-2.4893,-2.6127,-2.6218,-2.7222,-2.795,-2.6545,-2.7276,-2.8291,-2.8291,-2.831,-2.833,-2.833,-2.8682,-2.893,-2.8875,-2.9622,-3.0225,-3.011,-3.0548,-3.0732,-3.0293,-3.0615,-3.0889,-3.0889,-3.0889,-3.0889,-3.0889,-3.083,-3.083,-3.0889,-2.9226,-2.8298,-2.8298,-2.5269,-2.3574,-2.345,-2.1908,-2.1109,-2.1109,-2.1109,-2.1109,-2.1109,-2.1109,-2.1109,-2.7778,-2.6897,-2.611,-2.5781,-2.5693,-2.5771,-2.6143,-2.6309,-2.6484,-2.6797,-2.7197,-2.7539,0.0,0.0,0.0,-2.8271,-2.8291,0.0,-2.8291,-2.6054,0.0,0.0,0.0,-1.9809,-1.9424,-1.9424,0.0,0.0,-1.9424,-1.9424,-1.9424,-1.9424,-1.9424,-1.9424,-1.9424,-1.9424,-1.9424,-1.9424,-1.9424,-1.9424,-1.9424,-1.9424,-1.9424,-1.9424,-1.9424,-1.9424,-1.9424,-1.9424,-1.9424,-1.9424,-1.9424,-1.9424,-1.9424,-1.9424,-1.9424,-1.9424,-1.9424,-1.9424,-1.9424,-1.9424,-1.9424,-1.9424,-1.9424,-1.9424,-1.9424,-2.0422,-2.1919,-2.3375,-2.4939,-2.6336,-2.7447,-2.8014,-2.8237,-2.7843,-2.8014,-2.8291,-2.8291,-2.8535,-2.876,-2.876,-2.9365,-2.9467,-2.8299,-2.9565,-3.0286,-2.905,-3.0013,-3.085,-3.0732,-3.082,-3.0889,-3.0889,-3.0889,-3.0889,-3.0889,-2.9776,-2.9589,-3.083,-2.8179,-2.6591,-2.6591,-2.4655,-2.3021,-2.179,-2.1292,-2.1109,-2.1109,-2.1109,-2.1109,-2.1109,-2.1109,-2.1109,-2.6897,-2.6245,-2.5732,-2.5977,-2.6025,-2.6133,-2.6562,-2.6807,-2.7012,-2.7256,-2.7646,0.0,0.0,0.0,0.0,0.0,0.0,0.0,-2.8291,-2.6273,-2.4544,0.0,-2.1764,0.0,-1.9482,-1.9424,-1.9424,0.0,-1.9424,-1.9424,-1.9424,-1.9424,-1.9424,-1.9424,-1.9424,-1.9424,-1.9424,-1.9424,-1.9424,-1.9424,-1.9424,-1.9424,-1.9424,-1.9424,-1.9424,-1.9424,0.0,-1.9424,-1.9424,-1.9424,-1.9424,-1.9424,-1.9424,-1.9424,-1.9424,-1.9424,-1.9424,-1.9424,-1.9424,-1.9424,-1.9424,-1.9424,-1.9424,-1.9424,-1.9424,-2.0873,-2.2758,-2.3543,-2.538,-2.7276,-2.8067,-2.8291,-2.8291,-2.8291,-2.8291,-2.834,-2.8525,-2.875,-2.9033,-2.9404,-2.9288,-2.8892,-2.8183,-2.9009,-2.9216,-2.7563,-2.8733,-2.9776,-2.9776,-3.045,-3.0889,-3.0889,-3.0889,-3.0889,-3.0889,-2.9344,-2.8783,-2.9717,-2.672,-2.4962,-2.4962,-2.338,-2.2034,-2.1109,-2.1109,-2.1109,-2.1109,-2.1109,-2.1109,-2.1109,-2.1109,-2.1109,-2.6014,-2.5732,-2.5869,-2.6299,-2.6426,-2.6582,-2.7002,-2.7393,-2.7738,-2.7796,0.0,0.0,-2.8291,0.0,-2.8291,-2.8291,0.0,-2.8291,-2.8291,-2.6825,-2.5316,-2.3933,-2.2315,-2.0809,-1.954,-1.9424,-1.9424,-1.9424,-1.9424,-1.9424,-1.9424,-1.9424,-1.9424,-1.9424,-1.9424,-1.9424,-1.9424,-1.9424,-1.9424,-1.9424,-1.9424,-1.9424,-1.9424,-1.9424,-1.9424,-1.9424,0.0,0.0,-1.9424,-1.9424,-1.9424,-1.9424,-1.9424,-1.9424,-1.9424,-1.9424,-1.9424,-1.9424,-1.9424,-1.9424,-1.9424,-1.9424,-1.9424,-1.9424,-1.9649,-2.1601,-2.3822,-2.4044,-2.6109,-2.8291,-2.8291,-2.8291,-2.8291,-2.8291,-2.833,-2.8476,-2.8838,-2.9004,-2.9326,-3.0127,-2.8988,-2.7962,-2.8363,-2.823,-2.7623,-2.6219,-2.7383,-2.8298,-2.811,-2.953,-3.0587,-3.0587,-3.0587,-3.046,-3.0274,-2.8733,-2.7871,-2.8051,-2.5024,-2.3387,-2.3574,-2.1971,-2.1109,-2.1109,-2.1109,-2.1109,-2.1109,-2.1109,-2.1109,-2.1109,-2.1149,-2.1169,-2.5781,-2.5996,-2.6299,-2.6367,-2.665,-2.7021,-2.7451,-2.7669,0.0,0.0,0.0,-2.8291,-2.8291,-2.8291,0.0,-2.8291,0.0,0.0,0.0,0.0,-2.41,0.0,0.0,0.0,0.0,0.0,0.0,0.0,0.0,-1.9424,-1.9424,-1.9424,-1.9424,-1.9424,-1.9424,-1.9424,-1.9424,-1.9424,-1.9424,-1.9424,-1.9424,-1.9424,-1.9424,-1.9424,-1.9424,-1.9424,0.0,0.0,-1.9424,-1.9424,-1.9424,-1.9424,-1.9424,-1.9424,-1.9424,-1.9424,-1.9424,-1.9424,-1.9424,-1.9424,-1.9424,-1.9424,-1.9424,-1.9649,-2.0866,-2.2428,-2.4044,-2.5316,-2.6943,-2.8291,-2.8291,-2.8291,-2.8291,-2.8291,-2.8555,-2.8828,-2.8896,-2.9473,-3.0127,-3.0664,-2.9418,-2.8336,-2.8408,-2.7323,-2.634,-2.6037,-2.7383,-2.7931,-2.6591,-2.7811,-2.8852,-2.8852,-2.8852,-2.8298,-2.6961,-2.5391,-2.5024,-2.634,-2.3373,-2.216,-2.3512,-2.1971,-2.1109,-2.1109,-2.1109,-2.1109,-2.1109,-2.1109,-2.1109,-2.1116,-2.1363,-2.1541,-2.6942,-2.6695,-2.6494,-2.6943,-2.7207,-2.7471,-2.7891,0.0,0.0,0.0,0.0,-2.8291,-2.8291,0.0,0.0,0.0,0.0,0.0,0.0,0.0,0.0,0.0,0.0,0.0,0.0,0.0,0.0,0.0,0.0,0.0,-1.9424,-1.9424,-1.9424,-1.9424,-1.9424,-1.9424,-1.9424,-1.9424,-1.9424,-1.9424,-1.9424,-1.9424,-1.9424,-1.9424,-1.9424,-1.9424,-1.9424,0.0,-1.9424,-1.9424,-1.9424,-1.9424,-1.9424,-1.9424,-1.9424,-1.9424,-1.9424,-1.9424,-1.9424,-1.9924,-2.0537,-2.0537,-2.0537,-2.0702,-2.1365,-2.3199,-2.5151,-2.5873,-2.7168,-2.8291,-2.8291,-2.8291,-2.8291,-2.8291,-2.8789,-2.9316,-2.9531,-3.0098,-3.0625,-3.085,-2.953,-2.8417,-2.8417,-2.7073,-2.5976,-2.5976,-2.6651,-2.7194,-2.7254,-2.7194,-2.7134,-2.7134,-2.7134,-2.6832,-2.6037,-2.454,-2.3938,-2.4717,-2.2459,-2.1481,-2.2285,-2.1538,-2.1109,-2.1109,-2.1263,-2.1336,-2.1343,-2.149,-2.1563,-2.157,-2.171,-2.1842,-2.8118,-2.7469,-2.6826,-2.7552,-2.7787,-2.7891,-2.8223,-2.8291,0.0,0.0,0.0,-2.8291,-2.8291,0.0,0.0,0.0,0.0,0.0,0.0,0.0,0.0,0.0,0.0,0.0,0.0,0.0,0.0,0.0,0.0,0.0,-1.9424,-1.9424,-1.9424,-1.9424,-1.9424,-1.9424,-1.9424,-1.9424,-1.9424,-1.9424,-1.9424,-1.9424,-1.9424,-1.9424,-1.9424,-1.9424,-1.9424,0.0,0.0,-1.9424,-1.9424,-1.9424,-1.9424,-1.9424,-1.9424,-1.9424,-1.9424,-1.9424,-1.9758,-2.0644,-2.1643,-2.1975,-2.2089,-2.2145,-2.2476,-2.4203,-2.6155,-2.649,-2.7394,-2.8291,-2.8291,-2.8291,-2.834,-2.8525,-2.915,-2.9824,-3.0254,-3.0635,-3.0889,-3.0889,-2.953,-2.8477,-2.8852,-2.7323,-2.6106,-2.647,-2.6522,-2.6832,-2.7751,-2.6772,-2.5863,-2.5497,-2.5497,-2.5314,-2.5008,-2.3867,-2.3186,-2.3186,-2.2012,-2.1296,-2.1296,-2.1296,-2.1296,-2.1296,-2.153,-2.1715,-2.1715,-2.1877,-2.1984,-2.1984,-2.2051,-2.2078,-2.8202,-2.7914,-2.762,-2.7699,-2.7949,-2.8242,-2.8281,0.0,0.0,0.0,-2.8291,-2.8291,-2.8291,-2.8291,0.0,0.0,0.0,0.0,0.0,0.0,0.0,0.0,0.0,0.0,0.0,0.0,0.0,0.0,0.0,0.0,-1.9424,-1.9424,-1.9424,-1.9424,-1.9424,-1.9424,-1.9424,-1.9424,-1.9424,-1.9424,-1.9424,-1.9424,-1.9424,-1.9424,-1.9424,-1.9424,0.0,0.0,0.0,-1.9424,-1.9424,-1.9424,-1.9424,-1.9424,-1.9424,-1.9424,-1.9424,-1.9591,-2.0916,-2.1472,-2.1805,-2.3151,-2.3599,-2.3877,-2.5261,-2.5873,-2.6381,-2.7726,-2.8184,-2.8291,-2.8291,-2.8291,-2.8486,-2.9268,-2.9805,-3.0264,-3.0732,-3.0859,-3.0889,-3.0889,-2.953,-2.8852,-3.0401,-2.8059,-2.653,-2.7991,-2.817,-2.7683,-2.6401,-2.6098,-2.5436,-2.3993,-2.3814,-2.3201,-2.1657,-2.1669,-2.1767,-2.1767,-2.1887,-2.1904,-2.1904,-2.1904,-2.1904,-2.1904,-2.1931,-2.1944,-2.1944,-2.1971,-2.1984,-2.1991,-2.2258,-2.2378,-2.9961,-2.9292,-2.8777,-2.818,-2.8164,-2.8291,-2.8291,0.0,0.0,-2.8291,-2.8291,-2.8291,-2.8291,-2.8291,-2.8291,0.0,0.0,0.0,0.0,0.0,0.0,0.0,0.0,0.0,0.0,0.0,0.0,0.0,0.0,0.0,-1.9424,-1.9424,-1.9424,-1.9424,-1.9424,-1.9424,-1.9424,-1.9424,-1.9424,-1.9424,-1.9424,-1.9424,-1.9424,-1.9424,-1.9424,-1.9424,0.0,0.0,0.0,-1.9424,-1.9424,-1.9424,-1.9424,-1.9424,-1.954,-2.0422,-2.0702,-2.0923,-2.2428,-2.3535,-2.4425,-2.4986,-2.5772,-2.6445,-2.6155,-2.6717,-2.7555,-2.8121,-2.8291,-2.8291,-2.8291,-2.8476,-2.8818,-2.9424,-2.9893,-3.0322,-3.0791,-3.0889,-3.0889,-3.0889,-3.0333,-3.0147,-3.0772,-2.8979,-2.7991,-2.9658,-2.9039,-2.8545,-2.892,-2.7332,-2.599,-2.5326,-2.3543,-2.2129,-2.144,-2.1643,-2.181,-2.181,-2.1924,-2.1984,-2.1984,-2.1984,-2.1984,-2.1984,-2.2158,-2.2245,-2.2245,-2.2425,-2.2512,-2.2512,-2.2632,-2.2686,-3.181,-3.1003,-3.0317,-2.963,-2.9207,-2.89,0.0,0.0,-2.8291,-2.8291,-2.8291,-2.8291,-2.8291,-2.8291,-2.8291,0.0,0.0,0.0,0.0,0.0,0.0,0.0,0.0,0.0,0.0,0.0,0.0,0.0,0.0,0.0,0.0,-1.9424,-1.9424,-1.9424,-1.9424,-1.9424,-1.9424,-1.9424,-1.9424,-1.9424,-1.9424,-1.9424,-1.9424,-1.9424,-1.9424,-1.9424,0.0,0.0,0.0,-1.9424,-1.9424,-1.9424,-1.9424,-1.9649,-2.0206,-2.1194,-2.1862,-2.2484,-2.398,-2.5206,-2.6155,-2.6608,-2.7447,-2.8121,-2.7051,-2.7501,-2.8291,-2.8291,-2.8291,-2.832,-2.8447,-2.8789,-2.9219,-2.9648,-3.0088,-3.0488,-3.082,-3.0889,-3.0889,-3.0889,-3.0889,-3.0889,-3.0889,-2.9903,-2.953,-3.0704,-2.9903,-2.9636,-3.0927,-2.8339,-2.643,-2.6607,-2.3771,-2.177,-2.1755,-2.1944,-2.2111,-2.2111,-2.2198,-2.2245,-2.2245,-2.2245,-2.2245,-2.2245,-2.2445,-2.2545,-2.2552,-2.2759,-2.2928,-2.2928,-2.2928,-2.2928,-3.347,-3.29,-3.228,-3.228,-3.1276,-3.0266,0.0,0.0,-2.8291,-2.8291,-2.8291,-2.8291,-2.8291,-2.8291,-2.8291,-2.8291,0.0,0.0,0.0,0.0,0.0,0.0,0.0,0.0,0.0,0.0,0.0,0.0,0.0,0.0,0.0,-1.9424,-1.9424,-1.9424,-1.9424,-1.9424,-1.9424,-1.9424,-1.9424,-1.9424,-1.9424,-1.9424,-1.9424,-1.9424,-1.9424,0.0,0.0,0.0,0.0,-1.9424,-1.9424,-1.9424,-1.9424,-2.0314,-2.1586,-2.1578,-2.2533,-2.3989,-2.5544,-2.61,-2.6327,-2.7789,-2.8291,-2.8291,-2.8291,-2.8291,-2.8291,-2.8291,-2.8291,-2.8389,-2.8809,-2.9238,-2.9668,-3.0088,-3.0547,-3.0889,-3.0889,-3.0889,-3.0889,-3.0889,-3.0889,-3.0889,-3.0889,-3.0889,-3.0889,-3.0889,-3.0889,-3.1035,-3.1455,-2.8507,-2.6599,-2.7041,-2.424,-2.2291,-2.2004,-2.2245,-2.2412,-2.2412,-2.2692,-2.2921,-2.2921,-2.2921,-2.2921,-2.2921,-2.2921,-2.2859,-2.2859,-2.2928,-2.2928,-2.2928,-2.2928,-2.2928,-3.2753,-3.2759,-3.2676,-3.0838,-3.0333,-3.0068,-2.9154,0.0,-2.8291,-2.8291,-2.8291,-2.8291,-2.8291,-2.8291,-2.8291,-2.8291,-2.8291,0.0,0.0,0.0,0.0,0.0,0.0,0.0,0.0,0.0,0.0,0.0,0.0,0.0,0.0,-1.9424,-1.9424,-1.9424,-1.9424,-1.9424,-1.9424,-1.9424,-1.9424,-1.9424,-1.9424,-1.9424,-1.9424,-1.9424,0.0,0.0,0.0,0.0,0.0,-1.9424,-1.9975,-2.0923,-2.0923,-2.1813,-2.3207,-2.4314,-2.4986,-2.5599,-2.706,-2.7618,-2.7672,-2.8121,-2.8291,-2.8291,-2.8291,-2.8291,-2.8291,-2.8291,-2.8291,-2.8389,-2.8809,-2.9248,-2.9678,-3.0098,-3.0547,-3.0889,-3.0889,-3.0889,-3.0889,-3.0889,-3.0889,-3.0889,-3.0889,-3.0889,-3.0889,-3.0889,-3.1133,-3.0932,-2.9879,-2.823,-2.6745,-2.5708,-2.3863,-2.2599,-2.2305,-2.2552,-2.2719,-2.2719,-2.2812,-2.2928,-2.2928,-2.2928,-2.2928,-2.2928,-2.2928,-2.2928,-2.2928,-2.2928,-2.2928,-2.2928,-2.2928,-2.2928,0.0,-3.3453,-3.3623,-3.2145,-3.1229,0.0,0.0,0.0,-2.8291,-2.8291,-2.8291,-2.8291,-2.8291,-2.8291,-2.8291,-2.8291,-2.8291,0.0,0.0,0.0,0.0,0.0,0.0,0.0,0.0,0.0,0.0,0.0,0.0,0.0,0.0,0.0,-2.0816,-2.0256,-1.97,-1.9424,-1.9424,-1.9424,-1.9424,-1.9424,-1.9252,-1.9199,-1.9256,-1.9635,0.0,0.0,0.0,0.0,0.0,-2.0576,-2.1189,-2.2178,-2.2178,-2.3198,-2.4765,-2.5763,-2.6436,-2.7051,-2.8004,-2.8291,-2.8291,-2.8291,-2.8291,-2.8291,-2.8291,-2.8291,-2.8291,-2.8291,-2.8291,-2.8428,-2.9014,-2.9365,-2.9773,-3.0322,-3.0684,-3.0889,-3.0889,-3.0889,-3.0889,-3.0889,-3.0889,-3.0889,-3.0889,-3.0889,-3.0889,-3.0889,-3.125,-3.1194,-3.0232,-2.9171,-2.7927,-2.6319,-2.4802,-2.3515,-2.2666,-2.2752,-2.2928,-2.2928,-2.2928,-2.2928,-2.2928,-2.2928,-2.2928,-2.2928,-2.2928,-2.2928,-2.2928,-2.2928,-2.2928,-2.2928,-2.2928,-2.3263,0.0,0.0,0.0,0.0,0.0,0.0,0.0,0.0,0.0,-2.8291,-2.8291,-2.8291,-2.8291,-2.8291,-2.8291,-2.8291,0.0,0.0,0.0,0.0,0.0,0.0,0.0,0.0,0.0,0.0,0.0,0.0,0.0,0.0,0.0,0.0,-2.3143,-2.1775,-2.0393,-1.9615,-1.9506,-1.9506,-1.9492,-1.9472,-1.9246,-1.9167,-1.921,-2.0215,0.0,0.0,0.0,0.0,0.0,-2.2482,-2.2839,-2.3307,-2.3307,-2.4513,-2.6227,-2.6227,-2.7086,-2.8291,-2.8291,-2.8291,-2.8291,-2.8291,-2.8291,-2.8291,-2.8291,-2.8291,-2.8291,-2.8291,-2.8291,-2.8486,-2.9346,-2.9626,-2.9795,-3.0674,-3.0889,-3.0889,-3.0889,-3.0889,-3.0889,-3.0889,-3.0889,-3.0889,-3.0889,-3.0889,-3.0898,-3.0928,-3.1299,-3.1659,-3.2027,-3.1025,-2.9736,-2.8328,-2.6714,-2.5053,-2.3393,-2.3065,-2.2928,-2.2928,-2.2928,-2.2928,-2.2928,-2.2928,-2.2928,-2.2928,-2.2928,-2.2928,-2.3058,-2.3058,-2.3133,-2.3263,-2.3263,-2.4128,0.0,0.0,0.0,0.0,0.0,0.0,0.0,0.0,0.0,0.0,0.0,-2.8291,-2.8291,-2.8291,-2.8291,0.0,0.0,0.0,0.0,0.0,0.0,0.0,0.0,0.0,0.0,0.0,0.0,0.0,0.0,0.0,0.0,0.0,-2.3476,-2.2821,-2.249,-2.1833,-2.0786,-2.061,-2.0431,-2.0248,-2.12,-2.1643,-2.1643,-2.1934,0.0,0.0,0.0,0.0,-2.2482,-2.2482,-2.3277,-2.4421,-2.4421,-2.5631,-2.7309,-2.7309,-2.7733,-2.8291,-2.8291,-2.8291,-2.8291,-2.8291,-2.8291,-2.8291,-2.8291,-2.8291,-2.8291,-2.8291,-2.8291,-2.8486,-2.9346,-2.9626,-2.9795,-3.0674,-3.0889,-3.0889,-3.0889,-3.0889,-3.0889,-3.0889,-3.0889,-3.0889,-3.0889,-3.0889,-3.0996,-3.1318,-3.1738,-3.1722,-3.0784,-3.0674,-3.0045,-2.8361,-2.7842,-2.7379,-2.698,-2.446,-2.2928,-2.2928,-2.2928,-2.2928,-2.2928,-2.2928,-2.2928,-2.2928,-2.2928,-2.3529,-2.4918,-2.4918,-2.5584,-2.698,-2.698,-2.7172,0.0,0.0,0.0,0.0,0.0,0.0,0.0,0.0,0.0,0.0,0.0,0.0,-2.8291,0.0,0.0,0.0,0.0,0.0,0.0,0.0,0.0,0.0,0.0,0.0,0.0,0.0,0.0,0.0,0.0,0.0,0.0,0.0,-2.5057,-2.3967,-2.3958,-2.3253,-2.1799,-2.1682,-2.1534,-2.141,-2.2054,-2.2298,-2.2343,-2.2849,0.0,0.0,0.0,0.0,-2.3974,-2.3974,-2.4603,-2.5503,-2.5503,-2.6288,-2.7393,-2.7598,-2.7865,-2.8027,-2.8223,-2.8291,-2.8291,-2.8291,-2.8698,-2.9102,-2.8495,-2.8751,-2.9102,-2.8441,-2.8291,-2.8486,-2.9346,-2.9626,-2.9795,-3.0674,-3.0889,-3.0889,-3.0889,-3.0889,-3.0889,-3.0889,-3.0889,-3.0889,-3.0889,-3.0889,-3.1035,-3.1455,-3.1894,-3.1999,-3.1443,-3.1729,-3.1322,-2.9605,-2.9409,-2.9083,-2.8238,-2.6447,-2.5323,-2.5323,-2.4527,-2.406,-2.406,-2.406,-2.446,-2.5323,-2.5323,-2.5786,-2.6706,-2.6706,-2.7246,-2.8172,-2.8172,-2.8632,0.0,0.0,0.0,0.0,0.0,0.0,0.0,0.0,0.0,0.0,0.0,0.0,0.0,0.0,0.0,0.0,0.0,0.0,0.0,0.0,0.0,0.0,0.0,0.0,0.0,0.0,0.0,0.0,0.0,0.0,0.0,0.0,0.0,-2.5112,-2.5042,-2.4383,-2.3005,-2.2853,-2.2739,-2.2681,-2.2642,-2.2654,-2.2689,-2.3595,-2.3998,0.0,0.0,0.0,-2.5693,-2.5693,-2.5908,-2.6289,-2.6289,-2.6543,-2.6963,-2.7334,-2.7611,-2.7777,-2.84,-2.8601,-2.8644,-2.8847,-2.966,-3.0411,-2.926,-2.9713,-3.0369,-2.9207,-2.8601,-2.8486,-2.9346,-2.9626,-2.9795,-3.0674,-3.0889,-3.0889,-3.0889,-3.0889,-3.0889,-3.0889,-3.0889,-3.0889,-3.0889,-3.0947,-3.1133,-3.1553,-3.1992,-3.2412,-3.2832,-3.3203,-3.2819,-3.1368,-3.1176,-3.0587,-2.9091,-2.896,-2.896,-2.896,-2.7039,-2.5912,-2.5912,-2.5912,-2.6647,-2.8172,-2.8172,-2.8303,-2.8624,-2.8624,-2.8755,-2.896,-2.896,-2.98,-3.3124,-3.3124,-3.3136,0.0,0.0,0.0,0.0,0.0,0.0,0.0,0.0,0.0,0.0,0.0,0.0,0.0,0.0,0.0,0.0,0.0,0.0,0.0,0.0,0.0,0.0,0.0,0.0,0.0,0.0,0.0,0.0,0.0,0.0,-2.6174,-2.6164,-2.5841,-2.522,-2.4307,-2.373,-2.3512,-2.4631,-2.5174,-2.5174,-2.5313,-2.5382,0.0,0.0,-2.5693,-2.5693,-2.5693,-2.5732,-2.5791,-2.5791,-2.6103,-2.6494,-2.6562,-2.7041,-2.7924,-2.9454,-3.0016,-3.0162,-3.1327,-3.1825,-3.1927,-3.1735,-3.1825,-3.1927,-3.1724,-3.0068,-2.8486,-2.9346,-2.9626,-2.9795,-3.0674,-3.0889,-3.0889,-3.0889,-3.0889,-3.0889,-3.0889,-3.0889,-3.0889,-3.0889,-3.1182,-3.1562,-3.2002,-3.2432,-3.2851,-3.3271,-3.3379,-3.3292,-3.3019,-3.3019,-3.2892,-3.2629,-3.2629,-3.2629,-3.2629,-2.954,-2.7768,-2.7768,-2.7768,-2.7908,-2.8172,-2.8172,-2.8952,-3.0384,-3.0384,-3.1176,-3.2629,-3.2629,-3.2765,-3.3124,-3.3124,-3.2927,0.0,0.0,0.0,0.0,0.0,0.0,0.0,0.0,0.0,0.0,0.0,0.0,0.0,0.0,0.0,0.0,0.0,0.0,0.0,0.0,0.0,0.0,0.0,0.0,0.0,0.0,0.0,0.0,0.0,0.0,0.0,-2.6035,-2.5937,-2.5693,-2.521,-2.4895,-2.4815,-2.543,-2.5693,-2.5693,-2.5693,-2.5693,-2.5693,0.0,-2.5693,-2.5693,-2.5693,-2.5693,-2.5693,-2.5693,-2.581,-2.6094,-2.6553,-2.761,-2.8921,-2.9964,-3.0773,-3.148,-3.2079,-3.2794,-3.3304,-3.2543,-3.2844,-3.3254,-3.2493,-3.0876,-2.9558,-3.0451,-3.0153,-2.9795,-3.0674,-3.0889,-3.0889,-3.0889,-3.0889,-3.0889,-3.0889,-3.0889,-3.0889,-3.0889,-3.124,-3.167,-3.21,-3.2529,-3.2949,-3.3369,-3.3418,-3.3418,-3.3418,-3.3418,-3.3418,-3.3418,-3.3418,-3.3029,-3.2027,-3.0522,-2.9605,-2.9605,-2.9605,-3.006,-3.0992,-3.0992,-3.1378,-3.2228,-3.2228,-3.2629,-3.3418,-3.3418,-3.3418,-3.3124,-3.3124,-3.2754,0.0,0.0,-2.9207,-2.8386,0.0,0.0,0.0,0.0,0.0,0.0,0.0,0.0,0.0,0.0,0.0,0.0,0.0,0.0,0.0,0.0,0.0,0.0,0.0,0.0,0.0,0.0,0.0,0.0,0.0,0.0,0.0,-2.5693,-2.5693,-2.5693,-2.5693,-2.5693,-2.5693,-2.5693,-2.5693,-2.5693,-2.5693,-2.5693,-2.5693,-2.5693,-2.5693,-2.5693,-2.5693,-2.5693,-2.5732,-2.6014,-2.6342,-2.6673,-2.7562,-2.8783,-3.0106,-3.0979,-3.1938,-3.2844,-3.3143,-3.4007,-3.4678,-3.3589,-3.4007,-3.4617,-3.354,-3.2359,-3.1478,-3.158,-3.084,-3.0224,-3.079,-3.0889,-3.0889,-3.0889,-3.0889,-3.0889,-3.0889,-3.0889,-3.0889,-3.0889,-3.1318,-3.1787,-3.218,-3.2607,-3.3057,-3.3379,-3.3418,-3.3418,-3.3418,-3.3418,-3.3418,-3.3418,-3.3418,-3.2819,-3.1497,-3.1433,-3.1433,-3.1433,-3.1433,-3.2027,-3.3355,-3.3418,-3.3418,-3.3418,-3.3418,-3.3418,-3.3418,-3.3418,-3.3418,-3.3124,-3.3124,-3.2525,-3.0135,-2.9453,0.0,-2.8386,-2.7562,0.0,0.0,0.0,0.0,0.0,0.0,0.0,0.0,0.0,0.0,0.0,0.0,0.0,0.0,0.0,0.0,0.0,0.0,0.0,0.0,0.0,0.0,0.0,0.0,0.0,0.0,0.0,-2.5693,-2.5693,-2.5693,-2.5693,-2.5693,-2.5693,-2.5693,-2.5693,-2.5693,-2.5693,-2.5693,-2.5693,-2.5693,-2.5693,-2.5693,-2.5693,-2.583,-2.6982,-2.8132,-2.9254,-3.023,-3.0715,-3.1125,-3.3324,-3.4178,-3.4422,-3.5715,-3.6156,-3.6263,-3.6156,-3.6156,-3.6203,-3.6108,-3.5503,-3.4365,-3.2191,-3.1529,-3.134,-3.1011,-3.0889,-3.0889,-3.0889,-3.0889,-3.0889,-3.0889,-3.0889,-3.0889,-3.0889,-3.1572,-3.2129,-3.2158,-3.2861,-3.3389,-3.3418,-3.3418,-3.3418,-3.3418,-3.3418,-3.3418,-3.3418,-3.3418,-3.3355,-3.3219,-3.3228,-3.3228,-3.3228,-3.3228,-3.3292,-3.3418,-3.3418,-3.3418,-3.3418,-3.3418,-3.3418,-3.3418,-3.3418,-3.3418,-3.3124,-3.2513,-3.15,-2.9818,0.0,0.0,0.0,0.0,0.0,0.0,0.0,0.0,0.0,0.0,0.0,0.0,0.0,0.0,0.0,0.0,0.0,0.0,0.0,0.0,0.0,0.0,0.0,0.0,0.0,0.0,0.0,0.0,0.0,0.0,0.0,-2.5693,-2.5693,-2.5693,-2.5693,-2.5693,-2.5693,-2.5693,-2.5693,-2.5693,-2.5693,-2.5693,-2.5693,-2.5693,-2.5781,-2.6572,-2.6897,-2.6982,-2.8226,-2.8993,-2.953,-3.0516,-3.1413,-3.2382,-3.3872,-3.4933,-3.5715,-3.6263,-3.6405,-3.6405,-3.6405,-3.6405,-3.6405,-3.6405,-3.6399,-3.6124,-3.4624,-3.3821,-3.3258,-3.2432,-3.2264,-3.2045,-3.1112,-3.0889,-3.0889,-3.0889,-3.0889,-3.0976,-3.124,-3.1777,-3.2256,-3.2519,-3.3047,-3.3418,-3.3418,-3.3418,-3.3418,-3.3418,-3.3418,-3.3418,-3.3418,-3.3418,-3.3418,-3.3418,-3.3418,-3.3418,-3.3418,-3.3418,-3.3418,-3.3418,-3.3418,-3.3418,-3.3418,-3.3418,-3.3418,-3.3418,-3.3418,-3.3418,-3.2612,-3.1865,-3.081,0.0,0.0,0.0,0.0,0.0,0.0,0.0,0.0,0.0,0.0,0.0,0.0,0.0,0.0,0.0,0.0,0.0,0.0,0.0,0.0,0.0,0.0,0.0,0.0,0.0,0.0,0.0,0.0,0.0,0.0,0.0,0.0,-2.5693,-2.5693,-2.5693,-2.5693,-2.5693,-2.5693,-2.5693,-2.5693,-2.5693,-2.5693,-2.5732,-2.611,-2.6294,-2.638,-2.7626,-2.8412,-2.8819,-2.9636,-3.0226,-3.0681,-3.1705,-3.2664,-3.3635,-3.4654,-3.5619,-3.6405,-3.6405,-3.6405,-3.6405,-3.6405,-3.6405,-3.6405,-3.6405,-3.6885,-3.7317,-3.6658,-3.5874,-3.4996,-3.4016,-3.38,-3.3417,-3.193,-3.1604,-3.1441,-3.0995,-3.0889,-3.1025,-3.1445,-3.1875,-3.2314,-3.2734,-3.3154,-3.3418,-3.3418,-3.3418,-3.3418,-3.3418,-3.3418,-3.3418,-3.3418,-3.3418,-3.3418,-3.3418,-3.3418,-3.3418,-3.3418,-3.3418,-3.3418,-3.3418,-3.3418,-3.3418,-3.3418,-3.3418,-3.3418,-3.3418,-3.3418,-3.3418,-3.1545,-3.1178,0.0,0.0,0.0,0.0,0.0,0.0,0.0,0.0,0.0,0.0,0.0,0.0,0.0,0.0,0.0,0.0,0.0,0.0,0.0,0.0,0.0,0.0,0.0,0.0,0.0,0.0,0.0,0.0,0.0,0.0,0.0,0.0,0.0,0.0,-2.5693,-2.5693,-2.5693,-2.5693,-2.5684,-2.5684,-2.5693,-2.5684,-2.5742,-2.5781,-2.7078,-2.7636,-2.7731,-2.8912,-3.0135,-3.1223,-3.1223,-3.2008,-3.3206,-3.4311,-3.468,-3.4876,-3.5981,-3.6405,-3.6405,-3.6405,-3.6405,-3.6405,-3.6405,-3.6405,-3.6405,-3.6417,-3.7161,-3.8002,-3.8015,-3.736,-3.6508,-3.5559,-3.5343,-3.4902,-3.3462,-3.3134,-3.269,-3.1218,-3.0947,-3.1084,-3.1455,-3.1935,-3.2375,-3.2744,-3.3154,-3.3418,-3.3418,-3.3418,-3.3418,-3.3418,-3.3418,-3.3418,-3.3418,-3.3418,-3.3418,-3.3418,-3.3418,-3.3418,-3.3418,-3.3418,-3.3418,-3.3418,-3.3418,-3.3418,-3.3418,-3.3418,-3.3418,-3.3418,-3.3418,-3.3418,-3.1545,0.0,0.0,0.0,0.0,0.0,0.0,0.0,0.0,0.0,0.0,0.0,0.0,0.0,0.0,0.0,0.0,0.0,0.0,0.0,0.0,0.0,0.0,0.0,0.0,0.0,0.0,0.0,0.0,0.0,0.0,0.0,0.0,0.0,0.0,0.0,-2.5693,-2.5693,-2.5693,-2.5684,-2.662,-2.6572,-2.5732,-2.662,-2.704,-2.7078,-2.8308,-2.8866,-2.8958,-3.0169,-3.1412,-3.2525,-3.2525,-3.2754,-3.3206,-3.4311,-3.468,-3.4876,-3.5981,-3.6405,-3.6405,-3.6405,-3.6405,-3.6405,-3.6405,-3.6405,-3.6493,-3.6883,-3.745,-3.8103,-3.8504,-3.8701,-3.8491,-3.7163,-3.6865,-3.6433,-3.4958,-3.4626,-3.4526,-3.409,-3.3979,-3.3898,-3.3599,-3.368,-3.3618,-3.3303,-3.334,-3.3418,-3.3418,-3.3418,-3.3418,-3.3418,-3.3418,-3.3418,-3.3418,-3.3418,-3.3418,-3.3418,-3.3418,-3.3418,-3.3418,-3.3418,-3.3418,-3.3418,-3.3418,-3.3418,-3.3418,-3.3418,-3.3418,-3.3418,-3.3418,-3.4017,-3.081,0.0,0.0,0.0,0.0,0.0,0.0,0.0,0.0,0.0,0.0,0.0,0.0,0.0,0.0,0.0,0.0,0.0,0.0,0.0,0.0,0.0,0.0,0.0,0.0,0.0,0.0,0.0,0.0,0.0,0.0,0.0,0.0,0.0,0.0,0.0,-2.5693,-2.6197,-2.6428,-2.6476,-2.772,-2.7898,-2.721,-2.7945,-2.8319,-2.8366,-2.959,-3.0406,-3.0923,-3.1645,-3.2426,-3.3124,-3.3124,-3.3124,-3.3206,-3.4311,-3.468,-3.4876,-3.5981,-3.6405,-3.6405,-3.6405,-3.6405,-3.6405,-3.6405,-3.6405,-3.6518,-3.7023,-3.7575,-3.814,-3.8718,-3.9283,-3.9465,-3.8582,-3.8348,-3.7967,-3.6487,-3.6162,-3.5999,-3.5398,-3.5456,-3.5558,-3.5356,-3.5531,-3.5563,-3.5354,-3.4736,-3.4133,-3.3481,-3.3418,-3.3418,-3.3418,-3.3418,-3.3418,-3.3418,-3.3418,-3.3418,-3.3418,-3.3418,-3.3418,-3.3418,-3.3418,-3.3418,-3.3418,-3.3418,-3.3418,-3.3418,-3.3418,-3.3723,-3.4373,-3.4373,-3.5211,0.0,0.0,0.0,0.0,0.0,0.0,0.0,0.0,0.0,0.0,0.0,0.0,0.0,0.0,0.0,0.0,0.0,0.0,0.0,0.0,0.0,0.0,0.0,0.0,0.0,0.0,0.0,0.0,0.0,0.0,0.0,0.0,0.0,0.0,0.0,0.0,-2.6062,-2.7173,-2.7767,0.0,-2.9004,-2.9544,-2.9544,-2.9544,-2.9636,-2.9818,-3.0911,-3.2052,-3.3124,-3.3124,-3.3124,-3.3124,-3.3124,-3.3106,-3.3282,-3.4336,-3.4705,-3.4951,-3.5994,-3.6405,-3.6405,-3.6405,-3.6405,-3.6405,-3.6405,-3.6405,-3.6531,-3.7098,-3.7613,-3.8153,-3.8781,-3.932,-3.9697,-3.9697,-3.9697,-3.9349,-3.7967,-3.769,-3.7305,-3.5945,-3.6135,-3.6578,-3.6826,-3.739,-3.7839,-3.7967,-3.671,-3.5211,-3.3597,-3.3418,-3.3418,-3.3418,-3.3418,-3.3418,-3.3418,-3.3418,-3.3418,-3.3418,-3.3418,-3.3418,-3.3418,-3.3418,-3.3418,-3.3418,-3.3418,-3.3418,-3.3418,-3.3418,-3.4258,-3.5806,-3.5806,-3.6771,0.0,0.0,0.0,0.0,0.0,0.0,0.0,0.0,0.0,0.0,0.0,0.0,0.0,0.0,0.0,0.0,0.0,0.0,0.0,0.0,0.0,0.0,0.0,0.0,0.0,0.0,0.0,0.0,0.0,0.0,0.0,0.0,0.0,0.0,0.0,-2.7626,-2.8588,-2.8855,-2.8993,0.0,-3.0226,-3.081,-3.081,-3.081,-3.1368,-3.2339,-3.2568,-3.284,-3.3124,-3.3124,-3.3124,-3.3124,-3.3124,-3.3345,-3.3809,-3.4474,-3.4956,-3.542,-3.6132,-3.6405,-3.6405,-3.6405,-3.6405,-3.6405,-3.6405,-3.6405,-3.6619,-3.755,-3.7914,-3.8241,-3.9245,-3.9597,-3.9697,-3.9697,-3.9697,-3.9633,-3.931,-3.9245,-3.9129,-3.8816,-3.9194,-3.932,-3.8583,-3.8944,-3.8643,-3.6635,-3.604,-3.5211,-3.3597,-3.3418,-3.3418,-3.3418,-3.3418,-3.3418,-3.3418,-3.3418,-3.3418,-3.3418,-3.3418,-3.3418,-3.3418,-3.3418,-3.3418,-3.3418,-3.3418,-3.3418,-3.3418,-3.3418,-3.4258,-3.5806,-3.5806,-3.7363,0.0,0.0,0.0,0.0,0.0,0.0,0.0,0.0,0.0,0.0,0.0,0.0,0.0,0.0,0.0,0.0,0.0,0.0,0.0,0.0,0.0,0.0,0.0,0.0,0.0,0.0,0.0,0.0,0.0,0.0,0.0,0.0,0.0,0.0,-2.8448,-2.8773,-2.9407,-2.9954,-3.0271,-3.0271,-3.15,-3.2096,-3.2096,-3.2096,-3.2469,-3.3124,-3.3124,-3.3124,-3.3124,-3.3124,-3.3124,-3.3149,-3.337,-3.3646,-3.3997,-3.4768,-3.5257,-3.5583,-3.6169,-3.6405,-3.6405,-3.6405,-3.6405,-3.6405,-3.6405,-3.6593,-3.6923,-3.7764,-3.8203,-3.8617,-3.9471,-3.9697,-3.9697,-3.9697,-3.9697,-3.9697,-3.9697,-3.9697,-3.9772,-4.0036,-4.0538,-4.0798,-4.052,-4.0947,-4.0569,-3.8394,-3.8082,-3.7544,-3.5878,-3.5704,-3.5704,-3.5704,-3.5704,-3.5704,-3.5704,-3.5704,-3.5704,-3.5704,-3.4974,-3.4922,-3.5643,-3.4974,-3.4195,-3.3418,-3.4133,-3.456,-3.455,-3.5345,-3.6539,-3.8082,-3.8082,-3.9394,0.0,0.0,0.0,0.0,0.0,0.0,0.0,0.0,0.0,0.0,0.0,0.0,0.0,0.0,0.0,0.0,0.0,0.0,0.0,0.0,0.0,0.0,0.0,0.0,0.0,0.0,0.0,0.0,0.0,0.0,0.0,0.0,-2.8272,-2.9681,-2.9727,-2.9818,-3.0045,-3.1045,-3.1545,-3.1545,-3.2612,-3.3124,-3.3124,-3.3124,-3.3124,-3.3124,-3.3124,-3.3124,-3.3124,-3.3124,-3.3131,-3.3269,-3.3721,-3.401,-3.4299,-3.5157,-3.5558,-3.5708,-3.6207,-3.6405,-3.6405,-3.6405,-3.6405,-3.6405,-3.6405,-3.6795,-3.7299,-3.7852,-3.8417,-3.9045,-3.9546,-3.9697,-3.9697,-3.9697,-3.9697,-3.9697,-3.9697,-3.9697,-3.986,-4.0413,-4.104,-4.1656,-4.2263,-4.2728,-4.2444,-4.0834,-4.0592,-4.0001,-3.8402,-3.8223,-3.8223,-3.8223,-3.8223,-3.8223,-3.8223,-3.8223,-3.8223,-3.8223,-3.6952,-3.6831,-3.8164,-3.6952,-3.5571,-3.4258,-3.5509,-3.6223,-3.6223,-3.7555,-3.9053,-4.0592,-4.0592,-4.1488,0.0,0.0,0.0,0.0,0.0,0.0,0.0,0.0,0.0,0.0,0.0,0.0,0.0,0.0,0.0,0.0,0.0,0.0,0.0,0.0,0.0,0.0,0.0,0.0,0.0,0.0,0.0,0.0,0.0,0.0,0.0,-2.7589,-2.8634,-3.0899,-3.0944,-3.15,-3.2612,-3.2754,-3.284,-3.284,-3.3025,-3.3124,-3.3124,-3.3124,-3.3124,-3.3124,-3.3124,-3.3124,-3.3124,-3.3124,-3.3357,-3.3796,-3.3872,-3.4487,-3.5295,-3.5445,-3.5843,-3.6304,-3.638,-3.6405,-3.6405,-3.6405,-3.6405,-3.6405,-3.6405,-3.6795,-3.7299,-3.7852,-3.8417,-3.9045,-3.9546,-3.9697,-3.9697,-3.9697,-3.9697,-3.9697,-3.9697,-3.9697,-3.986,-4.0413,-4.1342,-4.2275,-4.2828,-4.2924,-4.2444,-4.0834,-4.0592,-4.0001,-3.8402,-3.8223,-3.8223,-3.8223,-3.8223,-3.8223,-3.8223,-3.8223,-3.8223,-3.8223,-3.7974,-3.7985,-3.8164,-3.7985,-3.7805,-3.7566,-3.7794,-3.7854,-3.7854,-3.8104,-3.9053,-4.0592,-4.0592,-4.1488,0.0,0.0,0.0,0.0,0.0,0.0,0.0,0.0,0.0,0.0,0.0,0.0,0.0,0.0,0.0,0.0,0.0,0.0,0.0,0.0,0.0,0.0,0.0,0.0,0.0,0.0,0.0,0.0,0.0,0.0,-2.9498,-2.9636,-3.0406,-3.2196,-3.2283,-3.2513,-3.3068,-3.3124,-3.3124,-3.3124,-3.3124,-3.3124,-3.3124,-3.3124,-3.3124,-3.3124,-3.3124,-3.3124,-3.3124,-3.3124,-3.3407,-3.3935,-3.4236,-3.4806,-3.5533,-3.5893,-3.6157,-3.6405,-3.6405,-3.6405,-3.6405,-3.6405,-3.6405,-3.6468,-3.6782,-3.7211,-3.7764,-3.8329,-3.8894,-3.9383,-3.9634,-3.9697,-3.9697,-3.9697,-3.9697,-3.9697,-3.9697,-3.9697,-3.9948,-4.0814,-4.1869,-4.274,-4.2936,-4.2974,-4.2737,-4.2024,-4.1955,-4.1672,-4.0949,-4.0892,-4.0892,-4.0892,-4.0892,-4.0892,-4.0892,-4.0892,-4.0892,-4.0892,-4.0059,-3.9943,-4.0834,-4.0001,-3.9943,-4.0892,-4.0001,-3.9522,-3.9534,-4.0476,-4.1248,-4.1955,-4.1955,-4.2319,0.0,0.0,0.0,0.0,0.0,0.0,0.0,0.0,0.0,0.0,0.0,0.0,0.0,0.0,0.0,0.0,0.0,0.0,0.0,0.0,0.0,0.0,0.0,0.0,0.0,0.0,0.0,0.0,0.0,0.0,-3.1078,-3.1223,-3.1777,-3.3081,-3.3124,-3.3124,-3.3124,-3.3124,-3.3124,-3.3124,-3.3124,-3.3124,-3.3124,-3.3124,-3.3124,-3.3124,-3.3124,-3.3124,-3.3124,-3.3275,-3.3608,-3.4161,-3.4668,-3.5219,-3.5805,-3.6207,-3.6405,-3.6405,-3.6405,-3.6405,-3.6405,-3.6405,-3.6405,-3.6518,-3.7023,-3.7563,-3.8128,-3.8705,-3.927,-3.9697,-3.9697,-3.9697,-3.9697,-3.9697,-3.9697,-3.9735,-3.9873,-4.0011,-4.04,-4.1354,-4.2321,-4.2974,-4.2974,-4.2974,-4.2974,-4.2974,-4.2974,-4.2974,-4.2974,-4.2974,-4.2974,-4.2974,-4.2974,-4.2974,-4.2974,-4.2974,-4.2974,-4.2974,-4.1842,-4.1728,-4.2974,-4.1842,-4.1785,-4.2974,-4.1842,-4.1191,-4.1191,-4.2432,-4.2974,-4.2974,-4.2974,-4.2974,0.0,0.0,0.0,0.0,0.0,0.0,0.0,0.0,0.0,0.0,0.0,0.0,0.0,0.0,0.0,0.0,0.0,0.0,0.0,0.0,0.0,0.0,0.0,0.0,0.0,0.0,0.0,0.0,0.0,0.0,-3.1078,-3.1223,-3.1777,-3.3081,-3.3124,-3.3124,-3.3124,-3.3124,-3.3124,-3.3124,-3.3124,-3.3124,-3.3124,-3.3124,-3.3124,-3.3124,-3.3124,-3.3124,-3.3162,-3.3646,-3.4173,-3.4726,-3.5245,-3.583,-3.6367,-3.6405,-3.6405,-3.6405,-3.6405,-3.6405,-3.6405,-3.6405,-3.6405,-3.6518,-3.7023,-3.7563,-3.8128,-3.8705,-3.927,-3.9697,-3.9697,-3.9697,-3.9697,-3.9697,-3.9697,-3.9835,-4.0362,-4.0837,-4.143,-4.2049,-4.264,-4.2974,-4.2974,-4.2974,-4.2974,-4.2974,-4.2974,-4.2974,-4.2974,-4.2974,-4.2974,-4.2974,-4.2974,-4.2974,-4.2974,-4.2974,-4.2974,-4.2974,-4.2918,-4.2918,-4.2974,-4.2918,-4.2918,-4.2974,-4.2918,-4.2862,-4.2862,-4.2974,-4.2974,-4.2974,-4.2974,-4.2974,0.0,0.0,0.0,0.0,0.0,0.0,0.0,0.0,0.0,0.0,0.0,0.0,0.0,0.0,0.0,0.0,0.0,0.0,0.0,0.0,0.0,0.0,0.0,0.0,0.0,0.0,0.0,0.0,0.0,0.0,-3.2339,-3.2426,-3.2612,-3.3081,-3.3124,-3.3124,-3.3124,-3.3124,-3.3124,-3.3124,-3.3124,-3.3124,-3.3124,-3.3124,-3.3124,-3.3136,-3.3445,-3.3608,-3.3621,-3.3822,-3.4437,-3.5219,-3.542,-3.5881,-3.6405,-3.6405,-3.6405,-3.6405,-3.6405,-3.6405,-3.6405,-3.6405,-3.6644,-3.6998,-3.755,-3.8115,-3.868,-3.9245,-3.9534,-3.9697,-3.9697,-3.9697,-3.9697,-3.9697,-3.9961,-4.0375,-4.0874,-4.115,-4.1505,-4.2099,-4.2652,-4.2974,-4.2974,-4.2974,-4.2974,-4.2974,-4.2974,-4.2974,-4.2974,-4.2974,-4.2974,-4.2974,-4.2974,-4.2974,-4.2974,-4.2974,-4.2974,-4.2974,-4.2974,-4.2974,-4.2974,-4.2974,-4.2974,-4.2974,-4.2974,-4.2974,-4.2974,-4.2974,-4.2974,-4.2974,-4.2974,-4.2974,0.0,0.0,0.0,0.0,0.0,0.0,0.0,0.0,0.0,0.0,0.0,0.0,0.0,0.0,0.0,0.0,0.0,0.0,0.0,0.0,0.0,0.0,0.0,0.0,0.0,0.0,0.0,0.0,0.0,0.0,-3.3025,-3.3124,-3.3124,-3.3124,-3.3124,-3.3124,-3.3124,-3.3124,-3.3124,-3.3124,-3.3124,-3.3124,-3.3124,-3.3124,-3.3224,-3.337,-3.3746,-3.3897,-3.3922,-3.4299,-3.4843,-3.552,-3.5696,-3.6044,-3.6405,-3.6405,-3.6405,-3.6405,-3.6405,-3.6405,-3.6405,-3.6405,-3.6782,-3.7287,-3.7839,-3.8417,-3.8981,-3.9534,-3.9697,-3.9697,-3.9697,-3.9697,-3.9697,-3.9697,-4.0111,-4.0664,-4.1163,-4.148,-4.1781,-4.2376,-4.2791,-4.2974,-4.2974,-4.2974,-4.2974,-4.2974,-4.2974,-4.2974,-4.2974,-4.2974,-4.2974,-4.2974,-4.2974,-4.2974,-4.2974,-4.2974,-4.2974,-4.2974,-4.2974,-4.2974,-4.2974,-4.2974,-4.2974,-4.2974,-4.2974,-4.2974,-4.2974,-4.2974,-4.2974,-4.2974,-4.2974,-4.2974,0.0,0.0,0.0,0.0,0.0,0.0,0.0,0.0,0.0,0.0,0.0,0.0,0.0,0.0,0.0,0.0,0.0,0.0,0.0,0.0,0.0,0.0,0.0,0.0,0.0,0.0,0.0,0.0,0.0,-3.1821,-3.3025,-3.3124,-3.3124,-3.3124,-3.3124,-3.3124,-3.3124,-3.3124,-3.3124,-3.3124,-3.3124,-3.3124,-3.3124,-3.3136,-3.3395,-3.3897,-3.3935,-3.3947,-3.4035,-3.5056,-3.5508,-3.5571,-3.6157,-3.6405,-3.6405,-3.6405,-3.6405,-3.6405,-3.6405,-3.6405,-3.6405,-3.643,-3.6807,-3.7312,-3.7864,-3.8442,-3.9007,-3.9546,-3.9697,-3.9697,-3.9697,-3.9697,-3.9697,-3.971,-4.0136,-4.0689,-4.1188,-4.1794,-4.2389,-4.2873,-4.2974,-4.2974,-4.2974,-4.2974,-4.2974,-4.2974,-4.2974,-4.2974,-4.2974,-4.2974,-4.2974,-4.2974,-4.2974,-4.2974,-4.2974,-4.2974,-4.2974,-4.2974,-4.2974,-4.2974,-4.2974,-4.2974,-4.2974,-4.2974,-4.2974,-4.2974,-4.2974,-4.2974,-4.2974,-4.2974,-4.2974,-4.2974,-3.454,0.0,0.0,0.0,0.0,0.0,0.0,0.0,0.0,0.0,0.0,0.0,0.0,0.0,0.0,0.0,0.0,0.0,0.0,0.0,0.0,0.0,0.0,0.0,0.0,0.0,0.0,0.0,-3.2052,-3.2742,-3.3068,-3.3124,-3.3124,-3.3124,-3.3124,-3.3124,-3.3124,-3.3124,-3.3124,-3.3124,-3.3124,-3.3124,-3.3093,-3.3483,-3.3759,-3.3935,-3.4705,-3.5044,-3.5069,-3.537,-3.578,-3.6157,-3.6342,-3.6405,-3.6405,-3.6405,-3.6405,-3.6405,-3.6405,-3.6405,-3.6468,-3.6822,-3.7324,-3.7889,-3.8454,-3.9019,-3.9496,-3.9647,-3.9697,-3.9697,-3.9697,-3.9697,-3.9798,-4.0199,-4.0714,-4.1266,-4.1806,-4.2414,-4.2798,-4.2949,-4.2974,-4.2974,-4.2974,-4.2974,-4.2974,-4.2974,-4.2974,-4.2974,-4.2974,-4.2974,-4.2974,-4.2974,-4.2974,-4.2974,-4.2974,-4.2974,-4.2974,-4.2974,-4.2974,-4.2974,-4.2974,-4.2974,-4.2974,-4.2974,-4.2974,-4.2974,-4.2974,-4.2974,-4.2974,-4.2974,-4.2974,-4.2974,0.0,0.0,0.0,0.0,0.0,0.0,0.0,-3.0676,0.0,0.0,0.0,0.0,0.0,0.0,0.0,0.0,0.0,0.0,0.0,0.0,0.0,0.0,0.0,0.0,0.0,0.0,0.0,0.0,-3.2655,-3.3124,-3.3124,-3.3124,-3.3124,-3.3124,-3.3124,-3.3124,-3.3124,-3.3124,-3.3124,-3.3124,-3.3307,-3.342,-3.3432,-3.3985,-3.4374,-3.4625,-3.5219,-3.5621,-3.5893,-3.5893,-3.6069,-3.6405,-3.6405,-3.6405,-3.6405,-3.6405,-3.6405,-3.6405,-3.6405,-3.6405,-3.6505,-3.7059,-3.755,-3.8115,-3.8693,-3.9258,-3.9697,-3.9697,-3.9697,-3.9697,-3.9697,-3.9697,-3.9835,-4.0388,-4.0887,-4.1492,-4.2087,-4.264,-4.2974,-4.2974,-4.2974,-4.2974,-4.2974,-4.2974,-4.2974,-4.2974,-4.2974,-4.2974,-4.2974,-4.2974,-4.2974,-4.2974,-4.2974,-4.2974,-4.2974,-4.2974,-4.2974,-4.2974,-4.2974,-4.2974,-4.2974,-4.2974,-4.2974,-4.2974,-4.2974,-4.2974,-4.2974,-4.2974,-4.2974,-4.2974,-4.2974,-4.2974,0.0,0.0,0.0,0.0,0.0,0.0,-3.184,-3.1488,-3.1089,0.0,0.0,0.0,0.0,0.0,0.0,0.0,0.0,0.0,0.0,0.0,0.0,0.0,0.0,0.0,0.0,0.0,-3.1865,-3.3025,-3.3124,-3.3124,-3.3124,-3.3124,-3.3124,-3.3124,-3.3174,-3.3212,-3.3212,-3.3275,-3.3257,-3.3269,-3.3759,-3.3985,-3.401,-3.4517,-3.5044,-3.5495,-3.5558,-3.5906,-3.6405,-3.6405,-3.6405,-3.6405,-3.6405,-3.6405,-3.6405,-3.6405,-3.6405,-3.6405,-3.6405,-3.6455,-3.6593,-3.7098,-3.7651,-3.8216,-3.8793,-3.9308,-3.9697,-3.9697,-3.9697,-3.9697,-3.9697,-3.9735,-3.9923,-4.0475,-4.0974,-4.158,-4.2187,-4.269,-4.2974,-4.2974,-4.2974,-4.2974,-4.2974,-4.2974,-4.2974,-4.2974,-4.2974,-4.2974,-4.2974,-4.2974,-4.2974,-4.2974,-4.2974,-4.2974,-4.2974,-4.2974,-4.2974,-4.2974,-4.2974,-4.2974,-4.2974,-4.2974,-4.2974,-4.2974,-4.2974,-4.2974,-4.2974,-4.2974,-4.2974,-4.2974,-4.2974,-4.2974,0.0,0.0,0.0,0.0,0.0,0.0,-3.4069,-3.3335,-3.2655,0.0,0.0,0.0,0.0,0.0,0.0,0.0,0.0,0.0,0.0,0.0,0.0,0.0,0.0,0.0,0.0,0.0,-3.284,-3.3068,-3.3124,-3.3124,-3.3124,-3.3124,-3.3124,-3.3124,-3.3508,-3.3734,-3.3734,-3.4173,-3.4399,-3.4399,-3.4512,-3.4562,-3.4575,-3.5094,-3.5395,-3.552,-3.6006,-3.6304,-3.6405,-3.6405,-3.6405,-3.6405,-3.6405,-3.6405,-3.6405,-3.6405,-3.6405,-3.6405,-3.6405,-3.6694,-3.7111,-3.7663,-3.8228,-3.8806,-3.9371,-3.9609,-3.9697,-3.9697,-3.9697,-3.9697,-3.9697,-4.0023,-4.0488,-4.1,-4.1593,-4.22,-4.2753,-4.2898,-4.2974,-4.2974,-4.2974,-4.2974,-4.2974,-4.2974,-4.2974,-4.2974,-4.2974,-4.2974,-4.2974,-4.2974,-4.2974,-4.2974,-4.2974,-4.2974,-4.2974,-4.2974,-4.2974,-4.2974,-4.2974,-4.2974,-4.2974,-4.2974,-4.2974,-4.2974,-4.2974,-4.2974,-4.2974,-4.2974,-4.2974,-4.2974,-4.2974,-4.2974,0.0,0.0,0.0,-3.7137,0.0,0.0,0.0,-3.465,-3.3911,0.0,0.0,0.0,0.0,0.0,0.0,0.0,0.0,0.0,0.0,0.0,0.0,0.0,0.0,0.0,0.0,0.0,-3.3124,-3.3124,-3.3124,-3.3206,-3.347,-3.3483,-3.3608,-3.3884,-3.4161,-3.4311,-3.4311,-3.4587,-3.468,-3.468,-3.4956,-3.5094,-3.5107,-3.5705,-3.5956,-3.5968,-3.6292,-3.6405,-3.6405,-3.6405,-3.6405,-3.6405,-3.6405,-3.6405,-3.6405,-3.6405,-3.6405,-3.6455,-3.6719,-3.7008,-3.7324,-3.8165,-3.863,-3.8981,-3.9534,-3.9697,-3.9697,-3.9697,-3.9697,-3.9697,-3.9697,-4.0111,-4.0664,-4.115,-4.1756,-4.2363,-4.2861,-4.2974,-4.2974,-4.2974,-4.2974,-4.2974,-4.2974,-4.2974,-4.2974,-4.2974,-4.2974,-4.2974,-4.2974,-4.2974,-4.2974,-4.2974,-4.2974,-4.2974,-4.2974,-4.2974,-4.2974,-4.2974,-4.2974,-4.2974,-4.2974,-4.2974,-4.2974,-4.2974,-4.2974,-4.2974,-4.2974,-4.2974,-4.2974,-4.2974,-4.2974,-4.2974,0.0,0.0,0.0,0.0,0.0,-3.6874,0.0,0.0,0.0,-3.522,0.0,0.0,0.0,0.0,0.0,0.0,0.0,0.0,0.0,0.0,0.0,0.0,0.0,0.0,0.0,-3.3395,-3.3395,-3.3395,-3.3395,-3.3583,-3.4035,-3.406,-3.4261,-3.4713,-3.4781,-3.4831,-3.4831,-3.4989,-3.5039,-3.5039,-3.5491,-3.5658,-3.5671,-3.6157,-3.6405,-3.6405,-3.6405,-3.6405,-3.6405,-3.6405,-3.6405,-3.6405,-3.6405,-3.6405,-3.6405,-3.6405,-3.6405,-3.6493,-3.6998,-3.7249,-3.7513,-3.8542,-3.8994,-3.9107,-3.9559,-3.9697,-3.9697,-3.9697,-3.9697,-3.9722,-3.9823,-4.0262,-4.0814,-4.1367,-4.1907,-4.2489,-4.2942,-4.2974,-4.2974,-4.2974,-4.2974,-4.2974,-4.2974,-4.2974,-4.2974,-4.2974,-4.2974,-4.2974,-4.2974,-4.2974,-4.2974,-4.2974,-4.2974,-4.2974,-4.2974,-4.2974,-4.2974,-4.2974,-4.2974,-4.2974,-4.2974,-4.2974,-4.2974,-4.2974,-4.2974,-4.2974,-4.2974,-4.2974,-4.2974,-4.2974,-4.2974,-4.2974,0.0,0.0,0.0,0.0,-4.0193,0.0,0.0,0.0,-3.7648,-3.7043,0.0,0.0,0.0,0.0,0.0,0.0,0.0,0.0,0.0,0.0,0.0,0.0,0.0,0.0,0.0,0.0,-3.4537,-3.4537,-3.4537,-3.4517,-3.4625,-3.4625,-3.4663,-3.468,-3.5157,-3.5408,-3.5408,-3.5931,-3.6216,-3.6229,-3.6279,-3.6317,-3.6317,-3.638,-3.6405,-3.6405,-3.6405,-3.6405,-3.6405,-3.6405,-3.6405,-3.6405,-3.6405,-3.6405,-3.6405,-3.6405,-3.6405,-3.6493,-3.6998,-3.75,-3.8015,-3.8668,-3.9195,-3.9609,-3.9672,-3.9697,-3.9697,-3.9697,-3.9697,-3.981,-4.03,-4.0827,-4.1379,-4.1986,-4.2539,-4.2898,-4.2961,-4.2974,-4.2974,-4.2974,-4.2974,-4.2974,-4.2974,-4.2974,-4.2974,-4.2974,-4.2974,-4.2974,-4.2974,-4.2974,-4.2974,-4.2974,-4.2974,-4.2974,-4.2974,-4.2974,-4.2974,-4.2974,-4.2974,-4.2974,-4.2974,-4.2974,-4.2974,-4.2974,-4.2974,-4.2974,-4.2974,-4.2974,-4.2974,-4.2974,-4.2974,-4.2974,0.0,0.0,0.0,0.0,0.0,0.0,0.0,0.0,-3.9055,0.0,0.0,0.0,0.0,0.0,0.0,0.0,0.0,0.0,0.0,0.0,0.0,0.0,0.0,0.0,0.0,0.0,0.0,0.0,0.0,-3.4818,-3.5144,-3.5157,-3.5295,-3.5667,-3.5893,-3.6019,-3.6019,-3.6292,-3.6405,-3.6405,-3.6405,-3.6405,-3.6405,-3.6405,-3.6405,-3.6405,-3.6405,-3.6405,-3.6405,-3.6405,-3.6405,-3.6405,-3.6405,-3.6405,-3.6405,-3.6405,-3.6619,-3.6923,-3.7475,-3.8027,-3.8605,-3.917,-3.9509,-3.9697,-3.9697,-3.9697,-3.9697,-3.9697,-3.9923,-4.0224,-4.0463,-4.1166,-4.1869,-4.215,-4.2627,-4.2974,-4.2974,-4.2974,-4.2974,-4.2974,-4.2974,-4.2974,-4.2974,-4.2974,-4.2974,-4.2974,-4.2974,-4.2974,-4.2974,-4.2974,-4.2974,-4.2974,-4.2974,-4.2974,-4.2974,-4.2974,-4.2974,-4.2974,-4.2974,-4.2974,-4.2974,-4.2974,-4.2974,-4.2974,-4.2974,-4.2974,-4.2974,-4.2974,-4.2974,-4.2974,-4.2974,-4.2974,-4.1937,0.0,0.0,0.0,0.0,0.0,0.0,0.0,0.0,0.0,0.0,0.0,0.0,0.0,0.0,0.0,0.0,0.0,0.0,0.0,0.0,0.0,0.0,0.0,0.0,0.0,0.0,0.0,-3.5177,-3.5341,-3.5755,-3.5768,-3.5956,-3.6405,-3.6405,-3.6405,-3.6405,-3.6405,-3.6405,-3.6405,-3.6405,-3.6405,-3.6405,-3.6405,-3.6405,-3.6405,-3.6405,-3.6405,-3.6405,-3.6405,-3.6405,-3.6405,-3.6405,-3.6405,-3.6405,-3.6405,-3.6757,-3.7262,-3.7814,-3.8479,-3.9157,-3.9559,-3.9697,-3.9697,-3.9697,-3.9697,-3.9697,-3.9697,-4.0086,-4.0551,-4.0701,-4.1442,-4.225,-4.2401,-4.274,-4.2974,-4.2974,-4.2974,-4.2974,-4.2974,-4.2974,-4.2974,-4.2974,-4.2974,-4.2974,-4.2974,-4.2974,-4.2974,-4.2974,-4.2974,-4.2974,-4.2974,-4.2974,-4.2974,-4.2974,-4.2974,-4.2974,-4.2974,-4.2974,-4.2974,-4.2974,-4.2974,-4.2974,-4.2974,-4.2974,-4.2974,-4.2974,-4.2974,-4.2974,-4.2974,-4.2974,-4.2974,0.0,0.0,0.0,0.0,0.0,0.0,0.0,0.0,-4.3011,0.0,0.0,0.0,0.0,0.0,0.0,0.0,0.0,0.0,0.0,0.0,0.0,0.0,0.0,0.0,0.0,0.0,0.0,-3.6355,-3.6355,-3.6367,-3.638,-3.638,-3.6392,-3.6405,-3.6405,-3.6405,-3.6405,-3.6405,-3.6405,-3.6405,-3.6405,-3.6405,-3.6405,-3.6405,-3.6405,-3.6405,-3.6405,-3.6405,-3.6405,-3.6405,-3.6405,-3.6405,-3.6405,-3.6405,-3.6405,-3.6405,-3.6757,-3.7262,-3.7814,-3.873,-3.9672,-3.9685,-3.9697,-3.9697,-3.9697,-3.9697,-3.9697,-3.9697,-4.0086,-4.0639,-4.1125,-4.1731,-4.2338,-4.2879,-4.2961,-4.2974,-4.2974,-4.2974,-4.2974,-4.2974,-4.2974,-4.2974,-4.2974,-4.2974,-4.2974,-4.2974,-4.2974,-4.2974,-4.2974,-4.2974,-4.2974,-4.2974,-4.2974,-4.2974,-4.2974,-4.2974,-4.2974,-4.2974,-4.2974,-4.2974,-4.2974,-4.2974,-4.2974,-4.2974,-4.2974,-4.2974,-4.2974,-4.2974,-4.2974,-4.2974,-4.2974,-4.2974,0.0,0.0,-3.9757,-4.1684,0.0,0.0,0.0,0.0,0.0,0.0,0.0,0.0,0.0,0.0,0.0,0.0,0.0,0.0,0.0,0.0,0.0,0.0,0.0,0.0,0.0,0.0,0.0,-3.754,-3.6849,-3.6405,0.0,-3.6405,-3.6405,-3.6405,-3.6405,-3.6405,-3.6405,-3.6405,-3.6405,-3.6405,-3.6405,-3.6405,-3.6405,-3.6405,-3.6405,-3.6405,-3.6405,-3.6405,-3.6405,-3.6405,-3.6405,-3.6405,-3.6405,-3.6631,-3.6958,-3.6958,-3.7262,-3.7864,-3.8806,-3.9371,-3.9697,-3.9697,-3.9697,-3.9697,-3.9697,-3.9697,-3.9772,-4.0136,-4.0639,-4.1137,-4.1731,-4.2283,-4.2803,-4.2936,-4.2974,-4.2974,-4.2974,-4.2974,-4.2974,-4.2974,-4.2974,-4.2974,-4.2974,-4.2974,-4.2974,-4.2974,-4.2974,-4.2974,-4.2974,-4.2974,-4.2974,-4.2974,-4.2974,-4.2974,-4.2974,-4.2974,-4.2974,-4.2974,-4.2974,-4.2974,-4.2974,-4.2974,-4.2974,-4.2974,-4.2974,-4.2974,-4.2974,-4.2974,-4.2974,-4.2974,-4.2974,-4.2974,-3.9139,-3.8693,0.0,0.0,-4.0746,0.0,-4.2386,0.0,0.0,0.0,0.0,0.0,0.0,0.0,0.0,0.0,0.0,0.0,0.0,0.0,0.0,0.0,0.0,0.0,0.0,0.0,-3.8559,-3.8107,-3.7415,-3.6849,0.0,0.0,-3.6405,-3.6405,-3.6405,-3.6405,-3.6405,-3.6405,-3.6405,-3.6405,-3.6405,-3.6405,-3.6405,-3.6405,-3.6405,-3.6405,-3.6405,-3.6405,-3.6405,-3.6405,-3.6405,-3.6405,-3.6405,-3.6744,-3.7186,-3.7186,-3.7663,-3.8442,-3.9371,-3.9697,-3.9697,-3.9697,-3.9697,-3.9697,-3.9697,-3.9835,-4.0061,-4.0413,-4.1053,-4.1706,-4.2125,-4.2627,-4.2974,-4.2974,-4.2974,-4.2974,-4.2974,-4.2974,-4.2974,-4.2974,-4.2974,-4.2974,-4.2974,-4.2974,-4.2974,-4.2974,-4.2974,-4.2974,-4.2974,-4.2974,-4.2974,-4.2974,-4.2974,-4.2974,-4.2974,-4.2974,-4.2974,-4.2974,-4.2974,-4.2974,-4.2974,-4.2974,-4.3162,-4.3551,-4.3175,-4.3175,-4.3564,-4.3175,-4.2974,-4.2974,-4.2974,-4.2974]},{"header":{"parameterUnit":"m.s-1","parameterCategory":1,"la1":30.6,"la2":29.2853,"lo1":-89.7004,"lo2":-87.6739,"dx":0.0162,"dy":0.0183,"nx":112,"ny":82,"refTime":"2023-02-03T06:00:00:Z","depth":0,"parameterNumber":3,"parameterNumberName":"V-component_of_WINDS"},"data":[0.0,0.0,0.0,0.0,0.0,0.0,0.0,0.0,0.0,0.0,0.0,0.0,0.0,0.0,0.0,0.0,0.0,0.0,0.0,0.0,0.0,0.0,0.0,0.0,0.0,0.0,0.0,0.0,0.0,0.0,0.0,0.0,0.0,0.0,0.0,0.0,0.0,0.0,0.0,0.0,0.0,0.0,0.0,0.0,0.0,0.0,0.0,0.0,0.0,0.0,0.0,0.0,0.0,0.0,0.0,0.0,0.0,0.0,0.0,0.0,0.0,0.0,0.0,0.0,0.0,0.0,0.0,0.0,0.0,0.0,0.0,0.0,0.0,0.0,0.0,0.0,0.0,0.0,0.0,0.0,0.0,0.0,0.0,0.0,0.0,0.0,0.0,0.0,0.0,0.0,0.0,3.3124,3.3124,3.3124,3.3124,3.3124,3.3124,3.3124,0.0,0.0,0.0,0.0,0.0,0.0,0.0,0.0,0.0,0.0,0.0,0.0,0.0,0.0,0.0,0.0,0.0,0.0,0.0,0.0,0.0,0.0,0.0,0.0,0.0,0.0,0.0,0.0,0.0,0.0,0.0,0.0,0.0,0.0,0.0,0.0,0.0,0.0,0.0,0.0,0.0,0.0,0.0,0.0,0.0,0.0,0.0,0.0,0.0,0.0,0.0,0.0,0.0,0.0,0.0,0.0,0.0,0.0,0.0,0.0,0.0,0.0,0.0,0.0,0.0,0.0,0.0,0.0,0.0,0.0,0.0,0.0,0.0,0.0,0.0,0.0,0.0,0.0,0.0,0.0,0.0,0.0,0.0,0.0,0.0,0.0,0.0,0.0,0.0,0.0,0.0,0.0,0.0,0.0,0.0,0.0,0.0,0.0,0.0,0.0,0.0,0.0,0.0,0.0,3.3124,3.3124,3.3124,3.3124,3.3124,3.3124,3.3124,3.3124,0.0,0.0,0.0,0.0,0.0,0.0,0.0,0.0,0.0,0.0,0.0,0.0,0.0,0.0,0.0,0.0,0.0,0.0,0.0,0.0,0.0,0.0,0.0,0.0,0.0,0.0,0.0,0.0,0.0,0.0,0.0,0.0,0.0,0.0,0.0,0.0,0.0,0.0,0.0,0.0,0.0,0.0,0.0,0.0,0.0,0.0,0.0,0.0,0.0,0.0,0.0,0.0,0.0,0.0,0.0,0.0,0.0,0.0,0.0,0.0,0.0,0.0,0.0,0.0,0.0,0.0,0.0,0.0,0.0,0.0,0.0,0.0,0.0,0.0,0.0,0.0,0.0,0.0,0.0,0.0,0.0,0.0,0.0,0.0,0.0,0.0,0.0,0.0,0.0,0.0,0.0,0.0,0.0,0.0,0.0,0.0,0.0,0.0,0.0,0.0,0.0,0.0,0.0,3.3124,3.3124,3.3124,3.3124,3.3124,3.3124,3.3124,3.3124,3.3124,3.3124,0.0,0.0,0.0,0.0,0.0,0.0,0.0,0.0,0.0,0.0,0.0,0.0,0.0,0.0,0.0,0.0,0.0,0.0,0.0,0.0,0.0,0.0,0.0,0.0,0.0,0.0,0.0,0.0,0.0,0.0,0.0,0.0,0.0,0.0,0.0,0.0,0.0,0.0,0.0,0.0,0.0,0.0,0.0,0.0,0.0,0.0,0.0,0.0,0.0,0.0,0.0,0.0,0.0,0.0,0.0,0.0,0.0,0.0,0.0,0.0,0.0,0.0,0.0,0.0,0.0,0.0,0.0,0.0,0.0,0.0,0.0,0.0,0.0,0.0,0.0,0.0,0.0,0.0,0.0,0.0,0.0,0.0,0.0,0.0,0.0,0.0,0.0,0.0,0.0,0.0,0.0,0.0,0.0,0.0,0.0,0.0,0.0,0.0,0.0,0.0,0.0,0.0,3.3124,3.3124,3.3124,3.3124,3.3124,3.3124,3.3124,3.3124,3.3124,3.3206,0.0,0.0,0.0,0.0,0.0,0.0,0.0,0.0,0.0,0.0,0.0,0.0,0.0,0.0,0.0,0.0,0.0,0.0,0.0,0.0,0.0,0.0,0.0,0.0,0.0,0.0,0.0,0.0,0.0,0.0,0.0,0.0,0.0,0.0,0.0,0.0,0.0,0.0,0.0,0.0,0.0,0.0,0.0,0.0,0.0,0.0,0.0,0.0,0.0,0.0,0.0,0.0,0.0,0.0,0.0,0.0,0.0,0.0,0.0,0.0,0.0,0.0,0.0,0.0,0.0,0.0,0.0,0.0,0.0,0.0,0.0,0.0,0.0,0.0,0.0,0.0,0.0,0.0,0.0,0.0,0.0,0.0,0.0,0.0,0.0,0.0,0.0,0.0,0.0,0.0,0.0,0.0,0.0,0.0,0.0,0.0,0.0,0.0,0.0,0.0,0.0,0.0,3.3124,3.3124,3.3124,3.3124,3.3124,3.3124,3.3124,3.3124,3.3124,3.3558,0.0,0.0,0.0,0.0,0.0,0.0,0.0,0.0,0.0,0.0,0.0,0.0,0.0,0.0,0.0,0.0,0.0,0.0,0.0,0.0,0.0,0.0,0.0,0.0,0.0,0.0,0.0,0.0,0.0,0.0,0.0,0.0,0.0,0.0,0.0,0.0,0.0,0.0,0.0,0.0,0.0,0.0,0.0,0.0,0.0,0.0,0.0,0.0,0.0,0.0,0.0,0.0,0.0,0.0,0.0,0.0,0.0,0.0,0.0,0.0,0.0,0.0,0.0,0.0,0.0,0.0,0.0,0.0,0.0,0.0,0.0,0.0,0.0,0.0,0.0,0.0,0.0,0.0,0.0,0.0,0.0,0.0,0.0,0.0,0.0,0.0,0.0,0.0,0.0,0.0,0.0,0.0,0.0,0.0,0.0,0.0,0.0,0.0,0.0,0.0,0.0,0.0,3.3124,3.3124,0.0,3.3124,3.3124,3.3124,3.3124,3.3219,3.3571,0.0,0.0,0.0,0.0,0.0,0.0,0.0,0.0,0.0,0.0,0.0,0.0,0.0,0.0,0.0,0.0,0.0,0.0,0.0,0.0,0.0,0.0,0.0,0.0,0.0,0.0,0.0,0.0,0.0,0.0,0.0,0.0,0.0,0.0,0.0,0.0,0.0,0.0,0.0,0.0,0.0,0.0,0.0,0.0,0.0,0.0,0.0,0.0,0.0,0.0,0.0,0.0,0.0,0.0,0.0,0.0,0.0,0.0,0.0,0.0,0.0,0.0,0.0,0.0,0.0,0.0,0.0,0.0,0.0,0.0,0.0,0.0,0.0,0.0,0.0,0.0,0.0,0.0,0.0,0.0,0.0,0.0,0.0,0.0,0.0,0.0,0.0,0.0,0.0,0.0,0.0,0.0,0.0,0.0,0.0,0.0,0.0,0.0,0.0,0.0,0.0,0.0,3.3124,3.3124,3.3124,0.0,3.3124,3.3156,3.3319,3.3708,3.3979,3.4123,0.0,0.0,0.0,0.0,0.0,0.0,0.0,0.0,0.0,0.0,0.0,0.0,0.0,0.0,0.0,0.0,0.0,0.0,0.0,0.0,0.0,0.0,0.0,0.0,0.0,0.0,0.0,0.0,0.0,0.0,0.0,0.0,0.0,0.0,0.0,0.0,0.0,0.0,0.0,0.0,0.0,0.0,0.0,0.0,0.0,0.0,0.0,0.0,0.0,0.0,0.0,0.0,0.0,0.0,0.0,0.0,0.0,0.0,0.0,0.0,0.0,0.0,0.0,0.0,0.0,0.0,0.0,0.0,0.0,0.0,0.0,0.0,0.0,0.0,0.0,0.0,0.0,0.0,0.0,0.0,0.0,0.0,0.0,0.0,0.0,0.0,0.0,0.0,0.0,0.0,0.0,0.0,0.0,0.0,0.0,0.0,0.0,0.0,0.0,0.0,0.0,0.0,3.3136,3.3136,3.3136,3.3136,3.3136,3.3363,3.3903,3.4964,3.537,0.0,0.0,0.0,0.0,0.0,0.0,0.0,0.0,0.0,0.0,0.0,0.0,0.0,0.0,0.0,0.0,0.0,0.0,0.0,0.0,0.0,0.0,0.0,0.0,0.0,0.0,0.0,0.0,0.0,0.0,0.0,0.0,0.0,0.0,0.0,0.0,0.0,0.0,0.0,0.0,0.0,0.0,0.0,0.0,0.0,0.0,0.0,0.0,0.0,0.0,0.0,0.0,0.0,0.0,0.0,0.0,0.0,0.0,0.0,0.0,0.0,0.0,0.0,0.0,0.0,0.0,0.0,0.0,0.0,0.0,0.0,0.0,0.0,0.0,0.0,0.0,0.0,0.0,0.0,0.0,0.0,0.0,0.0,0.0,0.0,0.0,0.0,0.0,0.0,0.0,0.0,0.0,0.0,0.0,0.0,0.0,0.0,0.0,0.0,0.0,0.0,0.0,0.0,3.5517,3.6204,3.6373,3.5591,3.6204,3.644,3.5796,3.6797,3.7167,3.6575,0.0,0.0,0.0,0.0,0.0,0.0,0.0,0.0,0.0,0.0,0.0,0.0,0.0,0.0,0.0,0.0,0.0,0.0,0.0,0.0,0.0,0.0,0.0,0.0,0.0,0.0,0.0,0.0,0.0,0.0,0.0,0.0,0.0,0.0,0.0,0.0,0.0,0.0,0.0,0.0,0.0,0.0,0.0,0.0,0.0,0.0,0.0,0.0,0.0,0.0,0.0,0.0,0.0,0.0,0.0,0.0,0.0,0.0,0.0,0.0,0.0,0.0,0.0,0.0,0.0,0.0,0.0,0.0,0.0,0.0,0.0,0.0,0.0,0.0,0.0,0.0,0.0,0.0,0.0,0.0,0.0,0.0,0.0,0.0,0.0,0.0,0.0,0.0,0.0,0.0,0.0,0.0,0.0,0.0,0.0,0.0,0.0,0.0,0.0,0.0,0.0,0.0,3.6509,3.7505,3.7924,3.7265,3.7798,3.802,3.7547,3.8575,3.8964,3.8394,0.0,0.0,0.0,0.0,0.0,0.0,0.0,0.0,0.0,0.0,0.0,0.0,0.0,0.0,0.0,0.0,0.0,0.0,0.0,0.0,0.0,0.0,0.0,0.0,0.0,0.0,0.0,0.0,0.0,0.0,0.0,0.0,0.0,0.0,0.0,0.0,0.0,0.0,0.0,0.0,0.0,0.0,0.0,0.0,0.0,0.0,0.0,0.0,0.0,0.0,0.0,0.0,0.0,0.0,0.0,0.0,0.0,0.0,0.0,0.0,0.0,0.0,0.0,0.0,0.0,0.0,0.0,0.0,0.0,0.0,0.0,0.0,0.0,0.0,0.0,0.0,0.0,0.0,0.0,0.0,0.0,0.0,0.0,0.0,0.0,0.0,0.0,0.0,0.0,0.0,0.0,0.0,0.0,0.0,0.0,0.0,0.0,0.0,0.0,0.0,0.0,0.0,3.697,3.7963,3.8629,3.8519,3.8587,3.8811,3.92,4.0355,4.0735,4.0118,0.0,0.0,0.0,0.0,0.0,0.0,0.0,0.0,0.0,0.0,0.0,0.0,0.0,0.0,0.0,0.0,0.0,0.0,0.0,0.0,0.0,0.0,0.0,0.0,0.0,0.0,0.0,0.0,0.0,0.0,0.0,0.0,0.0,0.0,0.0,0.0,0.0,0.0,0.0,0.0,0.0,0.0,0.0,0.0,0.0,0.0,0.0,0.0,0.0,0.0,0.0,0.0,0.0,0.0,0.0,0.0,0.0,0.0,0.0,0.0,3.8264,0.0,0.0,0.0,0.0,0.0,0.0,0.0,0.0,0.0,0.0,0.0,0.0,0.0,0.0,0.0,0.0,0.0,0.0,0.0,0.0,0.0,0.0,0.0,0.0,0.0,0.0,0.0,0.0,0.0,0.0,0.0,0.0,0.0,0.0,0.0,0.0,0.0,0.0,0.0,0.0,0.0,4.0505,4.15,4.188,4.0977,4.1663,4.1898,4.1122,4.2085,4.232,4.128,0.0,0.0,0.0,0.0,0.0,0.0,0.0,0.0,0.0,0.0,0.0,0.0,0.0,0.0,0.0,0.0,0.0,0.0,0.0,0.0,0.0,0.0,0.0,0.0,0.0,0.0,0.0,0.0,0.0,0.0,0.0,0.0,0.0,0.0,0.0,0.0,0.0,0.0,0.0,0.0,0.0,0.0,0.0,0.0,0.0,0.0,0.0,0.0,0.0,0.0,0.0,0.0,0.0,0.0,0.0,0.0,0.0,0.0,0.0,0.0,0.0,4.0546,0.0,0.0,0.0,0.0,0.0,0.0,0.0,0.0,0.0,0.0,0.0,0.0,0.0,0.0,0.0,0.0,0.0,0.0,0.0,0.0,0.0,0.0,0.0,0.0,0.0,0.0,0.0,0.0,0.0,0.0,0.0,0.0,0.0,0.0,0.0,0.0,0.0,0.0,0.0,0.0,4.1587,4.2589,4.3076,4.2467,4.2941,4.3076,4.2467,4.2941,4.3036,4.2467,4.2412,0.0,0.0,0.0,0.0,0.0,0.0,0.0,0.0,0.0,0.0,0.0,0.0,0.0,0.0,0.0,0.0,0.0,0.0,0.0,0.0,0.0,0.0,0.0,0.0,0.0,0.0,0.0,0.0,0.0,0.0,0.0,0.0,0.0,0.0,0.0,0.0,0.0,0.0,0.0,0.0,0.0,0.0,0.0,0.0,0.0,0.0,0.0,0.0,0.0,0.0,0.0,0.0,0.0,4.4633,4.5266,4.541,4.6127,4.6132,4.5586,4.5224,4.4784,4.4287,0.0,0.0,0.0,0.0,0.0,0.0,0.0,0.0,0.0,0.0,0.0,0.0,0.0,0.0,0.0,0.0,0.0,0.0,0.0,0.0,0.0,0.0,0.0,0.0,0.0,4.7273,4.7622,0.0,0.0,0.0,0.0,0.0,0.0,0.0,0.0,0.0,0.0,0.0,0.0,4.1891,4.2725,4.329,4.329,4.329,4.329,4.329,4.329,4.329,4.329,4.329,4.329,0.0,0.0,0.0,0.0,0.0,0.0,0.0,0.0,0.0,0.0,0.0,0.0,0.0,0.0,0.0,0.0,0.0,0.0,0.0,0.0,0.0,0.0,0.0,0.0,0.0,0.0,0.0,0.0,0.0,0.0,0.0,0.0,3.7942,3.8855,0.0,0.0,0.0,0.0,0.0,0.0,0.0,0.0,0.0,0.0,0.0,0.0,0.0,0.0,4.457,4.4213,4.4599,4.5761,4.5373,4.5507,4.6115,4.7005,4.7357,4.7325,4.8039,0.0,4.501,4.4299,0.0,0.0,0.0,0.0,0.0,0.0,0.0,0.0,0.0,0.0,0.0,0.0,0.0,0.0,0.0,0.0,0.0,0.0,0.0,0.0,0.0,0.0,4.8781,4.8656,4.8719,4.8781,0.0,4.734,4.6173,4.6048,0.0,0.0,0.0,0.0,0.0,0.0,0.0,0.0,4.3076,4.321,4.329,4.329,4.329,4.329,4.329,4.329,4.329,4.329,4.329,4.329,4.329,4.329,0.0,0.0,0.0,0.0,0.0,0.0,0.0,0.0,0.0,0.0,0.0,0.0,0.0,0.0,0.0,0.0,0.0,0.0,0.0,0.0,0.0,0.0,0.0,0.0,0.0,0.0,0.0,0.0,0.0,3.8825,3.9433,3.9409,3.9829,3.992,0.0,0.0,0.0,0.0,0.0,0.0,0.0,0.0,0.0,4.3158,4.42,4.4882,4.5202,4.5809,4.6401,4.6986,4.7227,4.7489,4.7803,4.8193,4.8401,4.8401,4.8829,4.836,4.7258,4.6454,4.6036,4.5851,0.0,0.0,0.0,0.0,4.4701,4.4843,4.5774,4.6287,0.0,0.0,0.0,0.0,0.0,0.0,0.0,0.0,0.0,0.0,0.0,0.0,0.0,4.9001,4.9001,4.9001,4.9001,4.8353,4.7622,0.0,4.6986,4.6539,4.5058,0.0,0.0,0.0,0.0,0.0,4.3369,4.329,4.329,4.329,4.329,4.329,4.329,4.329,4.329,4.329,4.329,4.3551,4.4105,4.4143,4.4381,0.0,0.0,0.0,0.0,0.0,0.0,0.0,0.0,0.0,0.0,0.0,0.0,0.0,0.0,0.0,0.0,0.0,0.0,0.0,0.0,0.0,0.0,0.0,0.0,0.0,0.0,0.0,0.0,4.015,4.0363,3.9517,4.0378,4.069,0.0,0.0,0.0,0.0,0.0,0.0,4.3376,4.4299,4.4818,4.4818,4.5681,4.6155,4.6155,4.7358,4.795,4.7982,4.8656,4.9001,4.9001,4.9001,4.9001,4.9001,4.9001,4.9001,4.894,4.8257,4.7836,4.7523,4.685,4.6419,4.6208,4.6454,4.6574,4.6712,4.7622,4.795,4.795,4.795,0.0,4.777,4.685,0.0,0.0,0.0,0.0,4.795,4.795,4.8482,4.9001,4.9001,4.9001,4.9001,4.9001,4.9001,4.8798,0.0,4.795,4.7456,4.5778,0.0,0.0,0.0,0.0,4.4893,4.4151,4.4036,4.3935,4.3693,4.3669,4.3591,4.3329,4.329,4.329,4.329,4.3551,4.4028,4.4774,4.5005,4.5504,4.6173,0.0,0.0,0.0,0.0,0.0,0.0,0.0,0.0,0.0,0.0,0.0,0.0,0.0,0.0,0.0,0.0,0.0,0.0,0.0,0.0,0.0,0.0,0.0,0.0,0.0,0.0,0.0,0.0,0.0,3.9517,4.0894,0.0,0.0,0.0,0.0,4.2909,4.3055,4.3408,4.4098,4.562,4.6485,4.6485,4.7998,4.881,4.881,4.8875,4.894,4.894,4.897,4.9001,4.9001,4.9001,4.9001,4.9001,4.9001,4.9001,4.9001,4.894,4.8401,4.7589,4.7556,4.6986,4.6314,4.7205,4.7523,4.7655,4.8608,4.894,4.894,4.894,4.894,4.875,4.7803,4.8144,0.0,0.0,4.8225,4.894,4.894,4.897,4.9001,4.9001,4.9001,4.9001,4.9001,4.9001,4.9001,0.0,4.894,4.8625,4.7622,0.0,4.7189,4.6208,4.6103,4.6103,4.6067,4.6032,4.5726,4.4812,4.4737,4.4335,4.3369,4.329,4.329,4.329,4.4182,4.4737,4.4812,4.567,4.6138,4.6208,4.6208,0.0,0.0,0.0,0.0,0.0,0.0,0.0,0.0,0.0,0.0,0.0,0.0,0.0,0.0,0.0,0.0,0.0,0.0,0.0,0.0,0.0,0.0,0.0,0.0,0.0,0.0,0.0,0.0,4.1196,4.2141,0.0,0.0,4.2751,4.3645,4.3906,4.5359,4.6302,4.6568,4.7584,4.8142,4.8142,4.8695,4.9001,4.9001,4.9001,4.9001,4.9001,4.9001,4.9001,4.9001,4.9001,4.9001,4.9001,4.9001,4.9001,4.9001,4.9001,4.8798,4.8513,4.8513,4.8306,4.8047,4.837,4.8513,4.8545,4.8892,4.9001,4.9001,4.9001,4.9001,4.894,4.8608,4.8719,4.894,4.8593,4.875,4.9001,4.9001,4.9001,4.9001,4.9001,4.9001,4.9001,4.9001,4.9001,4.9001,4.9001,4.9001,4.8688,4.777,4.8112,4.7982,4.6419,4.6712,4.6884,4.6279,4.6208,4.6067,4.5726,4.5706,4.5561,4.518,4.518,4.518,4.518,4.5509,4.5977,4.659,4.6918,4.7389,4.7982,4.8015,4.8015,0.0,0.0,0.0,0.0,0.0,0.0,0.0,0.0,0.0,0.0,0.0,0.0,0.0,0.0,0.0,0.0,0.0,0.0,0.0,0.0,0.0,0.0,0.0,0.0,0.0,0.0,4.2986,4.2093,4.3031,4.3495,4.2876,4.405,4.5036,4.5518,4.7026,4.799,4.8244,4.8748,4.9001,4.9001,4.9001,4.9001,4.9001,4.9001,4.9001,4.9001,4.9001,4.9001,4.9001,4.9001,4.9001,4.9001,4.9001,4.9001,4.9001,4.9001,4.9001,4.9001,4.9001,4.9001,4.9001,4.9001,4.9001,4.9001,4.9001,4.9001,4.9001,4.9001,4.9001,4.9001,4.9001,4.9001,4.9001,4.9001,4.9001,4.9001,4.9001,4.9001,4.9001,4.9001,4.9001,4.9001,4.9001,4.9001,4.9001,4.9001,4.9001,4.8798,4.8193,4.8576,4.8576,4.734,4.7655,4.7836,4.7239,4.7122,4.702,4.6712,4.6678,4.6523,4.6208,4.5905,4.5869,4.6173,4.6208,4.6627,4.7556,4.7901,4.837,4.9001,4.9001,4.9001,4.9001,0.0,0.0,0.0,0.0,0.0,0.0,0.0,0.0,0.0,0.0,0.0,0.0,0.0,0.0,0.0,0.0,0.0,0.0,0.0,0.0,0.0,0.0,0.0,4.2157,4.2785,4.3047,4.2189,4.3575,4.4567,4.4448,4.5232,4.6346,4.7787,4.7906,4.8257,4.8968,4.9001,4.9001,4.9001,4.9001,4.9001,4.9001,4.9001,4.9001,4.9001,4.9001,4.9001,4.9001,4.9001,4.9001,4.9001,4.9001,4.9001,4.9001,4.9001,4.9001,4.9001,4.9001,4.9001,4.9001,4.9001,4.9001,4.9001,4.9001,4.9001,4.9001,4.9001,4.9001,4.9001,4.9001,4.9001,4.9001,4.9001,4.9001,4.9001,4.9001,4.9001,4.9001,4.9001,4.9001,4.9001,4.9001,4.9001,4.9001,4.9001,4.9001,4.9001,4.9001,4.9001,4.9001,4.9001,4.9001,0.0,4.9001,4.9001,4.8656,4.7737,4.7655,4.7273,4.6349,4.5468,4.5322,4.6208,4.6279,4.6712,4.7622,4.8513,4.9001,4.9001,4.9001,4.9001,4.9001,0.0,0.0,0.0,0.0,0.0,0.0,0.0,0.0,0.0,0.0,0.0,0.0,0.0,0.0,0.0,0.0,0.0,0.0,0.0,0.0,0.0,0.0,4.3216,4.2986,4.368,4.415,4.3902,4.4327,4.4801,4.5295,4.6043,4.6887,4.7821,4.8409,4.8798,4.8984,4.9001,4.9001,4.9001,4.9001,4.9001,4.9001,4.9001,4.9001,4.9001,4.9001,4.9001,4.9001,4.9001,4.9001,4.9001,4.9001,4.9001,4.9001,4.9001,4.9001,4.9001,4.9001,4.9001,4.9001,4.9001,4.9001,4.9001,4.9001,4.9001,4.9001,4.9001,4.9001,4.9001,4.9001,4.9001,4.9001,4.9001,4.9001,4.9001,4.9001,4.9001,4.9001,4.9001,4.9001,4.9001,4.9001,4.9001,4.9001,4.9001,4.9001,4.9001,4.9001,4.9001,4.9001,4.9001,4.9001,0.0,4.9001,4.9001,4.8892,4.8639,4.8625,4.8513,4.8257,4.7982,4.795,0.0,4.8225,4.837,4.8608,4.8861,4.9001,4.9001,4.9001,4.9001,0.0,0.0,0.0,0.0,0.0,0.0,0.0,0.0,0.0,0.0,0.0,0.0,0.0,0.0,0.0,0.0,0.0,0.0,0.0,0.0,0.0,0.0,4.3259,4.3844,4.3844,4.4281,4.4615,4.4615,4.4886,4.5348,4.6092,4.6836,4.7581,4.8325,4.8765,4.9001,4.9001,4.9001,4.9001,4.9001,4.9001,4.9001,4.9001,4.9001,4.9001,4.9001,4.9286,4.9256,4.9032,4.961,4.971,0.0,4.9739,4.9896,4.9896,4.9896,4.971,0.0,0.0,0.0,0.0,0.0,4.9001,4.9001,4.9001,4.9001,4.9001,4.9001,4.9001,4.9001,4.9001,4.9001,4.9001,4.9001,4.9001,4.9001,4.9001,4.9001,4.9001,4.9001,4.9001,4.9001,4.9001,4.9001,4.9001,4.9001,0.0,0.0,4.9001,4.9001,4.9001,4.9001,4.9001,4.9001,4.9001,4.9001,4.9001,4.9001,4.9001,4.9001,4.9001,4.8639,0.0,0.0,0.0,4.8576,4.897,4.9001,0.0,0.0,0.0,4.9001,0.0,0.0,0.0,0.0,4.9001,4.9001,0.0,0.0,0.0,0.0,0.0,0.0,0.0,0.0,0.0,0.0,0.0,0.0,0.0,0.0,0.0,0.0,4.4035,4.4615,4.4615,4.4615,4.4615,4.4615,4.5246,4.5991,4.6718,4.7479,4.8193,4.8951,4.9001,4.9001,4.9001,0.0,0.0,0.0,0.0,4.9001,4.9001,4.9077,4.9107,4.9138,4.9792,4.9792,4.9286,5.0544,5.0743,5.0157,5.0823,5.1086,5.1086,5.1086,5.0716,5.0061,4.9389,4.9152,4.9243,4.9121,4.9168,0.0,4.9063,0.0,0.0,4.9032,4.9001,4.9001,4.9001,4.9001,4.9001,4.9001,4.9001,4.9001,4.9001,4.9001,4.9001,4.9001,4.9001,4.9001,4.9001,4.9001,4.9001,4.9001,4.9001,4.9001,4.9001,4.9001,4.9001,4.9001,4.9001,4.9001,4.9001,4.9001,4.9001,4.9001,0.0,0.0,4.9001,4.8225,4.8112,4.894,4.8225,4.8112,4.897,4.9001,4.9001,4.9001,4.9001,4.9001,4.9001,4.9001,4.9001,4.9001,4.9001,4.9001,0.0,0.0,0.0,0.0,0.0,0.0,0.0,0.0,0.0,0.0,0.0,0.0,0.0,0.0,0.0,4.3306,4.4035,4.4615,4.4615,4.4615,4.4615,4.4615,4.5246,4.5991,4.6718,4.7479,4.8193,4.8951,4.9001,4.9001,4.9001,4.9001,0.0,4.9001,4.9001,4.9001,4.9001,4.9551,4.9792,4.9821,0.0,0.0,5.0689,5.0981,5.1034,5.0903,5.1034,5.1086,5.1086,5.1086,5.1008,5.0823,5.009,5.0174,5.0626,5.0033,5.0202,5.0544,4.9389,4.9359,4.9722,4.9182,4.9001,4.9001,4.9001,4.9001,0.0,4.9001,4.9001,4.9001,4.9001,4.9001,4.9001,4.9001,4.9001,4.9001,4.9001,4.9001,4.9001,4.9001,4.9001,4.9001,4.9001,4.9001,4.9001,4.9001,4.9001,4.9001,4.9001,4.9001,4.9001,4.9001,4.9001,4.9001,4.9001,4.8829,4.8798,4.9001,4.8829,4.8829,4.9001,4.9001,4.9001,4.9001,4.9001,4.9001,4.9001,4.9001,4.9001,4.9001,4.9001,4.9001,0.0,0.0,0.0,0.0,0.0,0.0,0.0,0.0,0.0,0.0,0.0,4.2645,0.0,0.0,4.3948,4.3948,4.4327,4.4615,4.4615,4.4936,4.4993,4.4649,4.5568,4.6397,4.6752,4.78,4.8612,4.8968,4.9001,4.9001,4.9001,4.9001,4.9152,4.9492,4.9492,4.9681,5.005,5.038,5.0554,5.0554,5.1249,5.1419,5.1112,5.1825,5.1964,5.1618,5.1988,5.2149,5.2125,5.1759,5.1825,5.2078,5.1343,5.1068,5.106,5.0689,5.077,5.0981,5.0286,5.0286,5.0417,4.9722,4.9492,4.9449,4.9107,4.9001,4.9077,4.9419,4.9256,4.9077,4.9402,4.9256,4.9001,4.9001,4.9001,4.9001,4.9001,4.9001,4.9001,4.9001,4.9001,4.9001,4.9001,4.9001,4.9001,4.9001,4.9001,4.9001,4.9001,4.9001,4.9001,4.9001,4.9001,4.9001,4.9001,4.9001,4.9001,4.9001,4.9001,4.9001,4.9001,4.9001,4.9001,4.9001,4.9001,4.9001,4.9001,4.9001,4.9182,4.9492,4.9945,4.9928,0.0,0.0,0.0,0.0,0.0,0.0,0.0,0.0,4.1429,4.2316,4.3061,4.3562,4.3562,4.4138,4.4615,4.4615,4.4733,4.479,4.479,4.5449,4.5686,4.5106,4.6194,4.7005,4.7005,4.8223,4.9001,4.9001,4.9001,4.9063,4.9182,4.9182,4.9521,5.0185,5.0213,5.05,5.1086,5.1215,5.1292,5.1292,5.1994,5.2018,5.1537,5.268,5.2893,5.2358,5.2937,5.3185,5.3146,5.2554,5.2662,5.3143,5.2554,5.197,5.1487,5.1343,5.1368,5.1462,5.1189,5.1189,5.1189,5.0445,5.0118,4.989,4.9359,4.9182,4.9316,4.985,4.9622,4.9316,4.985,4.9521,4.9001,4.9001,4.9001,4.9001,4.9001,4.9001,4.9001,4.9001,4.9001,4.9001,4.9001,4.9001,4.9001,4.9001,4.9001,4.9001,4.9001,4.9001,4.9001,4.9001,4.9001,4.9001,4.9001,4.9001,4.9001,4.9001,4.9001,4.9001,4.9001,4.9001,4.9069,4.9221,4.9389,4.9501,4.9654,4.9803,5.014,5.0693,5.1394,5.129,3.9388,4.006,4.0878,4.1674,4.1869,4.2252,0.0,0.0,4.3259,4.4121,4.4384,4.444,4.444,4.4542,4.4615,4.4615,4.5145,4.5585,4.5585,4.621,4.6633,4.6549,4.7293,4.78,4.78,4.8528,4.9001,4.9001,4.9001,4.9256,4.985,4.9907,5.0213,5.0955,5.0981,5.1008,5.1086,5.1692,5.1976,5.2,5.2725,5.3042,5.2977,5.3143,5.3146,5.3082,5.3164,5.3185,5.3185,5.3103,5.3143,5.3185,5.3103,5.302,5.2893,5.2224,5.2399,5.2787,5.1537,5.1494,5.188,5.1189,5.0527,4.9976,4.989,4.9907,4.989,4.9976,4.9947,4.9907,4.9976,4.9521,4.9001,4.9001,4.9001,4.9001,4.9001,4.9001,4.9001,4.9001,4.9001,4.9001,4.9001,4.9001,4.9001,4.9001,4.9001,4.9001,4.9001,4.9001,4.9001,4.9001,4.9001,4.9001,4.9001,4.9001,4.9001,4.9001,4.9001,4.9001,4.9001,4.9001,4.9306,4.9949,5.0682,5.136,5.2018,5.2688,5.3048,5.3112,5.3218,5.282,4.0653,4.1196,0.0,0.0,4.2754,4.2939,4.368,4.3562,4.3562,4.4412,4.4615,4.4615,4.4615,4.4615,4.475,0.0,4.55,4.5855,4.6278,4.6989,4.759,4.7969,4.8666,4.8958,4.8512,4.9543,5.023,5.023,5.023,5.0324,5.0635,5.0635,5.0955,5.1643,5.1667,5.1898,5.2307,5.2595,5.2747,5.2747,5.3042,5.3185,5.3185,5.3185,5.3185,5.3185,5.3185,5.3185,5.3185,5.3185,5.3185,5.3185,5.3185,5.3185,5.3164,5.2853,5.2937,5.3121,5.2527,5.2527,5.2621,5.1904,5.1215,5.0635,5.0635,5.0352,5.0072,5.0527,5.0324,5.0004,5.0004,4.9792,4.9492,4.9077,4.9316,4.9492,4.9077,4.9001,4.9001,4.9001,4.9001,4.9001,4.9001,4.9001,4.9001,4.9001,4.9001,4.9001,4.9001,4.9001,4.9171,4.9593,4.9644,4.9813,5.0253,5.0287,5.0287,5.0287,5.0287,5.0287,5.0287,5.0287,5.0439,5.0727,5.1529,5.2096,5.2379,5.313,5.3718,5.4161,5.4609,5.4867,4.1213,0.0,0.0,4.3078,4.3472,4.3651,4.3651,4.3651,4.3844,4.4485,4.4615,4.4666,4.4886,4.4919,0.0,4.5872,4.6177,4.6498,4.7022,4.7895,4.8658,4.9145,5.0031,5.038,4.9828,5.0594,5.1086,5.1086,5.1086,5.1189,5.1368,5.1368,5.1685,5.2381,5.2404,5.2662,5.3185,5.3185,5.3185,5.3185,5.3185,5.3185,5.3185,5.3185,5.3185,5.3185,5.3185,5.3185,5.3185,5.3185,5.3185,5.3185,5.3185,5.3185,5.3185,5.3185,5.3185,5.3185,5.3185,5.3185,5.3103,5.2576,5.1946,5.1368,5.1368,5.099,5.0645,5.1008,5.0716,5.0297,5.0297,5.0004,4.9634,4.9346,4.9521,4.9593,4.9107,4.9001,4.9001,4.9001,4.9001,4.9001,4.9001,4.9001,4.9069,4.9272,4.9306,4.9306,4.9306,4.9492,4.9813,5.0338,5.0388,5.0625,5.1134,5.1185,5.1185,5.1185,5.1185,5.1185,5.1185,5.1407,5.1619,5.1824,5.2839,5.3447,5.3629,5.4385,5.5019,5.5553,5.6134,5.6666,0.0,0.0,4.2221,4.3078,4.3948,4.4542,4.4542,4.4542,4.457,4.4598,4.4615,4.4835,4.5534,4.5669,4.5906,4.665,4.7378,4.7821,4.7855,4.9066,4.9941,4.997,5.118,5.2024,0.0,5.1469,5.1086,5.1086,5.1086,5.1368,5.2024,5.2065,5.2422,5.3124,5.3164,5.3185,5.3185,5.3185,5.3185,5.3185,5.3185,5.3185,5.3185,5.3185,5.3185,5.3185,5.3185,5.3185,5.3185,5.3185,5.3185,5.3185,5.3185,5.3185,5.3185,5.3185,5.3185,5.3185,5.3185,5.3185,5.3185,5.3185,5.2662,5.2065,5.2065,5.2047,5.1904,5.1266,5.1086,5.106,5.106,5.005,4.9182,4.9821,4.9492,4.9032,4.9001,4.9001,4.9001,4.9001,4.9001,4.9001,4.9001,4.9001,4.9238,4.9949,5.005,5.005,5.005,5.0693,5.1134,5.1151,5.1183,5.12,5.1185,5.1185,5.1185,5.1185,5.1185,5.1185,5.1185,5.1949,5.2713,5.3398,5.4928,5.6064,5.6763,5.7516,5.7859,5.79,5.7918,5.7937,0.0,0.0,4.3078,4.3931,4.4384,4.4615,4.4615,4.4615,4.4615,4.4615,4.4976,4.5399,4.5652,4.6109,4.6667,4.7411,4.772,4.8058,4.8578,4.9409,5.0185,5.0662,5.1544,0.0,0.0,0.0,0.0,5.2486,5.2486,5.2595,5.2831,5.2831,5.2937,5.3185,5.3185,5.3185,5.3185,5.3185,5.3185,5.3185,5.3185,5.3185,5.3185,5.3185,5.3185,5.3185,5.3185,5.3185,5.3185,5.3185,5.3185,5.3185,5.3185,5.3185,5.3185,5.3185,5.3185,5.3185,5.3185,5.3185,5.3185,5.3185,5.2684,5.2183,5.2684,5.249,5.1952,5.1292,5.1086,5.0876,4.9953,4.9681,4.9622,4.9389,4.9521,4.9534,4.9107,4.9001,4.9001,4.9001,4.9001,4.9154,4.9644,4.9729,4.9982,5.0727,5.0828,5.0828,5.0828,5.1065,5.1403,5.1894,5.1944,5.2147,5.2689,5.2739,5.2739,5.2739,5.2739,5.2952,5.3427,5.3721,5.4204,5.4934,5.5991,5.6642,5.6912,5.7637,5.7997,5.7997,5.7997,5.7997,0.0,4.2878,4.3502,4.4384,4.4615,4.4615,4.4615,4.4818,4.4976,4.4976,4.5568,4.6177,4.6447,4.687,4.7445,4.8189,4.8308,4.8477,4.8934,4.9563,5.0269,5.1008,5.1692,0.0,0.0,0.0,0.0,5.3185,5.3185,5.3185,5.3185,5.3185,5.3185,5.3185,5.3185,5.3185,5.3185,5.3185,5.3185,5.3185,5.3185,5.3185,5.3185,5.3185,5.3185,5.3185,5.3185,5.3185,5.3185,5.3185,5.3185,5.3185,5.3185,5.3185,5.3185,5.3185,5.3185,5.3185,5.3185,5.3185,5.3185,5.3185,5.2875,5.2576,5.306,5.2684,5.1952,5.1292,5.092,5.0535,4.961,4.9492,4.9593,4.9419,4.9521,4.9504,4.9077,4.9001,4.9001,4.9001,4.9221,4.9543,5.0016,5.0524,5.1048,5.1539,5.186,5.1928,5.164,5.186,5.2215,5.2689,5.2739,5.2942,5.3467,5.3501,5.3501,5.3501,5.375,5.4106,5.4589,5.5119,5.5656,5.6132,5.6894,5.7284,5.7284,5.7774,5.7997,5.7997,5.7997,5.7997,4.2847,4.3336,4.3562,4.4384,4.4615,4.4615,4.4649,4.5196,4.572,4.5754,4.6346,4.7073,0.0,0.0,4.8176,4.89,4.9001,4.9001,4.9001,4.9622,5.0324,0.0,0.0,0.0,0.0,0.0,0.0,5.3185,0.0,5.3185,5.3185,5.3185,5.3185,5.3185,5.3185,5.3185,5.3185,5.3185,5.3185,5.3185,5.3185,5.3185,5.3185,5.3185,5.3185,5.3185,5.3185,5.3185,5.3185,5.3185,5.3185,5.3185,5.3185,5.3185,5.3185,5.3185,5.3185,5.3185,5.3185,5.3185,5.3185,5.3185,5.3185,5.3185,5.3185,5.2684,5.1952,5.1292,5.0616,5.0056,4.9965,4.9492,4.9152,4.9792,4.9462,4.9001,4.9001,4.9035,4.9069,4.9069,4.9678,5.0234,5.0265,5.1436,5.235,5.2416,5.3043,5.323,5.2469,5.3027,5.3501,5.3501,5.3501,5.3501,5.3501,5.3534,5.3534,5.3501,5.4249,5.4651,5.4651,5.6095,5.6912,5.6964,5.7637,5.7997,5.7997,5.7997,5.7997,5.7997,5.7997,5.7997,4.3185,4.3785,4.4327,4.4542,4.4615,4.475,4.528,4.5568,4.5872,4.6413,4.7107,4.7699,0.0,0.0,0.0,4.8968,4.9001,0.0,4.9001,5.005,0.0,0.0,0.0,5.298,5.3185,5.3185,0.0,0.0,5.3185,5.3185,5.3185,5.3185,5.3185,5.3185,5.3185,5.3185,5.3185,5.3185,5.3185,5.3185,5.3185,5.3185,5.3185,5.3185,5.3185,5.3185,5.3185,5.3185,5.3185,5.3185,5.3185,5.3185,5.3185,5.3185,5.3185,5.3185,5.3185,5.3185,5.3185,5.3185,5.3185,5.3185,5.3185,5.3185,5.3185,5.2684,5.1952,5.1292,5.0572,4.9925,4.9389,4.9138,4.9032,4.9212,4.9138,4.9001,4.9001,4.9424,4.9813,4.9813,5.0862,5.1951,5.253,5.2927,5.3395,5.3923,5.3729,5.3433,5.323,5.3382,5.3501,5.3501,5.3501,5.3501,5.3501,5.3994,5.4074,5.3534,5.4713,5.5437,5.5437,5.6367,5.7159,5.7703,5.7909,5.7997,5.7997,5.7997,5.7997,5.7997,5.7997,5.7997,4.3785,4.4224,4.4682,4.4993,4.5077,4.5263,4.6007,4.643,4.6786,4.7208,4.7885,0.0,0.0,0.0,0.0,0.0,0.0,0.0,4.9001,4.9936,5.0743,0.0,5.206,0.0,5.3164,5.3185,5.3185,0.0,5.3185,5.3185,5.3185,5.3185,5.3185,5.3185,5.3185,5.3185,5.3185,5.3185,5.3185,5.3185,5.3185,5.3185,5.3185,5.3185,5.3185,5.3185,0.0,5.3185,5.3185,5.3185,5.3185,5.3185,5.3185,5.3185,5.3185,5.3185,5.3185,5.3185,5.3185,5.3185,5.3185,5.3185,5.3185,5.3185,5.3185,5.2486,5.1569,5.1215,5.0352,4.9462,4.9107,4.9001,4.9001,4.9001,4.9001,4.9086,4.9407,4.9796,5.0287,5.093,5.203,5.3075,5.3852,5.3989,5.4232,5.4982,5.4468,5.3994,5.3994,5.3684,5.3501,5.3501,5.3501,5.3501,5.3501,5.4186,5.4419,5.4027,5.5396,5.6232,5.6232,5.6971,5.7589,5.7997,5.7997,5.7997,5.7997,5.7997,5.7997,5.7997,5.7997,5.7997,4.4384,4.4682,4.4919,4.5551,4.5771,4.6041,4.6769,4.7445,4.7922,4.8024,0.0,0.0,4.9001,0.0,4.9001,4.9001,0.0,4.9001,4.9001,4.9664,5.0362,5.1034,5.1783,5.249,5.3143,5.3185,5.3185,5.3185,5.3185,5.3185,5.3185,5.3185,5.3185,5.3185,5.3185,5.3185,5.3185,5.3185,5.3185,5.3185,5.3185,5.3185,5.3185,5.3185,5.3185,5.3185,0.0,0.0,5.3185,5.3185,5.3185,5.3185,5.3185,5.3185,5.3185,5.3185,5.3185,5.3185,5.3185,5.3185,5.3185,5.3185,5.3185,5.3185,5.3082,5.2149,5.1086,5.0981,5.0022,4.9001,4.9001,4.9001,4.9001,4.9001,4.9069,4.9323,4.9949,5.0236,5.0794,5.2181,5.3112,5.3857,5.4485,5.4665,5.4952,5.5592,5.5072,5.4651,5.4726,5.4106,5.3651,5.3651,5.3651,5.3701,5.3783,5.4468,5.4848,5.4757,5.6204,5.6989,5.6912,5.7613,5.7997,5.7997,5.7997,5.7997,5.7997,5.7997,5.7997,5.7997,5.8107,5.8162,4.4542,4.5026,4.5551,4.5669,4.616,4.6802,4.7547,4.7804,0.0,0.0,0.0,4.9001,4.9001,4.9001,0.0,4.9001,0.0,0.0,0.0,0.0,5.0955,0.0,0.0,0.0,0.0,0.0,0.0,0.0,0.0,5.3185,5.3185,5.3185,5.3185,5.3185,5.3185,5.3185,5.3185,5.3185,5.3185,5.3185,5.3185,5.3185,5.3185,5.3185,5.3185,5.3185,0.0,0.0,5.3185,5.3185,5.3185,5.3185,5.3185,5.3185,5.3185,5.3185,5.3185,5.3185,5.3185,5.3185,5.3185,5.3185,5.3185,5.3082,5.2468,5.1734,5.0981,5.0362,4.9622,4.9001,4.9001,4.9001,4.9001,4.9001,4.9458,4.9932,5.005,5.1048,5.2181,5.3112,5.3901,5.4433,5.4572,5.5102,5.5535,5.5678,5.5072,5.4818,5.5437,5.4878,5.4405,5.4405,5.4405,5.4651,5.5279,5.6039,5.6204,5.5535,5.6953,5.754,5.6938,5.7613,5.7997,5.7997,5.7997,5.7997,5.7997,5.7997,5.7997,5.8015,5.8694,5.8982,4.4399,4.5093,4.5889,4.6667,4.7124,4.7581,4.8308,0.0,0.0,0.0,0.0,4.9001,4.9001,0.0,0.0,0.0,0.0,0.0,0.0,0.0,0.0,0.0,0.0,0.0,0.0,0.0,0.0,0.0,0.0,0.0,5.3185,5.3185,5.3185,5.3185,5.3185,5.3185,5.3185,5.3185,5.3185,5.3185,5.3185,5.3185,5.3185,5.3185,5.3185,5.3185,5.3185,0.0,5.3185,5.3185,5.3185,5.3185,5.3185,5.3185,5.3185,5.3185,5.3185,5.3185,5.3185,5.2937,5.264,5.264,5.264,5.2554,5.2224,5.135,5.0445,5.01,4.9521,4.9001,4.9001,4.9001,4.9001,4.9001,4.9864,5.0777,5.115,5.2131,5.3044,5.3433,5.4106,5.4589,5.4589,5.5203,5.5706,5.5706,5.5408,5.5144,5.5114,5.5144,5.5173,5.5173,5.5173,5.532,5.5678,5.6438,5.6739,5.634,5.7382,5.7839,5.7492,5.7797,5.7997,5.7997,5.8419,5.8621,5.8639,5.9043,5.9245,5.9263,5.9648,5.9808,4.4243,4.5267,4.6464,4.7601,4.8007,4.8308,4.8883,4.9001,0.0,0.0,0.0,4.9001,4.9001,0.0,0.0,0.0,0.0,0.0,0.0,0.0,0.0,0.0,0.0,0.0,0.0,0.0,0.0,0.0,0.0,0.0,5.3185,5.3185,5.3185,5.3185,5.3185,5.3185,5.3185,5.3185,5.3185,5.3185,5.3185,5.3185,5.3185,5.3185,5.3185,5.3185,5.3185,0.0,0.0,5.3185,5.3185,5.3185,5.3185,5.3185,5.3185,5.3185,5.3185,5.3185,5.302,5.2576,5.2089,5.1928,5.188,5.1856,5.1692,5.0885,4.9976,4.9821,4.9419,4.9001,4.9001,4.9001,4.9086,4.9407,5.049,5.1657,5.2401,5.3061,5.3501,5.3501,5.4106,5.4558,5.4405,5.5102,5.5667,5.5495,5.5448,5.532,5.4909,5.535,5.578,5.5948,5.5948,5.6031,5.6169,5.6917,5.7387,5.7387,5.8099,5.851,5.851,5.851,5.851,5.851,5.9153,5.9459,5.9459,6.0107,6.0401,6.0401,6.0584,6.0658,4.4375,4.6002,4.772,4.7855,4.8409,4.8917,4.8984,0.0,0.0,0.0,4.9001,4.9001,4.9001,4.9001,0.0,0.0,0.0,0.0,0.0,0.0,0.0,0.0,0.0,0.0,0.0,0.0,0.0,0.0,0.0,0.0,5.3185,5.3185,5.3185,5.3185,5.3185,5.3185,5.3185,5.3185,5.3185,5.3185,5.3185,5.3185,5.3185,5.3185,5.3185,5.3185,0.0,0.0,0.0,5.3185,5.3185,5.3185,5.3185,5.3185,5.3185,5.3185,5.3185,5.3103,5.2427,5.2159,5.2,5.1393,5.1189,5.106,5.039,5.01,4.9879,4.9256,4.9063,4.9001,4.9001,4.9001,4.934,5.0693,5.1623,5.2418,5.323,5.345,5.3501,5.3501,5.4106,5.4405,5.3734,5.4774,5.5466,5.4787,5.4695,5.4922,5.5506,5.5649,5.5976,5.6695,5.6791,5.7065,5.7732,5.854,5.9003,5.9003,5.9729,6.0181,6.0181,6.0181,6.0181,6.0181,6.0254,6.0291,6.0291,6.0364,6.0401,6.0419,6.1153,6.1484,4.4107,4.5648,4.7306,4.8321,4.8781,4.9001,4.9001,0.0,0.0,4.9001,4.9001,4.9001,4.9001,4.9001,4.9001,0.0,0.0,0.0,0.0,0.0,0.0,0.0,0.0,0.0,0.0,0.0,0.0,0.0,0.0,0.0,5.3185,5.3185,5.3185,5.3185,5.3185,5.3185,5.3185,5.3185,5.3185,5.3185,5.3185,5.3185,5.3185,5.3185,5.3185,5.3185,0.0,0.0,0.0,5.3185,5.3185,5.3185,5.3185,5.3185,5.3143,5.2684,5.2554,5.2445,5.1734,5.1197,5.0779,5.0527,5.0174,4.9867,4.9976,4.9722,4.9329,4.9077,4.9001,4.9001,4.9001,4.9323,4.9915,5.0963,5.1775,5.252,5.3331,5.3501,5.3501,5.3501,5.375,5.3832,5.3568,5.4359,5.4787,5.4059,5.4328,5.4544,5.4391,5.5576,5.6539,5.6882,5.7727,5.8409,5.8707,5.9465,5.9924,5.9924,6.0236,6.0401,6.0401,6.0401,6.0401,6.0401,6.0878,6.1117,6.1117,6.1612,6.1851,6.1851,6.2181,6.2328,4.3883,4.5216,4.6684,4.7882,4.837,4.8576,0.0,0.0,4.9001,4.9001,4.9001,4.9001,4.9001,4.9001,4.9001,0.0,0.0,0.0,0.0,0.0,0.0,0.0,0.0,0.0,0.0,0.0,0.0,0.0,0.0,0.0,0.0,5.3185,5.3185,5.3185,5.3185,5.3185,5.3185,5.3185,5.3185,5.3185,5.3185,5.3185,5.3185,5.3185,5.3185,5.3185,0.0,0.0,0.0,5.3185,5.3185,5.3185,5.3185,5.3082,5.2809,5.2294,5.1976,5.171,5.099,5.0417,4.9976,4.978,4.9389,4.9077,4.9563,4.9359,4.9001,4.9001,4.9001,4.9052,4.9272,4.9864,5.0608,5.1352,5.2114,5.2807,5.3382,5.3501,5.3501,5.3501,5.3501,5.3501,5.3501,5.3946,5.4106,5.3584,5.3946,5.416,5.3839,5.5618,5.7003,5.7222,5.8836,5.9813,5.957,6.0291,6.075,6.075,6.0988,6.1117,6.1117,6.1117,6.1117,6.1117,6.1667,6.1942,6.1961,6.253,6.278,6.278,6.278,6.278,4.3816,4.4973,4.6208,4.6208,4.6918,4.7622,0.0,0.0,4.9001,4.9001,4.9001,4.9001,4.9001,4.9001,4.9001,4.9001,0.0,0.0,0.0,0.0,0.0,0.0,0.0,0.0,0.0,0.0,0.0,0.0,0.0,0.0,0.0,5.3185,5.3185,5.3185,5.3185,5.3185,5.3185,5.3185,5.3185,5.3185,5.3185,5.3185,5.3185,5.3185,5.3185,0.0,0.0,0.0,0.0,5.3185,5.3185,5.3185,5.3185,5.2747,5.2112,5.2094,5.1667,5.1008,5.0269,5.0004,4.9907,4.9243,4.9001,4.9001,4.9001,4.9001,4.9001,4.9001,4.9001,4.9171,4.9898,5.0642,5.1386,5.2114,5.2909,5.3501,5.3501,5.3501,5.3501,5.3501,5.3501,5.3501,5.3501,5.3501,5.3501,5.3501,5.3501,5.3754,5.4482,5.5949,5.7204,5.7989,6.0185,6.1245,6.0456,6.1117,6.1575,6.1575,6.2346,6.2762,6.2762,6.2762,6.2762,6.2762,6.2762,6.2805,6.2805,6.278,6.278,6.278,6.278,6.278,4.2396,4.3472,4.4871,4.6153,4.7045,4.777,4.8401,0.0,4.9001,4.9001,4.9001,4.9001,4.9001,4.9001,4.9001,4.9001,4.9001,0.0,0.0,0.0,0.0,0.0,0.0,0.0,0.0,0.0,0.0,0.0,0.0,0.0,0.0,5.3185,5.3185,5.3185,5.3185,5.3185,5.3185,5.3185,5.3185,5.3185,5.3185,5.3185,5.3185,5.3185,0.0,0.0,0.0,0.0,0.0,5.3185,5.2897,5.2445,5.2445,5.2018,5.1368,5.0832,5.0527,5.0241,4.958,4.9316,4.9286,4.9077,4.9001,4.9001,4.9001,4.9001,4.9001,4.9001,4.9001,4.9171,4.9898,5.0659,5.1403,5.2131,5.2909,5.3501,5.3501,5.3501,5.3501,5.3501,5.3501,5.3501,5.3501,5.3501,5.3501,5.3501,5.3923,5.4533,5.5317,5.7246,5.8857,5.9657,6.1363,6.2089,6.1282,6.1961,6.242,6.242,6.2677,6.278,6.278,6.278,6.278,6.278,6.278,6.278,6.278,6.278,6.278,6.278,6.278,6.278,0.0,4.2245,4.3229,4.4652,4.5866,0.0,0.0,0.0,4.9001,4.9001,4.9001,4.9001,4.9001,4.9001,4.9001,4.9001,4.9001,0.0,0.0,0.0,0.0,0.0,0.0,0.0,0.0,0.0,0.0,0.0,0.0,0.0,0.0,0.0,5.2509,5.2769,5.3042,5.3185,5.3185,5.3185,5.3185,5.3185,5.2894,5.2747,5.2726,5.2169,0.0,0.0,0.0,0.0,0.0,5.1574,5.1473,5.1311,5.1311,5.1051,5.0635,5.0157,4.985,4.9563,4.9121,4.9001,4.9001,4.9001,4.9001,4.9001,4.9001,4.9001,4.9001,4.9001,4.9001,4.9238,5.0253,5.0862,5.1438,5.252,5.3145,5.3501,5.3501,5.3501,5.3501,5.3501,5.3501,5.3501,5.3501,5.3501,5.3501,5.3501,5.4126,5.4856,5.5681,5.7561,5.9213,6.035,6.158,6.227,6.2065,6.2511,6.278,6.278,6.278,6.278,6.278,6.278,6.278,6.278,6.278,6.278,6.278,6.278,6.278,6.278,6.278,6.2636,0.0,0.0,0.0,0.0,0.0,0.0,0.0,0.0,0.0,4.9001,4.9001,4.9001,4.9001,4.9001,4.9001,4.9001,0.0,0.0,0.0,0.0,0.0,0.0,0.0,0.0,0.0,0.0,0.0,0.0,0.0,0.0,0.0,0.0,5.1376,5.1928,5.2611,5.299,5.3051,5.3051,5.3014,5.2959,5.2168,5.1781,5.1724,5.0351,0.0,0.0,0.0,0.0,0.0,4.8908,4.926,4.9839,4.9839,4.9845,4.985,4.985,4.9499,4.9001,4.9001,4.9001,4.9001,4.9001,4.9001,4.9001,4.9001,4.9001,4.9001,4.9001,4.9001,4.934,5.0828,5.1185,5.1606,5.3129,5.3501,5.3501,5.3501,5.3501,5.3501,5.3501,5.3501,5.3501,5.3501,5.3501,5.3518,5.3568,5.4211,5.4973,5.5753,5.714,5.8676,6.0234,6.1073,6.1815,6.2567,6.273,6.278,6.278,6.278,6.278,6.278,6.278,6.278,6.278,6.278,6.278,6.2712,6.2712,6.2705,6.2636,6.2636,6.2245,0.0,0.0,0.0,0.0,0.0,0.0,0.0,0.0,0.0,0.0,0.0,4.9001,4.9001,4.9001,4.9001,0.0,0.0,0.0,0.0,0.0,0.0,0.0,0.0,0.0,0.0,0.0,0.0,0.0,0.0,0.0,0.0,0.0,5.0923,5.0514,5.0662,5.097,5.1448,5.1497,5.1211,5.0591,4.9944,4.9627,4.9627,4.9264,0.0,0.0,0.0,0.0,4.8908,4.8908,4.8665,4.832,4.832,4.8331,4.8392,4.8392,4.8646,4.9001,4.9001,4.9001,4.9001,4.9001,4.9001,4.9001,4.9001,4.9001,4.9001,4.9001,4.9001,4.934,5.0828,5.1185,5.1606,5.3129,5.3501,5.3501,5.3501,5.3501,5.3501,5.3501,5.3501,5.3501,5.3501,5.3501,5.3687,5.4245,5.4972,5.5926,5.7292,5.8302,5.9286,6.0304,6.0567,6.0778,6.0956,6.2094,6.278,6.278,6.278,6.278,6.278,6.278,6.278,6.278,6.278,6.2515,6.187,6.187,6.1576,6.0956,6.0956,6.0849,0.0,0.0,0.0,0.0,0.0,0.0,0.0,0.0,0.0,0.0,0.0,0.0,4.9001,0.0,0.0,0.0,0.0,0.0,0.0,0.0,0.0,0.0,0.0,0.0,0.0,0.0,0.0,0.0,0.0,0.0,0.0,0.0,4.9443,4.9004,4.8986,4.9303,4.9985,5.0014,4.9823,4.9387,4.8674,4.8369,4.8327,4.7636,0.0,0.0,0.0,0.0,4.6926,4.6926,4.6886,4.6848,4.6848,4.7062,4.7445,4.78,4.8142,4.8545,4.8883,4.9001,4.9001,4.9001,4.8719,4.8433,4.8861,4.8688,4.8433,4.8892,4.9001,4.934,5.0828,5.1185,5.1606,5.3129,5.3501,5.3501,5.3501,5.3501,5.3501,5.3501,5.3501,5.3501,5.3501,5.3501,5.3754,5.4482,5.5243,5.6129,5.7312,5.8135,5.8909,5.9704,5.98,5.996,6.0384,6.1189,6.1705,6.1705,6.2068,6.2271,6.2271,6.2271,6.2094,6.1705,6.1705,6.1492,6.1055,6.1055,6.0838,6.0414,6.0414,6.0198,0.0,0.0,0.0,0.0,0.0,0.0,0.0,0.0,0.0,0.0,0.0,0.0,0.0,0.0,0.0,0.0,0.0,0.0,0.0,0.0,0.0,0.0,0.0,0.0,0.0,0.0,0.0,0.0,0.0,0.0,0.0,0.0,0.0,4.7479,4.7472,4.7726,4.8232,4.8455,4.8487,4.8364,4.7604,4.7231,4.7171,4.5935,4.5372,0.0,0.0,0.0,4.4615,4.4615,4.4987,4.5534,4.5534,4.5974,4.6701,4.7344,4.7703,4.799,4.8577,4.8798,4.875,4.8608,4.8047,4.7506,4.8338,4.8015,4.7556,4.837,4.8798,4.934,5.0828,5.1185,5.1606,5.3129,5.3501,5.3501,5.3501,5.3501,5.3501,5.3501,5.3501,5.3501,5.3501,5.3602,5.3923,5.4651,5.5412,5.6139,5.6867,5.7509,5.8156,5.884,5.8943,5.9229,5.9977,6.0041,6.0041,6.0041,6.0909,6.1418,6.1418,6.1418,6.1102,6.0414,6.0414,6.0353,6.018,6.018,6.0117,6.0041,6.0041,5.9606,3.9388,3.9388,3.9403,0.0,0.0,0.0,0.0,0.0,0.0,0.0,0.0,0.0,0.0,0.0,0.0,0.0,0.0,0.0,0.0,0.0,0.0,0.0,0.0,0.0,0.0,0.0,0.0,0.0,0.0,0.0,0.0,0.0,0.0,4.6028,4.6011,4.579,4.5265,4.6446,4.6699,4.6021,4.5365,4.5067,4.5067,4.4854,4.4748,0.0,0.0,4.4615,4.4615,4.4615,4.4682,4.4784,4.4784,4.5213,4.5889,4.6007,4.6836,4.7882,4.783,4.7803,4.7688,4.6884,4.6523,4.6454,4.6609,4.6523,4.6454,4.6592,4.777,4.934,5.0828,5.1185,5.1606,5.3129,5.3501,5.3501,5.3501,5.3501,5.3501,5.3501,5.3501,5.3501,5.3501,5.4008,5.4668,5.5429,5.6173,5.69,5.7628,5.7814,5.7954,5.8065,5.8065,5.8137,5.8263,5.8263,5.8263,5.8263,5.9736,6.058,6.058,6.058,6.0537,6.0414,6.0414,6.0023,5.9311,5.9311,5.8943,5.8263,5.8263,5.8209,3.9388,3.9388,3.9502,0.0,0.0,0.0,0.0,0.0,0.0,0.0,0.0,0.0,0.0,0.0,0.0,0.0,0.0,0.0,0.0,0.0,0.0,0.0,0.0,0.0,0.0,0.0,0.0,0.0,0.0,0.0,0.0,0.0,0.0,0.0,4.5094,4.4925,4.4615,4.5248,4.5377,4.4998,4.472,4.4615,4.4615,4.4615,4.4615,4.4615,0.0,4.4615,4.4615,4.4615,4.4615,4.4615,4.4615,4.4818,4.5196,4.5991,4.6639,4.7195,4.7489,4.7273,4.6781,4.6349,4.5869,4.5525,4.6048,4.5834,4.5561,4.6083,4.7205,4.8591,5.0059,5.0808,5.1606,5.3129,5.3501,5.3501,5.3501,5.3501,5.3501,5.3501,5.3501,5.3501,5.3501,5.411,5.4854,5.5598,5.6342,5.707,5.7797,5.7881,5.7881,5.7881,5.7881,5.7881,5.7881,5.7881,5.8082,5.8529,5.9262,5.9704,5.9704,5.9704,5.9476,5.9062,5.9062,5.8858,5.8441,5.8441,5.8263,5.7881,5.7881,5.7881,3.9388,3.9388,3.9646,0.0,0.0,4.2398,4.4025,0.0,0.0,0.0,0.0,0.0,0.0,0.0,0.0,0.0,0.0,0.0,0.0,0.0,0.0,0.0,0.0,0.0,0.0,0.0,0.0,0.0,0.0,0.0,0.0,0.0,0.0,0.0,4.4615,4.4615,4.4615,4.4615,4.4615,4.4615,4.4615,4.4615,4.4615,4.4615,4.4615,4.4615,4.4615,4.4615,4.4615,4.4615,4.4615,4.457,4.4384,4.4167,4.4173,4.5644,4.6063,4.6028,4.6693,4.647,4.5834,4.5618,4.5026,4.4586,4.529,4.5026,4.4608,4.5327,4.6321,4.7557,4.9332,5.0326,5.1311,5.3061,5.3501,5.3501,5.3501,5.3501,5.3501,5.3501,5.3501,5.3501,5.3501,5.4245,5.5057,5.5597,5.6478,5.7256,5.7814,5.7881,5.7881,5.7881,5.7881,5.7881,5.7881,5.7881,5.8156,5.8772,5.8806,5.8806,5.8806,5.8806,5.8529,5.7918,5.7881,5.7881,5.7881,5.7881,5.7881,5.7881,5.7881,5.7881,3.9388,3.9388,3.9809,4.1478,4.1965,0.0,4.4025,4.5644,0.0,0.0,0.0,0.0,0.0,0.0,0.0,0.0,0.0,0.0,0.0,0.0,0.0,0.0,0.0,0.0,0.0,0.0,0.0,0.0,0.0,0.0,0.0,0.0,0.0,0.0,0.0,4.4615,4.4615,4.4615,4.4615,4.4615,4.4615,4.4615,4.4615,4.4615,4.4615,4.4615,4.4615,4.4615,4.4615,4.4615,4.4615,4.4514,4.371,4.2909,4.2366,4.378,4.4276,4.4347,4.483,4.4946,4.4759,4.381,4.3472,4.3409,4.3472,4.3472,4.3433,4.3512,4.4633,4.6441,4.9099,4.985,5.0522,5.291,5.3501,5.3501,5.3501,5.3501,5.3501,5.3501,5.3501,5.3501,5.3501,5.4685,5.5649,5.57,5.6917,5.7831,5.7881,5.7881,5.7881,5.7881,5.7881,5.7881,5.7881,5.7881,5.7918,5.7974,5.7991,5.7991,5.7991,5.7991,5.7954,5.7881,5.7881,5.7881,5.7881,5.7881,5.7881,5.7881,5.7881,5.7881,3.9388,3.9793,4.05,4.1707,0.0,0.0,0.0,0.0,0.0,0.0,0.0,0.0,0.0,0.0,0.0,0.0,0.0,0.0,0.0,0.0,0.0,0.0,0.0,0.0,0.0,0.0,0.0,0.0,0.0,0.0,0.0,0.0,0.0,0.0,0.0,4.4615,4.4615,4.4615,4.4615,4.4615,4.4615,4.4615,4.4615,4.4615,4.4615,4.4615,4.4615,4.4615,4.4542,4.4006,4.3785,4.371,4.2847,4.2284,4.2173,4.3581,4.3736,4.3365,4.4443,4.4412,4.381,4.3409,4.329,4.329,4.329,4.329,4.329,4.329,4.4057,4.5312,4.7438,4.8753,5.0009,5.2028,5.2522,5.2679,5.3348,5.3501,5.3501,5.3501,5.3501,5.3653,5.411,5.504,5.5869,5.6325,5.7239,5.7881,5.7881,5.7881,5.7881,5.7881,5.7881,5.7881,5.7881,5.7881,5.7881,5.7881,5.7881,5.7881,5.7881,5.7881,5.7881,5.7881,5.7881,5.7881,5.7881,5.7881,5.7881,5.7881,5.7881,5.7881,3.9737,4.0239,4.0979,0.0,0.0,0.0,0.0,0.0,0.0,0.0,0.0,0.0,0.0,0.0,0.0,0.0,0.0,0.0,0.0,0.0,0.0,0.0,0.0,0.0,0.0,0.0,0.0,0.0,0.0,0.0,0.0,0.0,0.0,0.0,0.0,4.4615,4.4615,4.4615,4.4615,4.4615,4.4615,4.4615,4.4615,4.4615,4.4615,4.457,4.4327,4.4196,4.4121,4.3259,4.2724,4.2426,4.1836,4.1412,4.1368,4.2749,4.2858,4.2475,4.386,4.3888,4.329,4.329,4.329,4.329,4.329,4.329,4.329,4.329,4.3958,4.4869,4.6085,4.7606,4.9289,5.1029,5.1431,5.1704,5.2749,5.299,5.311,5.3416,5.3501,5.3737,5.4465,5.5209,5.597,5.6697,5.7425,5.7881,5.7881,5.7881,5.7881,5.7881,5.7881,5.7881,5.7881,5.7881,5.7881,5.7881,5.7881,5.7881,5.7881,5.7881,5.7881,5.7881,5.7881,5.7881,5.7881,5.7881,5.7881,5.7881,5.7881,5.7881,4.0466,4.0724,0.0,0.0,0.0,0.0,0.0,0.0,0.0,0.0,0.0,0.0,0.0,0.0,0.0,0.0,0.0,0.0,0.0,0.0,0.0,0.0,0.0,0.0,0.0,0.0,0.0,0.0,0.0,0.0,0.0,0.0,0.0,0.0,0.0,0.0,4.4615,4.4615,4.4615,4.4615,4.4598,4.4598,4.4615,4.4598,4.4587,4.4542,4.3651,4.3276,4.3216,4.2363,4.1478,4.069,4.069,4.015,3.9574,4.0891,4.1422,4.1564,4.288,4.329,4.329,4.329,4.329,4.329,4.329,4.329,4.329,4.3305,4.4287,4.5289,4.5304,4.6549,4.8228,4.9967,5.0358,5.0665,5.1651,5.1885,5.2189,5.3264,5.3467,5.3704,5.4482,5.5174,5.5935,5.6714,5.7425,5.7881,5.7881,5.7881,5.7881,5.7881,5.7881,5.7881,5.7881,5.7881,5.7881,5.7881,5.7881,5.7881,5.7881,5.7881,5.7881,5.7881,5.7881,5.7881,5.7881,5.7881,5.7881,5.7881,5.7881,5.7881,4.0466,0.0,0.0,0.0,0.0,0.0,0.0,0.0,0.0,0.0,0.0,0.0,0.0,0.0,0.0,0.0,0.0,0.0,0.0,0.0,0.0,0.0,0.0,0.0,0.0,0.0,0.0,0.0,0.0,0.0,0.0,0.0,0.0,0.0,0.0,0.0,4.4615,4.4615,4.4615,4.4598,4.3977,4.4006,4.457,4.3977,4.3697,4.3651,4.2769,4.2395,4.2332,4.1429,4.0569,3.9809,3.9809,3.9646,3.9574,4.0891,4.1422,4.1564,4.288,4.329,4.329,4.329,4.329,4.329,4.329,4.329,4.3394,4.3858,4.4631,4.5409,4.5888,4.6741,4.7745,4.8982,4.9256,4.9575,5.0627,5.0855,5.0946,5.1262,5.1336,5.195,5.3901,5.4426,5.5265,5.7248,5.7746,5.7881,5.7881,5.7881,5.7881,5.7881,5.7881,5.7881,5.7881,5.7881,5.7881,5.7881,5.7881,5.7881,5.7881,5.7881,5.7881,5.7881,5.7881,5.7881,5.7881,5.7881,5.7881,5.7881,5.7881,5.7463,4.0979,0.0,0.0,0.0,0.0,0.0,0.0,0.0,0.0,0.0,0.0,0.0,0.0,0.0,0.0,0.0,0.0,0.0,0.0,0.0,0.0,0.0,0.0,0.0,0.0,0.0,0.0,0.0,0.0,0.0,0.0,0.0,0.0,0.0,0.0,0.0,4.4615,4.4253,4.4093,4.4064,4.3199,4.3061,4.3545,4.3031,4.2785,4.2754,4.1869,4.128,4.0943,4.0413,3.9864,3.9388,3.9388,3.9388,3.9574,4.0891,4.1422,4.1564,4.288,4.329,4.329,4.329,4.329,4.329,4.329,4.329,4.3424,4.4122,4.4781,4.5454,4.6142,4.6815,4.7452,4.8072,4.821,4.8486,4.9536,4.9773,4.9891,5.032,5.0637,5.1376,5.3165,5.3681,5.4502,5.6305,5.6963,5.7372,5.7845,5.7881,5.7881,5.7881,5.7881,5.7881,5.7881,5.7881,5.7881,5.7881,5.7881,5.7881,5.7881,5.7881,5.7881,5.7881,5.7881,5.7881,5.7881,5.7881,5.7681,5.7206,5.7206,5.6624,0.0,0.0,0.0,0.0,0.0,0.0,0.0,0.0,0.0,0.0,0.0,0.0,0.0,0.0,0.0,0.0,0.0,0.0,0.0,0.0,0.0,0.0,0.0,0.0,0.0,0.0,0.0,0.0,0.0,0.0,0.0,0.0,0.0,0.0,0.0,0.0,4.4355,4.3591,4.3169,0.0,4.23,4.1901,4.1901,4.1901,4.1836,4.1707,4.0927,4.0115,3.9388,3.9388,3.9388,3.9388,3.9388,3.9454,3.9664,4.092,4.1452,4.1654,4.2895,4.329,4.329,4.329,4.329,4.329,4.329,4.329,4.3439,4.4212,4.4825,4.5469,4.6217,4.686,4.7309,4.7309,4.7309,4.7523,4.8486,4.8677,4.8948,4.9931,5.0659,5.1399,5.2229,5.2906,5.3665,5.4601,5.5594,5.6624,5.7755,5.7881,5.7881,5.7881,5.7881,5.7881,5.7881,5.7881,5.7881,5.7881,5.7881,5.7881,5.7881,5.7881,5.7881,5.7881,5.7881,5.7881,5.7881,5.7881,5.7297,5.6204,5.6204,5.5554,0.0,0.0,0.0,0.0,0.0,0.0,0.0,0.0,0.0,0.0,0.0,0.0,0.0,0.0,0.0,0.0,0.0,0.0,0.0,0.0,0.0,0.0,0.0,0.0,0.0,0.0,0.0,0.0,0.0,0.0,0.0,0.0,0.0,0.0,0.0,4.3259,4.2583,4.2379,4.2284,0.0,4.1412,4.0979,4.0979,4.0979,4.0603,3.9935,3.9773,3.9574,3.9388,3.9388,3.9388,3.9388,3.9388,3.9738,4.0292,4.1085,4.1752,4.2306,4.306,4.329,4.329,4.329,4.329,4.329,4.329,4.329,4.3544,4.4751,4.5185,4.5574,4.677,4.7189,4.7309,4.7309,4.7309,4.7337,4.7581,4.7609,4.7679,4.7934,4.8508,4.9433,5.0969,5.1798,5.3065,5.548,5.6031,5.6624,5.7755,5.7881,5.7881,5.7881,5.7881,5.7881,5.7881,5.7881,5.7881,5.7881,5.7881,5.7881,5.7881,5.7881,5.7881,5.7881,5.7881,5.7881,5.7881,5.7881,5.7297,5.6204,5.6204,5.5134,0.0,0.0,0.0,0.0,0.0,0.0,0.0,0.0,0.0,0.0,0.0,0.0,0.0,0.0,0.0,0.0,0.0,0.0,0.0,0.0,0.0,0.0,0.0,0.0,0.0,0.0,0.0,0.0,0.0,0.0,0.0,0.0,0.0,0.0,4.2676,4.2458,4.1997,4.1609,4.1379,4.1379,4.05,4.008,4.008,4.008,3.9829,3.9388,3.9388,3.9388,3.9388,3.9388,3.9388,3.9418,3.9768,4.0098,4.0516,4.1527,4.2111,4.25,4.3105,4.329,4.329,4.329,4.329,4.329,4.329,4.3514,4.4003,4.5005,4.5529,4.6022,4.704,4.7309,4.7309,4.7309,4.7309,4.7309,4.7309,4.7309,4.7399,4.7713,4.8312,4.9163,5.0374,5.1133,5.2277,5.4326,5.464,5.5011,5.6181,5.6315,5.6315,5.6315,5.6315,5.6315,5.6315,5.6315,5.6315,5.6315,5.6794,5.6849,5.6354,5.6794,5.7335,5.7881,5.7372,5.7093,5.7076,5.6564,5.573,5.464,5.464,5.3726,0.0,0.0,0.0,0.0,0.0,0.0,0.0,0.0,0.0,0.0,0.0,0.0,0.0,0.0,0.0,0.0,0.0,0.0,0.0,0.0,0.0,0.0,0.0,0.0,0.0,0.0,0.0,0.0,0.0,0.0,0.0,0.0,4.2816,4.1804,4.1772,4.1707,4.1543,4.0826,4.0466,4.0466,3.9737,3.9388,3.9388,3.9388,3.9388,3.9388,3.9388,3.9388,3.9388,3.9388,3.9484,3.9649,4.0187,4.0531,4.0876,4.1991,4.247,4.265,4.315,4.329,4.329,4.329,4.329,4.329,4.329,4.3753,4.4451,4.511,4.5783,4.6429,4.713,4.7309,4.7309,4.7309,4.7309,4.7309,4.7309,4.7309,4.7504,4.8162,4.891,4.9643,5.0255,5.0808,5.1603,5.2738,5.29,5.3324,5.4463,5.4589,5.4589,5.4589,5.4589,5.4589,5.4589,5.4589,5.4589,5.4589,5.5434,5.5514,5.463,5.5434,5.6376,5.7297,5.6415,5.5913,5.5913,5.5027,5.3999,5.29,5.29,5.2275,0.0,0.0,0.0,0.0,0.0,0.0,0.0,0.0,0.0,0.0,0.0,0.0,0.0,0.0,0.0,0.0,0.0,0.0,0.0,0.0,0.0,0.0,0.0,0.0,0.0,0.0,0.0,0.0,0.0,0.0,0.0,4.3306,4.2552,4.0912,4.0878,4.05,3.9737,3.9646,3.9574,3.9574,3.9445,3.9388,3.9388,3.9388,3.9388,3.9388,3.9388,3.9388,3.9388,3.9388,3.9753,4.0277,4.0367,4.11,4.2156,4.2336,4.2716,4.317,4.326,4.329,4.329,4.329,4.329,4.329,4.329,4.3753,4.4451,4.511,4.5783,4.6429,4.713,4.7309,4.7309,4.7309,4.7309,4.7309,4.7309,4.7309,4.7504,4.8162,4.9269,5.027,5.0928,5.1154,5.1603,5.2738,5.29,5.3324,5.4463,5.4589,5.4589,5.4589,5.4589,5.4589,5.4589,5.4589,5.4589,5.4589,5.4739,5.4755,5.463,5.4755,5.4879,5.5043,5.4863,5.4822,5.4822,5.4672,5.3999,5.29,5.29,5.2275,0.0,0.0,0.0,0.0,0.0,0.0,0.0,0.0,0.0,0.0,0.0,0.0,0.0,0.0,0.0,0.0,0.0,0.0,0.0,0.0,0.0,0.0,0.0,0.0,0.0,0.0,0.0,0.0,0.0,0.0,4.1933,4.1836,4.128,4.0025,3.9955,3.9793,3.9409,3.9388,3.9388,3.9388,3.9388,3.9388,3.9388,3.9388,3.9388,3.9388,3.9388,3.9388,3.9388,3.9388,3.9813,4.0442,4.0801,4.1572,4.244,4.2776,4.309,4.329,4.329,4.329,4.329,4.329,4.329,4.3364,4.3738,4.4347,4.5005,4.5678,4.6352,4.6935,4.7234,4.7309,4.7309,4.7309,4.7309,4.7309,4.7309,4.7309,4.7608,4.8641,4.9898,5.0823,5.1169,5.1214,5.1386,5.1896,5.1926,5.2154,5.2649,5.2694,5.2694,5.2694,5.2694,5.2694,5.2694,5.2694,5.2694,5.2694,5.3281,5.3368,5.2738,5.3324,5.3368,5.2694,5.3324,5.3656,5.3671,5.2989,5.244,5.1926,5.1926,5.1681,0.0,0.0,0.0,0.0,0.0,0.0,0.0,0.0,0.0,0.0,0.0,0.0,0.0,0.0,0.0,0.0,0.0,0.0,0.0,0.0,0.0,0.0,0.0,0.0,0.0,0.0,0.0,0.0,0.0,0.0,4.0777,4.069,4.0309,3.9424,3.9388,3.9388,3.9388,3.9388,3.9388,3.9388,3.9388,3.9388,3.9388,3.9388,3.9388,3.9388,3.9388,3.9388,3.9388,3.9568,4.0053,4.0711,4.1407,4.2066,4.2671,4.315,4.329,4.329,4.329,4.329,4.329,4.329,4.329,4.3424,4.4122,4.4766,4.5439,4.6127,4.68,4.7309,4.7309,4.7309,4.7309,4.7309,4.7309,4.7354,4.7519,4.7683,4.8147,4.9284,5.0436,5.1214,5.1214,5.1214,5.1214,5.1214,5.1214,5.1214,5.1214,5.1214,5.1214,5.1214,5.1214,5.1214,5.1214,5.1214,5.1214,5.1214,5.2018,5.2109,5.1214,5.2018,5.2063,5.1214,5.2018,5.2485,5.2485,5.1588,5.1214,5.1214,5.1214,5.1214,0.0,0.0,0.0,0.0,0.0,0.0,0.0,0.0,0.0,0.0,0.0,0.0,0.0,0.0,0.0,0.0,0.0,0.0,0.0,0.0,0.0,0.0,0.0,0.0,0.0,0.0,0.0,0.0,0.0,0.0,4.0777,4.069,4.0309,3.9424,3.9388,3.9388,3.9388,3.9388,3.9388,3.9388,3.9388,3.9388,3.9388,3.9388,3.9388,3.9388,3.9388,3.9388,3.9433,4.0098,4.0726,4.1384,4.2096,4.2701,4.3245,4.329,4.329,4.329,4.329,4.329,4.329,4.329,4.329,4.3424,4.4122,4.4766,4.5439,4.6127,4.68,4.7309,4.7309,4.7309,4.7309,4.7309,4.7309,4.7474,4.8102,4.8775,4.9374,5.0001,5.0704,5.1214,5.1214,5.1214,5.1214,5.1214,5.1214,5.1214,5.1214,5.1214,5.1214,5.1214,5.1214,5.1214,5.1214,5.1214,5.1214,5.1214,5.1261,5.1261,5.1214,5.1261,5.1261,5.1214,5.1261,5.1308,5.1308,5.1214,5.1214,5.1214,5.1214,5.1214,0.0,0.0,0.0,0.0,0.0,0.0,0.0,0.0,0.0,0.0,0.0,0.0,0.0,0.0,0.0,0.0,0.0,0.0,0.0,0.0,0.0,0.0,0.0,0.0,0.0,0.0,0.0,0.0,0.0,0.0,3.9935,3.9864,3.9737,3.9424,3.9388,3.9388,3.9388,3.9388,3.9388,3.9388,3.9388,3.9388,3.9388,3.9388,3.9388,3.9403,3.9858,4.0053,4.0068,4.0307,4.104,4.2066,4.2306,4.2761,4.329,4.329,4.329,4.329,4.329,4.329,4.329,4.329,4.3574,4.4092,4.4751,4.5424,4.6097,4.677,4.7115,4.7309,4.7309,4.7309,4.7309,4.7309,4.7623,4.8117,4.882,4.9149,4.9464,5.0061,5.0719,5.1214,5.1214,5.1214,5.1214,5.1214,5.1214,5.1214,5.1214,5.1214,5.1214,5.1214,5.1214,5.1214,5.1214,5.1214,5.1214,5.1214,5.1214,5.1214,5.1214,5.1214,5.1214,5.1214,5.1214,5.1214,5.1214,5.1214,5.1214,5.1214,5.1214,5.1214,0.0,0.0,0.0,0.0,0.0,0.0,0.0,0.0,0.0,0.0,0.0,0.0,0.0,0.0,0.0,0.0,0.0,0.0,0.0,0.0,0.0,0.0,0.0,0.0,0.0,0.0,0.0,0.0,0.0,0.0,3.9445,3.9388,3.9388,3.9388,3.9388,3.9388,3.9388,3.9388,3.9388,3.9388,3.9388,3.9388,3.9388,3.9388,3.9508,3.9768,4.0217,4.0397,4.0427,4.0876,4.1617,4.2425,4.2635,4.2955,4.329,4.329,4.329,4.329,4.329,4.329,4.329,4.329,4.3738,4.4436,4.5095,4.5783,4.6456,4.7115,4.7309,4.7309,4.7309,4.7309,4.7309,4.7309,4.7803,4.8461,4.9164,4.9434,4.9793,5.039,5.0883,5.1214,5.1214,5.1214,5.1214,5.1214,5.1214,5.1214,5.1214,5.1214,5.1214,5.1214,5.1214,5.1214,5.1214,5.1214,5.1214,5.1214,5.1214,5.1214,5.1214,5.1214,5.1214,5.1214,5.1214,5.1214,5.1214,5.1214,5.1214,5.1214,5.1214,5.1214,0.0,0.0,0.0,0.0,0.0,0.0,0.0,0.0,0.0,0.0,0.0,0.0,0.0,0.0,0.0,0.0,0.0,0.0,0.0,0.0,0.0,0.0,0.0,0.0,0.0,0.0,0.0,0.0,0.0,4.0274,3.9445,3.9388,3.9388,3.9388,3.9388,3.9388,3.9388,3.9388,3.9388,3.9388,3.9388,3.9388,3.9388,3.9403,3.9798,4.0397,4.0442,4.0457,4.0561,4.1871,4.241,4.2485,4.309,4.329,4.329,4.329,4.329,4.329,4.329,4.329,4.329,4.3319,4.3768,4.4466,4.5125,4.5813,4.6486,4.713,4.7309,4.7309,4.7309,4.7309,4.7309,4.7324,4.7833,4.8491,4.9194,4.9808,5.0405,5.1094,5.1214,5.1214,5.1214,5.1214,5.1214,5.1214,5.1214,5.1214,5.1214,5.1214,5.1214,5.1214,5.1214,5.1214,5.1214,5.1214,5.1214,5.1214,5.1214,5.1214,5.1214,5.1214,5.1214,5.1214,5.1214,5.1214,5.1214,5.1214,5.1214,5.1214,5.1214,5.1214,3.7942,0.0,0.0,0.0,0.0,0.0,0.0,0.0,0.0,0.0,0.0,0.0,0.0,0.0,0.0,0.0,0.0,0.0,0.0,0.0,0.0,0.0,0.0,0.0,0.0,0.0,0.0,0.0,4.0115,3.9631,3.9409,3.9388,3.9388,3.9388,3.9388,3.9388,3.9388,3.9388,3.9388,3.9388,3.9388,3.9388,3.9439,3.9903,4.0232,4.0442,4.1452,4.1856,4.1886,4.2246,4.2641,4.309,4.3215,4.329,4.329,4.329,4.329,4.329,4.329,4.329,4.3364,4.3883,4.4481,4.5155,4.5828,4.6501,4.707,4.7249,4.7309,4.7309,4.7309,4.7309,4.7429,4.7908,4.8521,4.9179,4.9823,5.0435,5.1005,5.1184,5.1214,5.1214,5.1214,5.1214,5.1214,5.1214,5.1214,5.1214,5.1214,5.1214,5.1214,5.1214,5.1214,5.1214,5.1214,5.1214,5.1214,5.1214,5.1214,5.1214,5.1214,5.1214,5.1214,5.1214,5.1214,5.1214,5.1214,5.1214,5.1214,5.1214,5.1214,5.1214,0.0,0.0,0.0,0.0,0.0,0.0,0.0,4.108,0.0,0.0,0.0,0.0,0.0,0.0,0.0,0.0,0.0,0.0,0.0,0.0,0.0,0.0,0.0,0.0,0.0,0.0,0.0,0.0,3.9702,3.9388,3.9388,3.9388,3.9388,3.9388,3.9388,3.9388,3.9388,3.9388,3.9388,3.9388,3.9694,3.9828,3.9843,4.0502,4.0965,4.1265,4.2066,4.2545,4.2776,4.2776,4.2985,4.329,4.329,4.329,4.329,4.329,4.329,4.329,4.329,4.329,4.3409,4.4067,4.4751,4.5424,4.6112,4.6785,4.7309,4.7309,4.7309,4.7309,4.7309,4.7309,4.7474,4.8132,4.8835,4.9449,5.0046,5.0704,5.1214,5.1214,5.1214,5.1214,5.1214,5.1214,5.1214,5.1214,5.1214,5.1214,5.1214,5.1214,5.1214,5.1214,5.1214,5.1214,5.1214,5.1214,5.1214,5.1214,5.1214,5.1214,5.1214,5.1214,5.1214,5.1214,5.1214,5.1214,5.1214,5.1214,5.1214,5.1214,5.1214,5.1214,0.0,0.0,0.0,0.0,0.0,0.0,4.0209,4.0485,4.0792,0.0,0.0,0.0,0.0,0.0,0.0,0.0,0.0,0.0,0.0,0.0,0.0,0.0,0.0,0.0,0.0,0.0,4.0239,3.9445,3.9388,3.9388,3.9388,3.9388,3.9388,3.9388,3.9448,3.9493,3.9493,3.9568,3.9634,3.9649,4.0232,4.0502,4.0531,4.1227,4.1856,4.2396,4.247,4.2791,4.329,4.329,4.329,4.329,4.329,4.329,4.329,4.329,4.329,4.329,4.329,4.3349,4.3514,4.4212,4.487,4.5544,4.6232,4.6845,4.7309,4.7309,4.7309,4.7309,4.7309,4.7354,4.7578,4.8237,4.894,4.9553,5.0166,5.0764,5.1214,5.1214,5.1214,5.1214,5.1214,5.1214,5.1214,5.1214,5.1214,5.1214,5.1214,5.1214,5.1214,5.1214,5.1214,5.1214,5.1214,5.1214,5.1214,5.1214,5.1214,5.1214,5.1214,5.1214,5.1214,5.1214,5.1214,5.1214,5.1214,5.1214,5.1214,5.1214,5.1214,5.1214,0.0,0.0,0.0,0.0,0.0,0.0,3.8339,3.903,3.9702,0.0,0.0,0.0,0.0,0.0,0.0,0.0,0.0,0.0,0.0,0.0,0.0,0.0,0.0,0.0,0.0,0.0,3.9574,3.9409,3.9388,3.9388,3.9388,3.9388,3.9388,3.9388,3.9933,4.0202,4.0202,4.0726,4.0995,4.0995,4.113,4.119,4.1205,4.1916,4.2276,4.2425,4.291,4.317,4.329,4.329,4.329,4.329,4.329,4.329,4.329,4.329,4.329,4.329,4.329,4.3633,4.4227,4.4885,4.5559,4.6247,4.692,4.7204,4.7309,4.7309,4.7309,4.7309,4.7309,4.7698,4.8252,4.897,4.9568,5.0181,5.0838,5.1124,5.1214,5.1214,5.1214,5.1214,5.1214,5.1214,5.1214,5.1214,5.1214,5.1214,5.1214,5.1214,5.1214,5.1214,5.1214,5.1214,5.1214,5.1214,5.1214,5.1214,5.1214,5.1214,5.1214,5.1214,5.1214,5.1214,5.1214,5.1214,5.1214,5.1214,5.1214,5.1214,5.1214,5.1214,0.0,0.0,0.0,3.5319,0.0,0.0,0.0,3.7814,3.8583,0.0,0.0,0.0,0.0,0.0,0.0,0.0,0.0,0.0,0.0,0.0,0.0,0.0,0.0,0.0,0.0,0.0,3.9388,3.9388,3.9388,3.9574,3.9888,3.9903,4.0053,4.0382,4.0711,4.0891,4.0891,4.122,4.1422,4.1422,4.1752,4.1916,4.1931,4.2551,4.2851,4.2865,4.3155,4.329,4.329,4.329,4.329,4.329,4.329,4.329,4.329,4.329,4.329,4.3349,4.3663,4.4007,4.4481,4.5484,4.6037,4.6456,4.7115,4.7309,4.7309,4.7309,4.7309,4.7309,4.7309,4.7803,4.8461,4.9149,4.9763,5.0375,5.1079,5.1214,5.1214,5.1214,5.1214,5.1214,5.1214,5.1214,5.1214,5.1214,5.1214,5.1214,5.1214,5.1214,5.1214,5.1214,5.1214,5.1214,5.1214,5.1214,5.1214,5.1214,5.1214,5.1214,5.1214,5.1214,5.1214,5.1214,5.1214,5.1214,5.1214,5.1214,5.1214,5.1214,5.1214,5.1214,0.0,0.0,0.0,0.0,0.0,3.6236,0.0,0.0,0.0,3.7686,0.0,0.0,0.0,0.0,0.0,0.0,0.0,0.0,0.0,0.0,0.0,0.0,0.0,0.0,0.0,3.9798,3.9798,3.9798,3.9798,4.0023,4.0561,4.0591,4.0831,4.1369,4.1542,4.1602,4.1602,4.1698,4.1758,4.1758,4.2297,4.259,4.2605,4.309,4.329,4.329,4.329,4.329,4.329,4.329,4.329,4.329,4.329,4.329,4.329,4.329,4.329,4.3394,4.4092,4.4392,4.4706,4.5933,4.6369,4.6606,4.7145,4.7309,4.7309,4.7309,4.7309,4.7339,4.7459,4.7982,4.8641,4.9299,4.9942,5.0524,5.1063,5.1214,5.1214,5.1214,5.1214,5.1214,5.1214,5.1214,5.1214,5.1214,5.1214,5.1214,5.1214,5.1214,5.1214,5.1214,5.1214,5.1214,5.1214,5.1214,5.1214,5.1214,5.1214,5.1214,5.1214,5.1214,5.1214,5.1214,5.1214,5.1214,5.1214,5.1214,5.1214,5.1214,5.1214,5.1214,0.0,0.0,0.0,0.0,3.5481,0.0,0.0,0.0,3.773,3.7286,0.0,0.0,0.0,0.0,0.0,0.0,0.0,0.0,0.0,0.0,0.0,0.0,0.0,0.0,0.0,0.0,4.116,4.116,4.116,4.1227,4.1265,4.1265,4.1309,4.1422,4.1991,4.2291,4.2291,4.2821,4.3065,4.308,4.314,4.3185,4.3185,4.326,4.329,4.329,4.329,4.329,4.329,4.329,4.329,4.329,4.329,4.329,4.329,4.329,4.329,4.3394,4.4092,4.4691,4.5304,4.6082,4.6711,4.7204,4.7279,4.7309,4.7309,4.7309,4.7309,4.7444,4.8027,4.8656,4.9314,4.9927,5.0584,5.1124,5.1199,5.1214,5.1214,5.1214,5.1214,5.1214,5.1214,5.1214,5.1214,5.1214,5.1214,5.1214,5.1214,5.1214,5.1214,5.1214,5.1214,5.1214,5.1214,5.1214,5.1214,5.1214,5.1214,5.1214,5.1214,5.1214,5.1214,5.1214,5.1214,5.1214,5.1214,5.1214,5.1214,5.1214,5.1214,5.1214,0.0,0.0,0.0,0.0,0.0,0.0,0.0,0.0,3.69,0.0,0.0,0.0,0.0,0.0,0.0,0.0,0.0,0.0,0.0,0.0,0.0,0.0,0.0,0.0,0.0,0.0,0.0,0.0,0.0,4.1587,4.1976,4.1991,4.2156,4.2506,4.2776,4.2925,4.2925,4.3155,4.329,4.329,4.329,4.329,4.329,4.329,4.329,4.329,4.329,4.329,4.329,4.329,4.329,4.329,4.329,4.329,4.329,4.329,4.3544,4.4003,4.4661,4.5319,4.6007,4.6681,4.7085,4.7309,4.7309,4.7309,4.7309,4.7309,4.7578,4.7938,4.8222,4.906,4.9898,5.0121,5.0689,5.1214,5.1214,5.1214,5.1214,5.1214,5.1214,5.1214,5.1214,5.1214,5.1214,5.1214,5.1214,5.1214,5.1214,5.1214,5.1214,5.1214,5.1214,5.1214,5.1214,5.1214,5.1214,5.1214,5.1214,5.1214,5.1214,5.1214,5.1214,5.1214,5.1214,5.1214,5.1214,5.1214,5.1214,5.1214,5.1214,5.1214,3.6215,0.0,0.0,0.0,0.0,0.0,0.0,0.0,0.0,0.0,0.0,0.0,0.0,0.0,0.0,0.0,0.0,0.0,0.0,0.0,0.0,0.0,0.0,0.0,0.0,0.0,0.0,0.0,4.1923,4.2117,4.2611,4.2626,4.2851,4.329,4.329,4.329,4.329,4.329,4.329,4.329,4.329,4.329,4.329,4.329,4.329,4.329,4.329,4.329,4.329,4.329,4.329,4.329,4.329,4.329,4.329,4.329,4.3708,4.4407,4.5065,4.5858,4.6666,4.7145,4.7309,4.7309,4.7309,4.7309,4.7309,4.7309,4.7773,4.8327,4.8506,4.9389,5.024,5.042,5.0823,5.1214,5.1214,5.1214,5.1214,5.1214,5.1214,5.1214,5.1214,5.1214,5.1214,5.1214,5.1214,5.1214,5.1214,5.1214,5.1214,5.1214,5.1214,5.1214,5.1214,5.1214,5.1214,5.1214,5.1214,5.1214,5.1214,5.1214,5.1214,5.1214,5.1214,5.1214,5.1214,5.1214,5.1214,5.1214,5.1214,5.1214,0.0,0.0,0.0,0.0,0.0,0.0,0.0,0.0,3.6251,0.0,0.0,0.0,0.0,0.0,0.0,0.0,0.0,0.0,0.0,0.0,0.0,0.0,0.0,0.0,0.0,0.0,0.0,4.323,4.323,4.3245,4.326,4.326,4.3275,4.329,4.329,4.329,4.329,4.329,4.329,4.329,4.329,4.329,4.329,4.329,4.329,4.329,4.329,4.329,4.329,4.329,4.329,4.329,4.329,4.329,4.329,4.329,4.3708,4.4407,4.5065,4.6157,4.7279,4.7294,4.7309,4.7309,4.7309,4.7309,4.7309,4.7309,4.7773,4.8431,4.912,4.9733,5.0345,5.0988,5.1199,5.1214,5.1214,5.1214,5.1214,5.1214,5.1214,5.1214,5.1214,5.1214,5.1214,5.1214,5.1214,5.1214,5.1214,5.1214,5.1214,5.1214,5.1214,5.1214,5.1214,5.1214,5.1214,5.1214,5.1214,5.1214,5.1214,5.1214,5.1214,5.1214,5.1214,5.1214,5.1214,5.1214,5.1214,5.1214,5.1214,5.1214,0.0,0.0,3.9931,3.803,0.0,0.0,0.0,0.0,0.0,0.0,0.0,0.0,0.0,0.0,0.0,0.0,0.0,0.0,0.0,0.0,0.0,0.0,0.0,0.0,0.0,0.0,0.0,4.2152,4.286,4.329,0.0,4.329,4.329,4.329,4.329,4.329,4.329,4.329,4.329,4.329,4.329,4.329,4.329,4.329,4.329,4.329,4.329,4.329,4.329,4.329,4.329,4.329,4.329,4.3559,4.3947,4.3947,4.4407,4.5125,4.6247,4.692,4.7309,4.7309,4.7309,4.7309,4.7309,4.7309,4.7399,4.7833,4.8431,4.9134,4.9733,5.0391,5.0898,5.1169,5.1214,5.1214,5.1214,5.1214,5.1214,5.1214,5.1214,5.1214,5.1214,5.1214,5.1214,5.1214,5.1214,5.1214,5.1214,5.1214,5.1214,5.1214,5.1214,5.1214,5.1214,5.1214,5.1214,5.1214,5.1214,5.1214,5.1214,5.1214,5.1214,5.1214,5.1214,5.1214,5.1214,5.1214,5.1214,5.1214,5.1214,5.1214,4.0618,4.1042,0.0,0.0,3.9006,0.0,3.7335,0.0,0.0,0.0,0.0,0.0,0.0,0.0,0.0,0.0,0.0,0.0,0.0,0.0,0.0,0.0,0.0,0.0,0.0,0.0,4.1169,4.1587,4.229,4.286,0.0,0.0,4.329,4.329,4.329,4.329,4.329,4.329,4.329,4.329,4.329,4.329,4.329,4.329,4.329,4.329,4.329,4.329,4.329,4.329,4.329,4.329,4.329,4.3693,4.4317,4.4317,4.4885,4.5813,4.692,4.7309,4.7309,4.7309,4.7309,4.7309,4.7309,4.7474,4.7743,4.8162,4.8925,4.9703,5.0091,5.0689,5.1214,5.1214,5.1214,5.1214,5.1214,5.1214,5.1214,5.1214,5.1214,5.1214,5.1214,5.1214,5.1214,5.1214,5.1214,5.1214,5.1214,5.1214,5.1214,5.1214,5.1214,5.1214,5.1214,5.1214,5.1214,5.1214,5.1214,5.1214,5.1214,5.1214,5.1439,5.1902,5.1454,5.1454,5.1917,5.1454,5.1214,5.1214,5.1214,5.1214]}]]